Wetterdaten: Montag, 05.02.2018
Datum Zeit Temp. A. Pool Temp. Feuchte A. Luftdruck Regen Wind Richtung Richtung Sonnenschein ET UV Solar Taupunkt Windchill Windben Empfang
05.02.2018 00:00 -3,1 C 4,4 C 96 % 1021,5 hPa 0,0 l/m 0,0 km/h (0 Bft) O-NO 65 0 min 0,000 mm 0,0 UV-I 0 W/m -3,6 C -3,1 C 0,0 km/h (0 Bft) 97,87 %
05.02.2018 00:02 -3,1 C 4,4 C 96 % 1021,5 hPa 0,0 l/m 0,0 km/h (0 Bft) O-NO 65 0 min 0,000 mm 0,0 UV-I 0 W/m -3,6 C -3,1 C 0,0 km/h (0 Bft) 95,35 %
05.02.2018 00:04 -3,0 C 4,4 C 96 % 1021,5 hPa 0,0 l/m 0,0 km/h (0 Bft) O-NO 65 0 min 0,000 mm 0,0 UV-I 0 W/m -3,5 C -3,0 C 0,0 km/h (0 Bft) 95,74 %
05.02.2018 00:06 -2,8 C 4,4 C 96 % 1021,5 hPa 0,0 l/m 0,0 km/h (0 Bft) O-NO 65 0 min 0,000 mm 0,0 UV-I 0 W/m -3,3 C -2,8 C 0,0 km/h (0 Bft) 97,87 %
05.02.2018 00:08 -2,8 C 4,4 C 96 % 1021,5 hPa 0,0 l/m 0,0 km/h (0 Bft) O-NO 65 0 min 0,000 mm 0,0 UV-I 0 W/m -3,3 C -2,8 C 0,0 km/h (0 Bft) 97,87 %
05.02.2018 00:10 -2,7 C 4,4 C 96 % 1021,6 hPa 0,0 l/m 0,0 km/h (0 Bft) O-NO 65 0 min 0,000 mm 0,0 UV-I 0 W/m -3,2 C -2,7 C 0,0 km/h (0 Bft) 97,87 %
05.02.2018 00:12 -2,8 C 4,4 C 96 % 1021,6 hPa 0,0 l/m 0,6 km/h (0 Bft) O-NO 65 0 min 0,000 mm 0,0 UV-I 0 W/m -3,3 C -2,8 C 1,6 km/h (1 Bft) 93,62 %
05.02.2018 00:14 -2,7 C 4,4 C 96 % 1021,6 hPa 0,0 l/m 0,2 km/h (0 Bft) O-NO 65 0 min 0,000 mm 0,0 UV-I 0 W/m -3,2 C -2,7 C 1,6 km/h (1 Bft) 97,87 %
05.02.2018 00:16 -2,7 C 4,4 C 96 % 1021,6 hPa 0,0 l/m 2,0 km/h (1 Bft) O-NO 65 0 min 0,000 mm 0,0 UV-I 0 W/m -3,2 C -2,7 C 3,2 km/h (1 Bft) 97,87 %
05.02.2018 00:18 -2,6 C 4,4 C 96 % 1021,6 hPa 0,0 l/m 1,8 km/h (1 Bft) O-NO 65 0 min 0,000 mm 0,0 UV-I 0 W/m -3,1 C -2,6 C 3,2 km/h (1 Bft) 97,87 %
05.02.2018 00:20 -2,5 C 4,4 C 96 % 1021,7 hPa 0,0 l/m 2,4 km/h (1 Bft) O-NO 65 0 min 0,000 mm 0,0 UV-I 0 W/m -3,0 C -2,5 C 3,2 km/h (1 Bft) 100,00 %
05.02.2018 00:22 -2,5 C 4,4 C 96 % 1021,6 hPa 0,0 l/m 2,2 km/h (1 Bft) O-NO 65 0 min 0,000 mm 0,0 UV-I 0 W/m -3,0 C -2,5 C 3,2 km/h (1 Bft) 100,00 %
05.02.2018 00:24 -2,4 C 4,4 C 96 % 1021,6 hPa 0,0 l/m 2,4 km/h (1 Bft) O-NO 65 0 min 0,000 mm 0,0 UV-I 0 W/m -2,9 C -2,4 C 3,2 km/h (1 Bft) 100,00 %
05.02.2018 00:26 -2,4 C 4,4 C 96 % 1021,6 hPa 0,0 l/m 2,5 km/h (1 Bft) O-NO 65 0 min 0,000 mm 0,0 UV-I 0 W/m -2,9 C -2,4 C 3,2 km/h (1 Bft) 100,00 %
05.02.2018 00:28 -2,3 C 4,4 C 96 % 1021,7 hPa 0,0 l/m 2,8 km/h (1 Bft) O-NO 65 0 min 0,000 mm 0,0 UV-I 0 W/m -2,8 C -2,3 C 3,2 km/h (1 Bft) 95,74 %
05.02.2018 00:30 -2,3 C 4,4 C 96 % 1021,7 hPa 0,0 l/m 3,0 km/h (1 Bft) O-NO 65 0 min 0,000 mm 0,0 UV-I 0 W/m -2,8 C -2,3 C 4,8 km/h (1 Bft) 100,00 %
05.02.2018 00:32 -2,2 C 4,4 C 96 % 1021,7 hPa 0,0 l/m 3,2 km/h (1 Bft) O-NO 65 0 min 0,000 mm 0,0 UV-I 0 W/m -2,7 C -2,2 C 4,8 km/h (1 Bft) 100,00 %
05.02.2018 00:34 -2,2 C 4,4 C 96 % 1021,7 hPa 0,0 l/m 2,8 km/h (1 Bft) O-NO 65 0 min 0,000 mm 0,0 UV-I 0 W/m -2,7 C -2,2 C 3,2 km/h (1 Bft) 97,87 %
05.02.2018 00:36 -2,2 C 4,4 C 96 % 1021,7 hPa 0,0 l/m 2,8 km/h (1 Bft) O-NO 65 0 min 0,000 mm 0,0 UV-I 0 W/m -2,7 C -2,2 C 3,2 km/h (1 Bft) 100,00 %
05.02.2018 00:38 -2,2 C 4,4 C 96 % 1021,6 hPa 0,0 l/m 2,7 km/h (1 Bft) O-NO 65 0 min 0,000 mm 0,0 UV-I 0 W/m -2,7 C -2,2 C 3,2 km/h (1 Bft) 100,00 %
05.02.2018 00:40 -2,2 C 4,4 C 96 % 1021,6 hPa 0,0 l/m 3,2 km/h (1 Bft) O-NO 65 0 min 0,000 mm 0,0 UV-I 0 W/m -2,7 C -2,2 C 4,8 km/h (1 Bft) 97,87 %
05.02.2018 00:42 -2,2 C 4,4 C 96 % 1021,6 hPa 0,0 l/m 2,5 km/h (1 Bft) O-NO 65 0 min 0,000 mm 0,0 UV-I 0 W/m -2,7 C -2,2 C 3,2 km/h (1 Bft) 97,87 %
05.02.2018 00:44 -2,2 C 4,4 C 96 % 1021,6 hPa 0,0 l/m 2,7 km/h (1 Bft) O-NO 65 0 min 0,000 mm 0,0 UV-I 0 W/m -2,7 C -2,2 C 3,2 km/h (1 Bft) 97,87 %
05.02.2018 00:46 -2,2 C 4,4 C 96 % 1021,6 hPa 0,0 l/m 2,3 km/h (1 Bft) O-NO 65 0 min 0,000 mm 0,0 UV-I 0 W/m -2,7 C -2,2 C 3,2 km/h (1 Bft) 97,87 %
05.02.2018 00:48 -2,2 C 4,4 C 96 % 1021,7 hPa 0,0 l/m 2,2 km/h (1 Bft) O-NO 65 0 min 0,000 mm 0,0 UV-I 0 W/m -2,7 C -2,2 C 3,2 km/h (1 Bft) 97,87 %
05.02.2018 00:50 -2,2 C 4,4 C 96 % 1021,6 hPa 0,0 l/m 1,8 km/h (1 Bft) O-NO 65 0 min 0,000 mm 0,0 UV-I 0 W/m -2,7 C -2,2 C 3,2 km/h (1 Bft) 95,74 %
05.02.2018 00:52 -2,2 C 4,4 C 96 % 1021,6 hPa 0,0 l/m 2,1 km/h (1 Bft) O-NO 65 0 min 0,000 mm 0,0 UV-I 0 W/m -2,7 C -2,2 C 3,2 km/h (1 Bft) 93,62 %
05.02.2018 00:54 -2,2 C 4,4 C 96 % 1021,7 hPa 0,0 l/m 1,8 km/h (1 Bft) O-NO 65 0 min 0,000 mm 0,0 UV-I 0 W/m -2,7 C -2,2 C 3,2 km/h (1 Bft) 97,87 %
05.02.2018 00:56 -2,2 C 4,4 C 96 % 1021,6 hPa 0,0 l/m 1,9 km/h (1 Bft) O-NO 65 0 min 0,000 mm 0,0 UV-I 0 W/m -2,7 C -2,2 C 3,2 km/h (1 Bft) 95,74 %
05.02.2018 00:58 -2,3 C 4,4 C 96 % 1021,6 hPa 0,0 l/m 1,5 km/h (1 Bft) O-NO 65 0 min 0,000 mm 0,0 UV-I 0 W/m -2,8 C -2,3 C 3,2 km/h (1 Bft) 97,87 %
05.02.2018 01:00 -2,3 C 4,4 C 96 % 1021,6 hPa 0,0 l/m 2,4 km/h (1 Bft) O-NO 65 0 min 0,000 mm 0,0 UV-I 0 W/m -2,8 C -2,3 C 3,2 km/h (1 Bft) 97,87 %
05.02.2018 01:02 -2,4 C 4,4 C 96 % 1021,7 hPa 0,0 l/m 2,8 km/h (1 Bft) O-NO 65 0 min 0,000 mm 0,0 UV-I 0 W/m -2,9 C -2,4 C 4,8 km/h (1 Bft) 93,62 %
05.02.2018 01:04 -2,4 C 4,4 C 96 % 1021,7 hPa 0,0 l/m 3,0 km/h (1 Bft) O-NO 65 0 min 0,000 mm 0,0 UV-I 0 W/m -2,9 C -2,4 C 4,8 km/h (1 Bft) 95,74 %
05.02.2018 01:06 -2,4 C 4,4 C 96 % 1021,7 hPa 0,0 l/m 3,0 km/h (1 Bft) O-NO 65 0 min 0,000 mm 0,0 UV-I 0 W/m -2,9 C -2,4 C 4,8 km/h (1 Bft) 98,00 %
05.02.2018 01:08 -2,3 C 4,4 C 96 % 1021,7 hPa 0,0 l/m 2,7 km/h (1 Bft) O-NO 63 0 min 0,000 mm 0,0 UV-I 0 W/m -2,8 C -2,3 C 4,8 km/h (1 Bft) 95,74 %
05.02.2018 01:10 -2,3 C 4,4 C 96 % 1021,7 hPa 0,0 l/m 2,6 km/h (1 Bft) O-NO 63 0 min 0,000 mm 0,0 UV-I 0 W/m -2,8 C -2,3 C 4,8 km/h (1 Bft) 97,92 %
05.02.2018 01:12 -2,4 C 4,4 C 96 % 1021,7 hPa 0,0 l/m 2,1 km/h (1 Bft) O-NO 63 0 min 0,000 mm 0,0 UV-I 0 W/m -2,9 C -2,4 C 4,8 km/h (1 Bft) 97,87 %
05.02.2018 01:14 -2,4 C 4,4 C 96 % 1021,7 hPa 0,0 l/m 2,6 km/h (1 Bft) O-NO 63 0 min 0,000 mm 0,0 UV-I 0 W/m -2,9 C -2,4 C 3,2 km/h (1 Bft) 97,87 %
05.02.2018 01:16 -2,5 C 4,4 C 96 % 1021,8 hPa 0,0 l/m 2,2 km/h (1 Bft) O-NO 63 0 min 0,000 mm 0,0 UV-I 0 W/m -3,0 C -2,5 C 3,2 km/h (1 Bft) 97,56 %
05.02.2018 01:18 -2,5 C 4,4 C 96 % 1021,7 hPa 0,0 l/m 2,1 km/h (1 Bft) O-NO 63 0 min 0,000 mm 0,0 UV-I 0 W/m -3,0 C -2,5 C 3,2 km/h (1 Bft) 97,87 %
05.02.2018 01:20 -2,6 C 4,4 C 96 % 1021,8 hPa 0,0 l/m 2,3 km/h (1 Bft) O-NO 63 0 min 0,000 mm 0,0 UV-I 0 W/m -3,1 C -2,6 C 3,2 km/h (1 Bft) 97,87 %
05.02.2018 01:22 -2,6 C 4,4 C 96 % 1021,8 hPa 0,0 l/m 2,3 km/h (1 Bft) O 98 0 min 0,000 mm 0,0 UV-I 0 W/m -3,1 C -2,6 C 4,8 km/h (1 Bft) 100,00 %
05.02.2018 01:24 -2,6 C 4,4 C 96 % 1021,7 hPa 0,0 l/m 2,8 km/h (1 Bft) O 98 0 min 0,000 mm 0,0 UV-I 0 W/m -3,1 C -2,6 C 4,8 km/h (1 Bft) 97,56 %
05.02.2018 01:26 -2,6 C 4,4 C 96 % 1021,7 hPa 0,0 l/m 2,9 km/h (1 Bft) O 98 0 min 0,000 mm 0,0 UV-I 0 W/m -3,1 C -2,6 C 4,8 km/h (1 Bft) 98,00 %
05.02.2018 01:28 -2,6 C 4,4 C 96 % 1021,7 hPa 0,0 l/m 2,5 km/h (1 Bft) O 98 0 min 0,000 mm 0,0 UV-I 0 W/m -3,1 C -2,6 C 4,8 km/h (1 Bft) 100,00 %
05.02.2018 01:30 -2,4 C 4,4 C 96 % 1021,7 hPa 0,0 l/m 3,5 km/h (1 Bft) O 82 0 min 0,000 mm 0,0 UV-I 0 W/m -2,9 C -2,4 C 4,8 km/h (1 Bft) 98,11 %
05.02.2018 01:32 -2,4 C 4,4 C 96 % 1021,8 hPa 0,0 l/m 2,1 km/h (1 Bft) O 82 0 min 0,000 mm 0,0 UV-I 0 W/m -2,9 C -2,4 C 3,2 km/h (1 Bft) 100,00 %
05.02.2018 01:34 -2,4 C 4,4 C 96 % 1021,8 hPa 0,0 l/m 1,0 km/h (0 Bft) O 82 0 min 0,000 mm 0,0 UV-I 0 W/m -2,9 C -2,4 C 1,6 km/h (1 Bft) 94,29 %
05.02.2018 01:36 -2,4 C 4,4 C 96 % 1021,7 hPa 0,0 l/m 1,0 km/h (0 Bft) O 82 0 min 0,000 mm 0,0 UV-I 0 W/m -2,9 C -2,4 C 3,2 km/h (1 Bft) 100,00 %
05.02.2018 01:38 -2,4 C 4,4 C 96 % 1021,8 hPa 0,0 l/m 2,8 km/h (1 Bft) O 82 0 min 0,000 mm 0,0 UV-I 0 W/m -2,9 C -2,4 C 3,2 km/h (1 Bft) 98,00 %
05.02.2018 01:40 -2,6 C 4,4 C 96 % 1021,7 hPa 0,0 l/m 3,7 km/h (1 Bft) O 80 0 min 0,000 mm 0,0 UV-I 0 W/m -3,1 C -2,6 C 4,8 km/h (1 Bft) 96,00 %
05.02.2018 01:42 -2,7 C 4,4 C 96 % 1021,8 hPa 0,0 l/m 4,3 km/h (1 Bft) NO 38 0 min 0,000 mm 0,0 UV-I 0 W/m -3,2 C -2,7 C 6,4 km/h (2 Bft) 100,00 %
05.02.2018 01:44 -2,7 C 4,4 C 96 % 1021,8 hPa 0,0 l/m 4,3 km/h (1 Bft) N-NO 15 0 min 0,000 mm 0,0 UV-I 0 W/m -3,2 C -2,7 C 6,4 km/h (2 Bft) 100,00 %
05.02.2018 01:46 -2,7 C 4,4 C 96 % 1021,8 hPa 0,0 l/m 5,1 km/h (1 Bft) NO 38 0 min 0,000 mm 0,0 UV-I 0 W/m -3,2 C -2,7 C 8,0 km/h (2 Bft) 100,00 %
05.02.2018 01:48 -2,7 C 4,4 C 96 % 1021,8 hPa 0,0 l/m 5,7 km/h (1 Bft) NO 44 0 min 0,000 mm 0,0 UV-I 0 W/m -3,2 C -2,7 C 8,0 km/h (2 Bft) 100,00 %
05.02.2018 01:50 -2,7 C 4,4 C 96 % 1021,8 hPa 0,0 l/m 4,8 km/h (1 Bft) N-NO 22 0 min 0,000 mm 0,0 UV-I 0 W/m -3,2 C -2,7 C 6,4 km/h (2 Bft) 97,87 %
05.02.2018 01:52 -2,7 C 4,4 C 96 % 1021,8 hPa 0,0 l/m 4,6 km/h (1 Bft) N-NO 26 0 min 0,000 mm 0,0 UV-I 0 W/m -3,2 C -2,7 C 6,4 km/h (2 Bft) 97,37 %
05.02.2018 01:54 -2,6 C 4,4 C 96 % 1021,8 hPa 0,0 l/m 4,8 km/h (1 Bft) NO 36 0 min 0,000 mm 0,0 UV-I 0 W/m -3,1 C -2,6 C 8,0 km/h (2 Bft) 97,87 %
05.02.2018 01:56 -2,6 C 4,4 C 96 % 1021,9 hPa 0,0 l/m 4,1 km/h (1 Bft) NO 36 0 min 0,000 mm 0,0 UV-I 0 W/m -3,1 C -2,6 C 4,8 km/h (1 Bft) 97,87 %
05.02.2018 01:58 -2,6 C 4,4 C 96 % 1022,0 hPa 0,0 l/m 4,1 km/h (1 Bft) NO 46 0 min 0,000 mm 0,0 UV-I 0 W/m -3,1 C -2,6 C 6,4 km/h (2 Bft) 95,74 %
05.02.2018 02:00 -2,6 C 4,4 C 96 % 1021,9 hPa 0,0 l/m 2,6 km/h (1 Bft) NO 46 0 min 0,000 mm 0,0 UV-I 0 W/m -3,1 C -2,6 C 4,8 km/h (1 Bft) 100,00 %
05.02.2018 02:02 -2,6 C 4,4 C 96 % 1021,9 hPa 0,0 l/m 1,4 km/h (1 Bft) NO 46 0 min 0,000 mm 0,0 UV-I 0 W/m -3,1 C -2,6 C 3,2 km/h (1 Bft) 100,00 %
05.02.2018 02:04 -2,6 C 4,4 C 97 % 1021,9 hPa 0,0 l/m 2,1 km/h (1 Bft) NO 46 0 min 0,000 mm 0,0 UV-I 0 W/m -3,0 C -2,6 C 3,2 km/h (1 Bft) 100,00 %
05.02.2018 02:06 -2,6 C 4,4 C 97 % 1021,9 hPa 0,0 l/m 1,9 km/h (1 Bft) NO 46 0 min 0,000 mm 0,0 UV-I 0 W/m -3,0 C -2,6 C 3,2 km/h (1 Bft) 100,00 %
05.02.2018 02:08 -2,6 C 4,4 C 97 % 1022,0 hPa 0,0 l/m 0,1 km/h (0 Bft) NO 46 0 min 0,000 mm 0,0 UV-I 0 W/m -3,0 C -2,6 C 1,6 km/h (1 Bft) 100,00 %
05.02.2018 02:10 -2,6 C 4,4 C 96 % 1022,0 hPa 0,0 l/m 0,0 km/h (0 Bft) NO 46 0 min 0,000 mm 0,0 UV-I 0 W/m -3,1 C -2,6 C 0,0 km/h (0 Bft) 95,74 %
05.02.2018 02:12 -2,7 C 4,4 C 96 % 1021,9 hPa 0,0 l/m 2,3 km/h (1 Bft) NO 46 0 min 0,000 mm 0,0 UV-I 0 W/m -3,2 C -2,7 C 3,2 km/h (1 Bft) 97,87 %
05.02.2018 02:14 -2,7 C 4,4 C 96 % 1021,9 hPa 0,0 l/m 1,6 km/h (1 Bft) NO 46 0 min 0,000 mm 0,0 UV-I 0 W/m -3,2 C -2,7 C 3,2 km/h (1 Bft) 98,31 %
05.02.2018 02:16 -2,7 C 4,4 C 96 % 1021,9 hPa 0,0 l/m 2,6 km/h (1 Bft) NO 46 0 min 0,000 mm 0,0 UV-I 0 W/m -3,2 C -2,7 C 4,8 km/h (1 Bft) 100,00 %
05.02.2018 02:18 -2,7 C 4,4 C 96 % 1021,9 hPa 0,0 l/m 2,5 km/h (1 Bft) NO 46 0 min 0,000 mm 0,0 UV-I 0 W/m -3,2 C -2,7 C 4,8 km/h (1 Bft) 97,87 %
05.02.2018 02:20 -2,7 C 4,4 C 96 % 1021,9 hPa 0,0 l/m 4,2 km/h (1 Bft) O-NO 59 0 min 0,000 mm 0,0 UV-I 0 W/m -3,2 C -2,7 C 6,4 km/h (2 Bft) 98,00 %
05.02.2018 02:22 -2,6 C 4,4 C 96 % 1021,9 hPa 0,0 l/m 4,5 km/h (1 Bft) O-NO 58 0 min 0,000 mm 0,0 UV-I 0 W/m -3,1 C -2,6 C 6,4 km/h (2 Bft) 100,00 %
05.02.2018 02:24 -2,6 C 4,4 C 96 % 1021,9 hPa 0,0 l/m 2,0 km/h (1 Bft) O-NO 58 0 min 0,000 mm 0,0 UV-I 0 W/m -3,1 C -2,6 C 3,2 km/h (1 Bft) 100,00 %
05.02.2018 02:26 -2,7 C 4,4 C 96 % 1021,9 hPa 0,0 l/m 2,3 km/h (1 Bft) O-NO 58 0 min 0,000 mm 0,0 UV-I 0 W/m -3,2 C -2,7 C 4,8 km/h (1 Bft) 100,00 %
05.02.2018 02:28 -2,7 C 4,4 C 96 % 1021,9 hPa 0,0 l/m 1,6 km/h (1 Bft) O-NO 58 0 min 0,000 mm 0,0 UV-I 0 W/m -3,2 C -2,7 C 3,2 km/h (1 Bft) 93,62 %
05.02.2018 02:30 -2,7 C 4,4 C 96 % 1022,0 hPa 0,0 l/m 4,1 km/h (1 Bft) O-NO 76 0 min 0,000 mm 0,0 UV-I 0 W/m -3,2 C -2,7 C 6,4 km/h (2 Bft) 97,87 %
05.02.2018 02:32 -2,7 C 4,4 C 96 % 1022,0 hPa 0,0 l/m 2,5 km/h (1 Bft) O-NO 76 0 min 0,000 mm 0,0 UV-I 0 W/m -3,2 C -2,7 C 3,2 km/h (1 Bft) 97,87 %
05.02.2018 02:34 -2,8 C 4,4 C 96 % 1022,0 hPa 0,0 l/m 2,0 km/h (1 Bft) O-NO 76 0 min 0,000 mm 0,0 UV-I 0 W/m -3,3 C -2,8 C 4,8 km/h (1 Bft) 95,74 %
05.02.2018 02:36 -2,9 C 4,4 C 96 % 1022,0 hPa 0,0 l/m 3,0 km/h (1 Bft) O 99 0 min 0,000 mm 0,0 UV-I 0 W/m -3,4 C -2,9 C 6,4 km/h (2 Bft) 97,87 %
05.02.2018 02:38 -3,0 C 4,4 C 96 % 1022,0 hPa 0,0 l/m 2,0 km/h (1 Bft) O 99 0 min 0,000 mm 0,0 UV-I 0 W/m -3,5 C -3,0 C 3,2 km/h (1 Bft) 98,00 %
05.02.2018 02:40 -3,1 C 4,4 C 96 % 1022,0 hPa 0,0 l/m 1,5 km/h (1 Bft) O 99 0 min 0,000 mm 0,0 UV-I 0 W/m -3,6 C -3,1 C 3,2 km/h (1 Bft) 91,67 %
05.02.2018 02:42 -3,1 C 4,4 C 96 % 1022,0 hPa 0,0 l/m 1,8 km/h (1 Bft) O 99 0 min 0,000 mm 0,0 UV-I 0 W/m -3,6 C -3,1 C 3,2 km/h (1 Bft) 97,87 %
05.02.2018 02:44 -3,1 C 4,4 C 96 % 1022,0 hPa 0,0 l/m 2,9 km/h (1 Bft) O 98 0 min 0,000 mm 0,0 UV-I 0 W/m -3,6 C -3,1 C 4,8 km/h (1 Bft) 98,00 %
05.02.2018 02:46 -3,0 C 4,4 C 96 % 1022,0 hPa 0,0 l/m 3,1 km/h (1 Bft) O 82 0 min 0,000 mm 0,0 UV-I 0 W/m -3,5 C -3,0 C 4,8 km/h (1 Bft) 96,00 %
05.02.2018 02:48 -2,8 C 4,4 C 97 % 1022,0 hPa 0,0 l/m 4,2 km/h (1 Bft) O 80 0 min 0,000 mm 0,0 UV-I 0 W/m -3,2 C -2,8 C 4,8 km/h (1 Bft) 95,74 %
05.02.2018 02:50 -2,7 C 4,4 C 97 % 1021,9 hPa 0,0 l/m 3,9 km/h (1 Bft) O 80 0 min 0,000 mm 0,0 UV-I 0 W/m -3,1 C -2,7 C 6,4 km/h (2 Bft) 95,74 %
05.02.2018 02:52 -2,7 C 4,4 C 97 % 1021,9 hPa 0,0 l/m 3,4 km/h (1 Bft) O 80 0 min 0,000 mm 0,0 UV-I 0 W/m -3,1 C -2,7 C 4,8 km/h (1 Bft) 93,62 %
05.02.2018 02:54 -2,7 C 4,4 C 97 % 1021,9 hPa 0,0 l/m 3,5 km/h (1 Bft) O 80 0 min 0,000 mm 0,0 UV-I 0 W/m -3,1 C -2,7 C 4,8 km/h (1 Bft) 95,74 %
05.02.2018 02:56 -2,7 C 4,4 C 97 % 1021,9 hPa 0,0 l/m 3,7 km/h (1 Bft) O-NO 61 0 min 0,000 mm 0,0 UV-I 0 W/m -3,1 C -2,7 C 4,8 km/h (1 Bft) 98,00 %
05.02.2018 02:58 -2,7 C 4,4 C 97 % 1021,9 hPa 0,0 l/m 3,0 km/h (1 Bft) O-NO 61 0 min 0,000 mm 0,0 UV-I 0 W/m -3,1 C -2,7 C 4,8 km/h (1 Bft) 95,74 %
05.02.2018 03:00 -2,7 C 4,4 C 97 % 1021,9 hPa 0,0 l/m 1,3 km/h (1 Bft) O-NO 61 0 min 0,000 mm 0,0 UV-I 0 W/m -3,1 C -2,7 C 3,2 km/h (1 Bft) 93,62 %
05.02.2018 03:02 -2,8 C 4,4 C 96 % 1021,9 hPa 0,0 l/m 2,2 km/h (1 Bft) O-NO 61 0 min 0,000 mm 0,0 UV-I 0 W/m -3,3 C -2,8 C 3,2 km/h (1 Bft) 95,74 %
05.02.2018 03:04 -2,8 C 4,4 C 96 % 1021,9 hPa 0,0 l/m 1,8 km/h (1 Bft) O-NO 61 0 min 0,000 mm 0,0 UV-I 0 W/m -3,3 C -2,8 C 3,2 km/h (1 Bft) 94,44 %
05.02.2018 03:06 -2,9 C 4,4 C 96 % 1021,9 hPa 0,0 l/m 2,5 km/h (1 Bft) O-NO 61 0 min 0,000 mm 0,0 UV-I 0 W/m -3,4 C -2,9 C 3,2 km/h (1 Bft) 93,62 %
05.02.2018 03:08 -2,9 C 4,4 C 96 % 1021,8 hPa 0,0 l/m 2,6 km/h (1 Bft) O-NO 61 0 min 0,000 mm 0,0 UV-I 0 W/m -3,4 C -2,9 C 4,8 km/h (1 Bft) 91,49 %
05.02.2018 03:10 -2,9 C 4,4 C 96 % 1021,9 hPa 0,0 l/m 3,2 km/h (1 Bft) O-NO 60 0 min 0,000 mm 0,0 UV-I 0 W/m -3,4 C -2,9 C 4,8 km/h (1 Bft) 93,62 %
05.02.2018 03:12 -2,9 C 4,4 C 96 % 1021,8 hPa 0,0 l/m 3,9 km/h (1 Bft) NO 38 0 min 0,000 mm 0,0 UV-I 0 W/m -3,4 C -2,9 C 6,4 km/h (2 Bft) 93,62 %
05.02.2018 03:14 -2,9 C 4,4 C 96 % 1021,8 hPa 0,0 l/m 4,8 km/h (1 Bft) NO 38 0 min 0,000 mm 0,0 UV-I 0 W/m -3,4 C -2,9 C 6,4 km/h (2 Bft) 93,22 %
05.02.2018 03:16 -2,9 C 4,4 C 96 % 1021,8 hPa 0,0 l/m 6,2 km/h (2 Bft) NO 45 0 min 0,000 mm 0,0 UV-I 0 W/m -3,4 C -2,9 C 8,0 km/h (2 Bft) 91,43 %
05.02.2018 03:18 -2,9 C 4,4 C 96 % 1021,8 hPa 0,0 l/m 6,9 km/h (2 Bft) NO 40 0 min 0,000 mm 0,0 UV-I 0 W/m -3,4 C -3,5 C 9,7 km/h (2 Bft) 95,74 %
05.02.2018 03:20 -2,9 C 4,4 C 96 % 1021,8 hPa 0,0 l/m 5,7 km/h (1 Bft) NO 44 0 min 0,000 mm 0,0 UV-I 0 W/m -3,4 C -2,9 C 8,0 km/h (2 Bft) 100,00 %
05.02.2018 03:22 -2,9 C 4,4 C 96 % 1021,8 hPa 0,0 l/m 5,5 km/h (1 Bft) NO 39 0 min 0,000 mm 0,0 UV-I 0 W/m -3,4 C -2,9 C 8,0 km/h (2 Bft) 97,87 %
05.02.2018 03:24 -2,8 C 4,4 C 97 % 1021,8 hPa 0,0 l/m 4,5 km/h (1 Bft) N-NO 21 0 min 0,000 mm 0,0 UV-I 0 W/m -3,2 C -2,8 C 8,0 km/h (2 Bft) 96,61 %
05.02.2018 03:26 -2,9 C 4,4 C 96 % 1021,8 hPa 0,0 l/m 5,1 km/h (1 Bft) N-NO 22 0 min 0,000 mm 0,0 UV-I 0 W/m -3,4 C -2,9 C 8,0 km/h (2 Bft) 100,00 %
05.02.2018 03:28 -2,8 C 4,4 C 96 % 1021,8 hPa 0,0 l/m 6,3 km/h (2 Bft) NO 41 0 min 0,000 mm 0,0 UV-I 0 W/m -3,3 C -2,8 C 9,7 km/h (2 Bft) 95,74 %
05.02.2018 03:30 -2,9 C 4,4 C 96 % 1021,9 hPa 0,0 l/m 6,0 km/h (2 Bft) NO 45 0 min 0,000 mm 0,0 UV-I 0 W/m -3,4 C -2,9 C 8,0 km/h (2 Bft) 95,74 %
05.02.2018 03:32 -2,9 C 4,4 C 96 % 1021,9 hPa 0,0 l/m 4,9 km/h (1 Bft) NO 42 0 min 0,000 mm 0,0 UV-I 0 W/m -3,4 C -2,9 C 6,4 km/h (2 Bft) 97,87 %
05.02.2018 03:34 -2,9 C 4,4 C 96 % 1021,9 hPa 0,0 l/m 4,8 km/h (1 Bft) N-NO 31 0 min 0,000 mm 0,0 UV-I 0 W/m -3,4 C -2,9 C 6,4 km/h (2 Bft) 95,74 %
05.02.2018 03:36 -2,9 C 4,4 C 96 % 1021,9 hPa 0,0 l/m 4,4 km/h (1 Bft) NO 51 0 min 0,000 mm 0,0 UV-I 0 W/m -3,4 C -2,9 C 6,4 km/h (2 Bft) 95,74 %
05.02.2018 03:38 -2,8 C 4,4 C 96 % 1021,9 hPa 0,0 l/m 4,1 km/h (1 Bft) O-NO 78 0 min 0,000 mm 0,0 UV-I 0 W/m -3,3 C -2,8 C 8,0 km/h (2 Bft) 95,83 %
05.02.2018 03:40 -2,8 C 4,4 C 97 % 1021,9 hPa 0,0 l/m 4,5 km/h (1 Bft) NO 40 0 min 0,000 mm 0,0 UV-I 0 W/m -3,2 C -2,8 C 6,4 km/h (2 Bft) 97,87 %
05.02.2018 03:42 -2,8 C 4,4 C 96 % 1022,0 hPa 0,0 l/m 5,0 km/h (1 Bft) O-NO 72 0 min 0,000 mm 0,0 UV-I 0 W/m -3,3 C -2,8 C 8,0 km/h (2 Bft) 97,87 %
05.02.2018 03:44 -2,8 C 4,4 C 96 % 1022,0 hPa 0,0 l/m 4,8 km/h (1 Bft) O-NO 57 0 min 0,000 mm 0,0 UV-I 0 W/m -3,3 C -2,8 C 6,4 km/h (2 Bft) 97,87 %
05.02.2018 03:46 -2,8 C 4,4 C 96 % 1022,1 hPa 0,0 l/m 4,5 km/h (1 Bft) O-NO 57 0 min 0,000 mm 0,0 UV-I 0 W/m -3,3 C -2,8 C 8,0 km/h (2 Bft) 97,87 %
05.02.2018 03:48 -2,8 C 4,4 C 96 % 1022,1 hPa 0,0 l/m 2,9 km/h (1 Bft) O-NO 57 0 min 0,000 mm 0,0 UV-I 0 W/m -3,3 C -2,8 C 4,8 km/h (1 Bft) 98,00 %
05.02.2018 03:50 -2,8 C 4,4 C 96 % 1022,1 hPa 0,0 l/m 3,9 km/h (1 Bft) NO 47 0 min 0,000 mm 0,0 UV-I 0 W/m -3,3 C -2,8 C 6,4 km/h (2 Bft) 100,00 %
05.02.2018 03:52 -2,9 C 4,4 C 96 % 1022,1 hPa 0,0 l/m 0,8 km/h (0 Bft) NO 47 0 min 0,000 mm 0,0 UV-I 0 W/m -3,4 C -2,9 C 4,8 km/h (1 Bft) 97,87 %
05.02.2018 03:54 -2,9 C 4,4 C 96 % 1022,1 hPa 0,0 l/m 2,0 km/h (1 Bft) NO 47 0 min 0,000 mm 0,0 UV-I 0 W/m -3,4 C -2,9 C 4,8 km/h (1 Bft) 97,87 %
05.02.2018 03:56 -3,0 C 4,4 C 96 % 1022,2 hPa 0,0 l/m 2,6 km/h (1 Bft) NO 47 0 min 0,000 mm 0,0 UV-I 0 W/m -3,5 C -3,0 C 4,8 km/h (1 Bft) 98,00 %
05.02.2018 03:58 -3,1 C 4,4 C 96 % 1022,2 hPa 0,0 l/m 3,1 km/h (1 Bft) NO 47 0 min 0,000 mm 0,0 UV-I 0 W/m -3,6 C -3,1 C 4,8 km/h (1 Bft) 100,00 %
05.02.2018 04:00 -3,1 C 4,4 C 96 % 1022,2 hPa 0,0 l/m 1,9 km/h (1 Bft) NO 47 0 min 0,000 mm 0,0 UV-I 0 W/m -3,6 C -3,1 C 3,2 km/h (1 Bft) 100,00 %
05.02.2018 04:02 -3,1 C 4,4 C 96 % 1022,2 hPa 0,0 l/m 2,6 km/h (1 Bft) NO 48 0 min 0,000 mm 0,0 UV-I 0 W/m -3,6 C -3,1 C 6,4 km/h (2 Bft) 100,00 %
05.02.2018 04:04 -3,1 C 4,4 C 96 % 1022,2 hPa 0,0 l/m 3,4 km/h (1 Bft) O-NO 63 0 min 0,000 mm 0,0 UV-I 0 W/m -3,6 C -3,1 C 6,4 km/h (2 Bft) 97,87 %
05.02.2018 04:06 -3,0 C 4,4 C 96 % 1022,2 hPa 0,0 l/m 3,9 km/h (1 Bft) O-NO 63 0 min 0,000 mm 0,0 UV-I 0 W/m -3,5 C -3,0 C 4,8 km/h (1 Bft) 97,87 %
05.02.2018 04:08 -2,9 C 4,4 C 96 % 1022,2 hPa 0,0 l/m 4,8 km/h (1 Bft) O-NO 70 0 min 0,000 mm 0,0 UV-I 0 W/m -3,4 C -2,9 C 6,4 km/h (2 Bft) 97,87 %
05.02.2018 04:10 -2,9 C 4,4 C 96 % 1022,3 hPa 0,0 l/m 3,7 km/h (1 Bft) O-NO 70 0 min 0,000 mm 0,0 UV-I 0 W/m -3,4 C -2,9 C 6,4 km/h (2 Bft) 97,87 %
05.02.2018 04:12 -3,0 C 4,4 C 96 % 1022,3 hPa 0,0 l/m 3,3 km/h (1 Bft) O-NO 70 0 min 0,000 mm 0,0 UV-I 0 W/m -3,5 C -3,0 C 4,8 km/h (1 Bft) 97,87 %
05.02.2018 04:14 -2,9 C 4,4 C 96 % 1022,4 hPa 0,0 l/m 2,6 km/h (1 Bft) O-NO 70 0 min 0,000 mm 0,0 UV-I 0 W/m -3,4 C -2,9 C 4,8 km/h (1 Bft) 100,00 %
05.02.2018 04:16 -2,9 C 4,4 C 96 % 1022,3 hPa 0,0 l/m 2,8 km/h (1 Bft) O-NO 70 0 min 0,000 mm 0,0 UV-I 0 W/m -3,4 C -2,9 C 4,8 km/h (1 Bft) 93,62 %
05.02.2018 04:18 -3,0 C 4,4 C 96 % 1022,4 hPa 0,0 l/m 3,2 km/h (1 Bft) O-NO 70 0 min 0,000 mm 0,0 UV-I 0 W/m -3,5 C -3,0 C 4,8 km/h (1 Bft) 97,87 %
05.02.2018 04:20 -3,0 C 4,4 C 96 % 1022,4 hPa 0,0 l/m 3,4 km/h (1 Bft) O-NO 70 0 min 0,000 mm 0,0 UV-I 0 W/m -3,5 C -3,0 C 4,8 km/h (1 Bft) 98,00 %
05.02.2018 04:22 -3,1 C 4,4 C 96 % 1022,4 hPa 0,0 l/m 4,1 km/h (1 Bft) O-NO 69 0 min 0,000 mm 0,0 UV-I 0 W/m -3,6 C -3,1 C 6,4 km/h (2 Bft) 100,00 %
05.02.2018 04:24 -3,1 C 4,4 C 96 % 1022,4 hPa 0,0 l/m 3,2 km/h (1 Bft) O-NO 69 0 min 0,000 mm 0,0 UV-I 0 W/m -3,6 C -3,1 C 4,8 km/h (1 Bft) 100,00 %
05.02.2018 04:26 -3,1 C 4,4 C 96 % 1022,5 hPa 0,0 l/m 4,0 km/h (1 Bft) O-NO 69 0 min 0,000 mm 0,0 UV-I 0 W/m -3,6 C -3,1 C 6,4 km/h (2 Bft) 100,00 %
05.02.2018 04:28 -3,0 C 4,4 C 96 % 1022,6 hPa 0,0 l/m 3,5 km/h (1 Bft) O-NO 67 0 min 0,000 mm 0,0 UV-I 0 W/m -3,5 C -3,0 C 4,8 km/h (1 Bft) 95,74 %
05.02.2018 04:30 -3,1 C 4,4 C 96 % 1022,5 hPa 0,0 l/m 3,5 km/h (1 Bft) NO 35 0 min 0,000 mm 0,0 UV-I 0 W/m -3,6 C -3,1 C 6,4 km/h (2 Bft) 100,00 %
05.02.2018 04:32 -3,1 C 4,4 C 96 % 1022,6 hPa 0,0 l/m 3,4 km/h (1 Bft) NO 35 0 min 0,000 mm 0,0 UV-I 0 W/m -3,6 C -3,1 C 4,8 km/h (1 Bft) 100,00 %
05.02.2018 04:34 -3,1 C 4,4 C 96 % 1022,6 hPa 0,0 l/m 3,5 km/h (1 Bft) NO 43 0 min 0,000 mm 0,0 UV-I 0 W/m -3,6 C -3,1 C 4,8 km/h (1 Bft) 97,92 %
05.02.2018 04:36 -3,0 C 4,4 C 96 % 1022,7 hPa 0,0 l/m 5,0 km/h (1 Bft) N-NO 33 0 min 0,000 mm 0,0 UV-I 0 W/m -3,5 C -3,0 C 6,4 km/h (2 Bft) 100,00 %
05.02.2018 04:38 -3,0 C 4,4 C 96 % 1022,6 hPa 0,0 l/m 3,9 km/h (1 Bft) O-NO 61 0 min 0,000 mm 0,0 UV-I 0 W/m -3,5 C -3,0 C 6,4 km/h (2 Bft) 100,00 %
05.02.2018 04:40 -2,9 C 4,4 C 96 % 1022,6 hPa 0,0 l/m 3,9 km/h (1 Bft) NO 55 0 min 0,000 mm 0,0 UV-I 0 W/m -3,4 C -2,9 C 4,8 km/h (1 Bft) 100,00 %
05.02.2018 04:42 -2,9 C 4,4 C 96 % 1022,7 hPa 0,0 l/m 4,3 km/h (1 Bft) NO 35 0 min 0,000 mm 0,0 UV-I 0 W/m -3,4 C -2,9 C 6,4 km/h (2 Bft) 100,00 %
05.02.2018 04:44 -3,0 C 4,4 C 96 % 1022,8 hPa 0,0 l/m 5,2 km/h (1 Bft) N-NO 30 0 min 0,000 mm 0,0 UV-I 0 W/m -3,5 C -3,0 C 8,0 km/h (2 Bft) 100,00 %
05.02.2018 04:46 -2,9 C 4,4 C 96 % 1022,8 hPa 0,0 l/m 0,8 km/h (0 Bft) N-NO 30 0 min 0,000 mm 0,0 UV-I 0 W/m -3,4 C -2,9 C 3,2 km/h (1 Bft) 100,00 %
05.02.2018 04:48 -3,0 C 4,4 C 96 % 1022,8 hPa 0,0 l/m 1,4 km/h (1 Bft) N-NO 30 0 min 0,000 mm 0,0 UV-I 0 W/m -3,5 C -3,0 C 4,8 km/h (1 Bft) 97,87 %
05.02.2018 04:50 -3,1 C 4,4 C 96 % 1022,8 hPa 0,0 l/m 3,4 km/h (1 Bft) N-NO 30 0 min 0,000 mm 0,0 UV-I 0 W/m -3,6 C -3,1 C 6,4 km/h (2 Bft) 97,87 %
05.02.2018 04:52 -3,2 C 4,4 C 96 % 1022,8 hPa 0,0 l/m 4,6 km/h (1 Bft) NO 45 0 min 0,000 mm 0,0 UV-I 0 W/m -3,7 C -3,2 C 6,4 km/h (2 Bft) 100,00 %
05.02.2018 04:54 -3,2 C 4,4 C 95 % 1022,8 hPa 0,0 l/m 3,8 km/h (1 Bft) NO 40 0 min 0,000 mm 0,0 UV-I 0 W/m -3,9 C -3,2 C 6,4 km/h (2 Bft) 100,00 %
05.02.2018 04:56 -3,2 C 4,4 C 95 % 1022,8 hPa 0,0 l/m 3,9 km/h (1 Bft) NO 39 0 min 0,000 mm 0,0 UV-I 0 W/m -3,9 C -3,2 C 6,4 km/h (2 Bft) 95,74 %
05.02.2018 04:58 -3,2 C 4,4 C 95 % 1022,7 hPa 0,0 l/m 5,1 km/h (1 Bft) NO 34 0 min 0,000 mm 0,0 UV-I 0 W/m -3,9 C -3,2 C 6,4 km/h (2 Bft) 100,00 %
05.02.2018 05:00 -3,3 C 4,4 C 95 % 1022,7 hPa 0,0 l/m 6,1 km/h (2 Bft) NO 40 0 min 0,000 mm 0,0 UV-I 0 W/m -4,0 C -3,3 C 8,0 km/h (2 Bft) 97,87 %
05.02.2018 05:02 -3,2 C 4,4 C 96 % 1022,7 hPa 0,0 l/m 5,1 km/h (1 Bft) N-NO 28 0 min 0,000 mm 0,0 UV-I 0 W/m -3,7 C -3,2 C 6,4 km/h (2 Bft) 98,00 %
05.02.2018 05:04 -3,1 C 4,4 C 96 % 1022,8 hPa 0,0 l/m 5,2 km/h (1 Bft) NO 34 0 min 0,000 mm 0,0 UV-I 0 W/m -3,6 C -3,1 C 8,0 km/h (2 Bft) 100,00 %
05.02.2018 05:06 -3,1 C 4,4 C 96 % 1022,8 hPa 0,0 l/m 4,0 km/h (1 Bft) NO 34 0 min 0,000 mm 0,0 UV-I 0 W/m -3,6 C -3,1 C 8,0 km/h (2 Bft) 100,00 %
05.02.2018 05:08 -3,1 C 4,4 C 96 % 1022,8 hPa 0,0 l/m 3,5 km/h (1 Bft) NO 34 0 min 0,000 mm 0,0 UV-I 0 W/m -3,6 C -3,1 C 6,4 km/h (2 Bft) 100,00 %
05.02.2018 05:10 -3,1 C 4,4 C 96 % 1022,8 hPa 0,0 l/m 4,3 km/h (1 Bft) N-NO 31 0 min 0,000 mm 0,0 UV-I 0 W/m -3,6 C -3,1 C 6,4 km/h (2 Bft) 97,87 %
05.02.2018 05:12 -3,1 C 4,4 C 95 % 1022,8 hPa 0,0 l/m 3,6 km/h (1 Bft) N-NO 31 0 min 0,000 mm 0,0 UV-I 0 W/m -3,8 C -3,1 C 6,4 km/h (2 Bft) 100,00 %
05.02.2018 05:14 -3,2 C 4,4 C 95 % 1022,9 hPa 0,0 l/m 5,7 km/h (1 Bft) NO 35 0 min 0,000 mm 0,0 UV-I 0 W/m -3,9 C -3,2 C 8,0 km/h (2 Bft) 95,74 %
05.02.2018 05:16 -3,2 C 4,4 C 95 % 1022,9 hPa 0,0 l/m 5,8 km/h (2 Bft) NO 37 0 min 0,000 mm 0,0 UV-I 0 W/m -3,9 C -3,2 C 8,0 km/h (2 Bft) 97,14 %
05.02.2018 05:18 -3,2 C 4,4 C 95 % 1023,0 hPa 0,0 l/m 6,2 km/h (2 Bft) NO 43 0 min 0,000 mm 0,0 UV-I 0 W/m -3,9 C -3,2 C 8,0 km/h (2 Bft) 95,83 %
05.02.2018 05:20 -3,1 C 4,4 C 95 % 1023,0 hPa 0,0 l/m 5,6 km/h (1 Bft) NO 47 0 min 0,000 mm 0,0 UV-I 0 W/m -3,8 C -3,1 C 6,4 km/h (2 Bft) 93,62 %
05.02.2018 05:22 -3,1 C 4,4 C 95 % 1022,9 hPa 0,0 l/m 4,4 km/h (1 Bft) N-NO 19 0 min 0,000 mm 0,0 UV-I 0 W/m -3,8 C -3,1 C 6,4 km/h (2 Bft) 93,62 %
05.02.2018 05:24 -3,1 C 4,4 C 95 % 1022,9 hPa 0,0 l/m 5,5 km/h (1 Bft) NO 46 0 min 0,000 mm 0,0 UV-I 0 W/m -3,8 C -3,1 C 8,0 km/h (2 Bft) 95,74 %
05.02.2018 05:26 -3,1 C 4,4 C 95 % 1023,0 hPa 0,0 l/m 5,5 km/h (1 Bft) NO 42 0 min 0,000 mm 0,0 UV-I 0 W/m -3,8 C -3,1 C 8,0 km/h (2 Bft) 96,00 %
05.02.2018 05:28 -3,1 C 4,4 C 95 % 1022,9 hPa 0,0 l/m 4,3 km/h (1 Bft) NO 36 0 min 0,000 mm 0,0 UV-I 0 W/m -3,8 C -3,1 C 8,0 km/h (2 Bft) 93,75 %
05.02.2018 05:30 -3,1 C 4,4 C 95 % 1022,9 hPa 0,0 l/m 3,7 km/h (1 Bft) NO 36 0 min 0,000 mm 0,0 UV-I 0 W/m -3,8 C -3,1 C 6,4 km/h (2 Bft) 89,36 %
05.02.2018 05:32 -3,1 C 4,4 C 95 % 1022,9 hPa 0,0 l/m 6,3 km/h (2 Bft) NO 42 0 min 0,000 mm 0,0 UV-I 0 W/m -3,8 C -3,1 C 9,7 km/h (2 Bft) 89,36 %
05.02.2018 05:34 -3,1 C 4,4 C 95 % 1022,9 hPa 0,0 l/m 4,9 km/h (1 Bft) NO 37 0 min 0,000 mm 0,0 UV-I 0 W/m -3,8 C -3,1 C 6,4 km/h (2 Bft) 94,87 %
05.02.2018 05:36 -3,1 C 4,4 C 95 % 1022,9 hPa 0,0 l/m 4,8 km/h (1 Bft) N-NO 28 0 min 0,000 mm 0,0 UV-I 0 W/m -3,8 C -3,1 C 6,4 km/h (2 Bft) 94,00 %
05.02.2018 05:38 -3,0 C 4,4 C 95 % 1022,9 hPa 0,0 l/m 6,0 km/h (2 Bft) NO 38 0 min 0,000 mm 0,0 UV-I 0 W/m -3,7 C -3,0 C 8,0 km/h (2 Bft) 95,83 %
05.02.2018 05:40 -2,9 C 4,4 C 94 % 1022,9 hPa 0,0 l/m 4,4 km/h (1 Bft) NO 35 0 min 0,000 mm 0,0 UV-I 0 W/m -3,7 C -2,9 C 6,4 km/h (2 Bft) 91,49 %
05.02.2018 05:42 -2,9 C 4,4 C 94 % 1023,0 hPa 0,0 l/m 3,5 km/h (1 Bft) NO 42 0 min 0,000 mm 0,0 UV-I 0 W/m -3,7 C -2,9 C 4,8 km/h (1 Bft) 95,74 %
05.02.2018 05:44 -3,1 C 4,4 C 94 % 1023,0 hPa 0,0 l/m 4,1 km/h (1 Bft) NO 44 0 min 0,000 mm 0,0 UV-I 0 W/m -3,9 C -3,1 C 4,8 km/h (1 Bft) 93,62 %
05.02.2018 05:46 -3,2 C 4,4 C 94 % 1023,0 hPa 0,0 l/m 3,2 km/h (1 Bft) NO 44 0 min 0,000 mm 0,0 UV-I 0 W/m -4,0 C -3,2 C 4,8 km/h (1 Bft) 93,62 %
05.02.2018 05:48 -3,2 C 4,4 C 94 % 1023,0 hPa 0,0 l/m 4,5 km/h (1 Bft) NO 35 0 min 0,000 mm 0,0 UV-I 0 W/m -4,0 C -3,2 C 6,4 km/h (2 Bft) 93,62 %
05.02.2018 05:50 -3,2 C 4,4 C 94 % 1023,0 hPa 0,0 l/m 5,3 km/h (1 Bft) NO 40 0 min 0,000 mm 0,0 UV-I 0 W/m -4,0 C -3,2 C 6,4 km/h (2 Bft) 95,74 %
05.02.2018 05:52 -3,1 C 4,4 C 94 % 1023,0 hPa 0,0 l/m 4,0 km/h (1 Bft) NO 34 0 min 0,000 mm 0,0 UV-I 0 W/m -3,9 C -3,1 C 6,4 km/h (2 Bft) 95,74 %
05.02.2018 05:54 -3,1 C 4,4 C 94 % 1023,0 hPa 0,0 l/m 5,2 km/h (1 Bft) N-NO 29 0 min 0,000 mm 0,0 UV-I 0 W/m -3,9 C -3,1 C 8,0 km/h (2 Bft) 96,00 %
05.02.2018 05:56 -3,1 C 4,4 C 94 % 1023,0 hPa 0,0 l/m 5,3 km/h (1 Bft) N-NO 24 0 min 0,000 mm 0,0 UV-I 0 W/m -3,9 C -3,1 C 6,4 km/h (2 Bft) 95,74 %
05.02.2018 05:58 -3,0 C 4,4 C 94 % 1023,0 hPa 0,0 l/m 4,3 km/h (1 Bft) N-NO 32 0 min 0,000 mm 0,0 UV-I 0 W/m -3,8 C -3,0 C 6,4 km/h (2 Bft) 95,74 %
05.02.2018 06:00 -3,1 C 4,4 C 94 % 1023,0 hPa 0,0 l/m 4,8 km/h (1 Bft) NO 42 0 min 0,000 mm 0,0 UV-I 0 W/m -3,9 C -3,1 C 8,0 km/h (2 Bft) 95,74 %
05.02.2018 06:02 -3,1 C 4,4 C 94 % 1023,0 hPa 0,0 l/m 6,4 km/h (2 Bft) NO 43 0 min 0,000 mm 0,0 UV-I 0 W/m -3,9 C -3,1 C 8,0 km/h (2 Bft) 97,87 %
05.02.2018 06:04 -3,1 C 4,4 C 94 % 1023,0 hPa 0,0 l/m 5,2 km/h (1 Bft) N-NO 31 0 min 0,000 mm 0,0 UV-I 0 W/m -3,9 C -3,1 C 6,4 km/h (2 Bft) 100,00 %
05.02.2018 06:06 -3,1 C 4,4 C 94 % 1023,0 hPa 0,0 l/m 5,4 km/h (1 Bft) NO 37 0 min 0,000 mm 0,0 UV-I 0 W/m -3,9 C -3,1 C 8,0 km/h (2 Bft) 100,00 %
05.02.2018 06:08 -3,0 C 4,4 C 94 % 1023,0 hPa 0,0 l/m 5,5 km/h (1 Bft) NO 38 0 min 0,000 mm 0,0 UV-I 0 W/m -3,8 C -3,0 C 9,7 km/h (2 Bft) 100,00 %
05.02.2018 06:10 -3,0 C 4,4 C 94 % 1023,0 hPa 0,0 l/m 5,4 km/h (1 Bft) NO 37 0 min 0,000 mm 0,0 UV-I 0 W/m -3,8 C -3,0 C 8,0 km/h (2 Bft) 97,87 %
05.02.2018 06:12 -3,0 C 4,4 C 94 % 1023,0 hPa 0,0 l/m 7,0 km/h (2 Bft) NO 45 0 min 0,000 mm 0,0 UV-I 0 W/m -3,8 C -3,7 C 9,7 km/h (2 Bft) 97,87 %
05.02.2018 06:14 -3,0 C 4,4 C 94 % 1022,9 hPa 0,0 l/m 6,0 km/h (2 Bft) NO 34 0 min 0,000 mm 0,0 UV-I 0 W/m -3,8 C -3,0 C 8,0 km/h (2 Bft) 100,00 %
05.02.2018 06:16 -2,9 C 4,4 C 94 % 1022,9 hPa 0,0 l/m 6,3 km/h (2 Bft) NO 36 0 min 0,000 mm 0,0 UV-I 0 W/m -3,7 C -2,9 C 9,7 km/h (2 Bft) 100,00 %
05.02.2018 06:18 -3,0 C 4,4 C 94 % 1023,0 hPa 0,0 l/m 6,3 km/h (2 Bft) NO 34 0 min 0,000 mm 0,0 UV-I 0 W/m -3,8 C -3,0 C 8,0 km/h (2 Bft) 100,00 %
05.02.2018 06:20 -3,0 C 4,4 C 94 % 1023,0 hPa 0,0 l/m 6,0 km/h (2 Bft) N-NO 29 0 min 0,000 mm 0,0 UV-I 0 W/m -3,8 C -3,0 C 8,0 km/h (2 Bft) 97,87 %
05.02.2018 06:22 -3,0 C 4,4 C 94 % 1023,0 hPa 0,0 l/m 4,2 km/h (1 Bft) N 9 0 min 0,000 mm 0,0 UV-I 0 W/m -3,8 C -3,0 C 6,4 km/h (2 Bft) 100,00 %
05.02.2018 06:24 -3,0 C 4,4 C 94 % 1023,0 hPa 0,0 l/m 5,6 km/h (1 Bft) NO 40 0 min 0,000 mm 0,0 UV-I 0 W/m -3,8 C -3,0 C 9,7 km/h (2 Bft) 100,00 %
05.02.2018 06:26 -3,0 C 4,4 C 94 % 1023,0 hPa 0,0 l/m 5,1 km/h (1 Bft) N-NO 30 0 min 0,000 mm 0,0 UV-I 0 W/m -3,8 C -3,0 C 6,4 km/h (2 Bft) 96,00 %
05.02.2018 06:28 -3,0 C 4,4 C 94 % 1023,0 hPa 0,0 l/m 7,0 km/h (2 Bft) NO 55 0 min 0,000 mm 0,0 UV-I 0 W/m -3,8 C -3,7 C 9,7 km/h (2 Bft) 100,00 %
05.02.2018 06:30 -3,0 C 4,4 C 94 % 1023,0 hPa 0,0 l/m 7,4 km/h (2 Bft) NO 43 0 min 0,000 mm 0,0 UV-I 0 W/m -3,8 C -4,1 C 11,3 km/h (2 Bft) 97,87 %
05.02.2018 06:32 -3,0 C 4,4 C 93 % 1023,0 hPa 0,0 l/m 7,8 km/h (2 Bft) NO 41 0 min 0,000 mm 0,0 UV-I 0 W/m -4,0 C -4,6 C 14,5 km/h (3 Bft) 100,00 %
05.02.2018 06:34 -2,9 C 4,4 C 94 % 1023,0 hPa 0,0 l/m 6,6 km/h (2 Bft) N-NO 32 0 min 0,000 mm 0,0 UV-I 0 W/m -3,7 C -3,1 C 8,0 km/h (2 Bft) 97,87 %
05.02.2018 06:36 -2,9 C 4,4 C 94 % 1023,1 hPa 0,0 l/m 4,1 km/h (1 Bft) NO 38 0 min 0,000 mm 0,0 UV-I 0 W/m -3,7 C -2,9 C 6,4 km/h (2 Bft) 97,87 %
05.02.2018 06:38 -2,8 C 4,4 C 94 % 1023,1 hPa 0,0 l/m 3,7 km/h (1 Bft) NO 40 0 min 0,000 mm 0,0 UV-I 0 W/m -3,6 C -2,8 C 6,4 km/h (2 Bft) 100,00 %
05.02.2018 06:40 -2,8 C 4,4 C 93 % 1023,1 hPa 0,0 l/m 4,0 km/h (1 Bft) NO 55 0 min 0,000 mm 0,0 UV-I 0 W/m -3,8 C -2,8 C 6,4 km/h (2 Bft) 100,00 %
05.02.2018 06:42 -2,8 C 4,4 C 93 % 1023,2 hPa 0,0 l/m 4,5 km/h (1 Bft) NO 51 0 min 0,000 mm 0,0 UV-I 0 W/m -3,8 C -2,8 C 6,4 km/h (2 Bft) 100,00 %
05.02.2018 06:44 -2,8 C 4,4 C 93 % 1023,2 hPa 0,0 l/m 4,0 km/h (1 Bft) NO 41 0 min 0,000 mm 0,0 UV-I 0 W/m -3,8 C -2,8 C 6,4 km/h (2 Bft) 100,00 %
05.02.2018 06:46 -2,8 C 4,4 C 93 % 1023,2 hPa 0,0 l/m 2,8 km/h (1 Bft) NO 41 0 min 0,000 mm 0,0 UV-I 0 W/m -3,8 C -2,8 C 4,8 km/h (1 Bft) 97,37 %
05.02.2018 06:48 -2,7 C 4,4 C 93 % 1023,2 hPa 0,0 l/m 3,0 km/h (1 Bft) NO 42 0 min 0,000 mm 0,0 UV-I 0 W/m -3,7 C -2,7 C 4,8 km/h (1 Bft) 100,00 %
05.02.2018 06:50 -2,8 C 4,4 C 93 % 1023,2 hPa 0,0 l/m 2,7 km/h (1 Bft) NO 52 0 min 0,000 mm 0,0 UV-I 0 W/m -3,8 C -2,8 C 4,8 km/h (1 Bft) 100,00 %
05.02.2018 06:52 -2,8 C 4,4 C 93 % 1023,3 hPa 0,0 l/m 3,7 km/h (1 Bft) NO 48 0 min 0,000 mm 0,0 UV-I 0 W/m -3,8 C -2,8 C 4,8 km/h (1 Bft) 100,00 %
05.02.2018 06:54 -2,8 C 4,4 C 93 % 1023,3 hPa 0,0 l/m 2,4 km/h (1 Bft) NO 48 0 min 0,000 mm 0,0 UV-I 0 W/m -3,8 C -2,8 C 4,8 km/h (1 Bft) 100,00 %
05.02.2018 06:56 -2,8 C 4,4 C 93 % 1023,3 hPa 0,0 l/m 3,9 km/h (1 Bft) NO 52 0 min 0,000 mm 0,0 UV-I 0 W/m -3,8 C -2,8 C 6,4 km/h (2 Bft) 95,74 %
05.02.2018 06:58 -2,9 C 4,4 C 93 % 1023,3 hPa 0,0 l/m 3,2 km/h (1 Bft) O-NO 73 0 min 0,000 mm 0,0 UV-I 0 W/m -3,9 C -2,9 C 6,4 km/h (2 Bft) 100,00 %
05.02.2018 07:00 -2,9 C 4,4 C 93 % 1023,3 hPa 0,0 l/m 4,5 km/h (1 Bft) NO 55 0 min 0,000 mm 0,0 UV-I 0 W/m -3,9 C -2,9 C 8,0 km/h (2 Bft) 100,00 %
05.02.2018 07:02 -2,9 C 4,4 C 93 % 1023,4 hPa 0,0 l/m 4,6 km/h (1 Bft) NO 46 0 min 0,000 mm 0,0 UV-I 0 W/m -3,9 C -2,9 C 6,4 km/h (2 Bft) 97,87 %
05.02.2018 07:04 -2,9 C 4,4 C 93 % 1023,3 hPa 0,0 l/m 5,4 km/h (1 Bft) O-NO 64 0 min 0,000 mm 0,0 UV-I 0 W/m -3,9 C -2,9 C 8,0 km/h (2 Bft) 95,74 %
05.02.2018 07:06 -2,9 C 4,4 C 93 % 1023,4 hPa 0,0 l/m 4,6 km/h (1 Bft) O-NO 57 0 min 0,000 mm 0,0 UV-I 0 W/m -3,9 C -2,9 C 6,4 km/h (2 Bft) 100,00 %
05.02.2018 07:08 -2,8 C 4,4 C 93 % 1023,4 hPa 0,0 l/m 4,4 km/h (1 Bft) N-NO 32 0 min 0,000 mm 0,0 UV-I 0 W/m -3,8 C -2,8 C 6,4 km/h (2 Bft) 97,87 %
05.02.2018 07:10 -2,8 C 4,4 C 93 % 1023,3 hPa 0,0 l/m 6,2 km/h (2 Bft) NO 38 0 min 0,000 mm 0,0 UV-I 0 W/m -3,8 C -2,8 C 8,0 km/h (2 Bft) 100,00 %
05.02.2018 07:12 -2,8 C 4,4 C 93 % 1023,4 hPa 0,0 l/m 8,3 km/h (2 Bft) NO 35 0 min 0,000 mm 0,0 UV-I 2 W/m -3,8 C -4,9 C 11,3 km/h (2 Bft) 98,00 %
05.02.2018 07:14 -2,9 C 4,4 C 93 % 1023,4 hPa 0,0 l/m 6,2 km/h (2 Bft) NO 39 0 min 0,000 mm 0,0 UV-I 5 W/m -3,9 C -2,9 C 8,0 km/h (2 Bft) 100,00 %
05.02.2018 07:16 -2,9 C 4,4 C 93 % 1023,4 hPa 0,0 l/m 8,5 km/h (2 Bft) NO 42 0 min 0,000 mm 0,0 UV-I 5 W/m -3,9 C -5,2 C 12,9 km/h (3 Bft) 97,87 %
05.02.2018 07:18 -2,8 C 4,4 C 93 % 1023,5 hPa 0,0 l/m 6,3 km/h (2 Bft) NO 49 0 min 0,000 mm 0,0 UV-I 5 W/m -3,8 C -2,8 C 9,7 km/h (2 Bft) 100,00 %
05.02.2018 07:20 -2,8 C 4,4 C 93 % 1023,5 hPa 0,0 l/m 7,0 km/h (2 Bft) O-NO 63 0 min 0,000 mm 0,0 UV-I 5 W/m -3,8 C -3,5 C 11,3 km/h (2 Bft) 100,00 %
05.02.2018 07:22 -2,7 C 4,4 C 93 % 1023,5 hPa 0,0 l/m 8,3 km/h (2 Bft) NO 51 0 min 0,000 mm 0,0 UV-I 6 W/m -3,7 C -4,8 C 14,5 km/h (3 Bft) 97,37 %
05.02.2018 07:24 -2,7 C 4,4 C 93 % 1023,5 hPa 0,0 l/m 8,6 km/h (2 Bft) O-NO 78 0 min 0,000 mm 0,0 UV-I 7 W/m -3,7 C -5,1 C 14,5 km/h (3 Bft) 100,00 %
05.02.2018 07:26 -2,7 C 4,4 C 93 % 1023,4 hPa 0,0 l/m 9,2 km/h (2 Bft) O-NO 78 0 min 0,000 mm 0,0 UV-I 7 W/m -3,7 C -5,7 C 12,9 km/h (3 Bft) 97,87 %
05.02.2018 07:28 -2,8 C 4,4 C 92 % 1023,5 hPa 0,0 l/m 8,8 km/h (2 Bft) O-NO 69 0 min 0,000 mm 0,0 UV-I 8 W/m -3,9 C -5,4 C 14,5 km/h (3 Bft) 100,00 %
05.02.2018 07:30 -2,8 C 4,4 C 92 % 1023,5 hPa 0,0 l/m 9,5 km/h (2 Bft) O-NO 76 0 min 0,000 mm 0,0 UV-I 9 W/m -3,9 C -6,1 C 14,5 km/h (3 Bft) 100,00 %
05.02.2018 07:32 -2,8 C 4,4 C 93 % 1023,6 hPa 0,0 l/m 9,9 km/h (2 Bft) NO 41 0 min 0,000 mm 0,0 UV-I 10 W/m -3,8 C -6,5 C 16,1 km/h (3 Bft) 97,87 %
05.02.2018 07:34 -2,8 C 4,4 C 93 % 1023,6 hPa 0,0 l/m 8,6 km/h (2 Bft) O-NO 68 0 min 0,000 mm 0,0 UV-I 11 W/m -3,8 C -5,2 C 14,5 km/h (3 Bft) 98,00 %
05.02.2018 07:36 -2,8 C 4,4 C 93 % 1023,6 hPa 0,0 l/m 9,0 km/h (2 Bft) O 81 0 min 0,000 mm 0,0 UV-I 12 W/m -3,8 C -5,6 C 12,9 km/h (3 Bft) 96,00 %
05.02.2018 07:38 -2,8 C 4,4 C 93 % 1023,5 hPa 0,0 l/m 8,1 km/h (2 Bft) O-NO 76 2 min 0,000 mm 0,0 UV-I 13 W/m -3,8 C -4,7 C 14,5 km/h (3 Bft) 94,74 %
05.02.2018 07:40 -2,8 C 4,4 C 92 % 1023,6 hPa 0,0 l/m 8,9 km/h (2 Bft) O-NO 57 2 min 0,000 mm 0,0 UV-I 14 W/m -3,9 C -5,5 C 14,5 km/h (3 Bft) 97,87 %
05.02.2018 07:42 -2,8 C 4,4 C 93 % 1023,6 hPa 0,0 l/m 10,4 km/h (2 Bft) NO 56 0 min 0,000 mm 0,0 UV-I 15 W/m -3,8 C -6,9 C 14,5 km/h (3 Bft) 98,00 %
05.02.2018 07:44 -2,8 C 4,4 C 93 % 1023,6 hPa 0,0 l/m 10,4 km/h (2 Bft) NO 55 0 min 0,000 mm 0,0 UV-I 17 W/m -3,8 C -6,9 C 14,5 km/h (3 Bft) 97,87 %
05.02.2018 07:46 -2,8 C 4,4 C 92 % 1023,6 hPa 0,0 l/m 10,2 km/h (2 Bft) O 80 0 min 0,000 mm 0,0 UV-I 18 W/m -3,9 C -6,7 C 14,5 km/h (3 Bft) 97,92 %
05.02.2018 07:48 -2,8 C 4,4 C 93 % 1023,6 hPa 0,0 l/m 11,9 km/h (2 Bft) NO 51 0 min 0,000 mm 0,0 UV-I 19 W/m -3,8 C -8,1 C 16,1 km/h (3 Bft) 95,74 %
05.02.2018 07:50 -2,8 C 4,4 C 92 % 1023,6 hPa 0,0 l/m 11,1 km/h (2 Bft) O-NO 70 0 min 0,000 mm 0,0 UV-I 20 W/m -3,9 C -7,5 C 14,5 km/h (3 Bft) 95,74 %
05.02.2018 07:52 -2,8 C 4,4 C 92 % 1023,7 hPa 0,0 l/m 10,5 km/h (2 Bft) O-NO 66 0 min 0,000 mm 0,0 UV-I 23 W/m -3,9 C -7,0 C 14,5 km/h (3 Bft) 97,87 %
05.02.2018 07:54 -2,8 C 4,4 C 92 % 1023,7 hPa 0,0 l/m 9,6 km/h (2 Bft) O-NO 63 0 min 0,000 mm 0,0 UV-I 26 W/m -3,9 C -6,2 C 12,9 km/h (3 Bft) 97,87 %
05.02.2018 07:56 -2,7 C 4,4 C 93 % 1023,7 hPa 0,0 l/m 8,4 km/h (2 Bft) O-NO 64 0 min 0,000 mm 0,0 UV-I 31 W/m -3,7 C -4,9 C 12,9 km/h (3 Bft) 93,62 %
05.02.2018 07:58 -2,8 C 4,4 C 93 % 1023,7 hPa 0,0 l/m 10,6 km/h (2 Bft) O-NO 78 0 min 0,000 mm 0,0 UV-I 35 W/m -3,8 C -7,1 C 14,5 km/h (3 Bft) 97,87 %
05.02.2018 08:00 -2,7 C 4,4 C 93 % 1023,8 hPa 0,0 l/m 11,1 km/h (2 Bft) O-NO 66 2 min 0,000 mm 0,0 UV-I 43 W/m -3,7 C -7,4 C 14,5 km/h (3 Bft) 98,00 %
05.02.2018 08:02 -2,7 C 4,4 C 93 % 1023,7 hPa 0,0 l/m 9,4 km/h (2 Bft) O-NO 74 2 min 0,000 mm 0,0 UV-I 48 W/m -3,7 C -5,9 C 14,5 km/h (3 Bft) 97,87 %
05.02.2018 08:04 -2,7 C 4,4 C 93 % 1023,7 hPa 0,0 l/m 8,4 km/h (2 Bft) NO 47 2 min 0,000 mm 0,0 UV-I 47 W/m -3,7 C -4,9 C 14,5 km/h (3 Bft) 95,74 %
05.02.2018 08:06 -2,7 C 4,4 C 92 % 1023,7 hPa 0,0 l/m 11,0 km/h (2 Bft) O-NO 57 2 min 0,000 mm 0,0 UV-I 50 W/m -3,8 C -7,3 C 16,1 km/h (3 Bft) 100,00 %
05.02.2018 08:08 -2,7 C 4,4 C 92 % 1023,7 hPa 0,0 l/m 12,4 km/h (3 Bft) O-NO 65 2 min 0,000 mm 0,0 UV-I 56 W/m -3,8 C -8,4 C 17,7 km/h (3 Bft) 96,00 %
05.02.2018 08:10 -2,7 C 4,4 C 92 % 1023,7 hPa 0,0 l/m 11,9 km/h (2 Bft) O 88 2 min 0,000 mm 0,0 UV-I 59 W/m -3,8 C -8,0 C 17,7 km/h (3 Bft) 95,74 %
05.02.2018 08:12 -2,7 C 4,4 C 92 % 1023,7 hPa 0,0 l/m 11,1 km/h (2 Bft) O-NO 69 2 min 0,000 mm 0,0 UV-I 60 W/m -3,8 C -7,4 C 16,1 km/h (3 Bft) 98,00 %
05.02.2018 08:14 -2,6 C 4,4 C 92 % 1023,7 hPa 0,0 l/m 10,2 km/h (2 Bft) O-NO 73 2 min 0,000 mm 0,0 UV-I 63 W/m -3,7 C -6,5 C 16,1 km/h (3 Bft) 98,00 %
05.02.2018 08:16 -2,6 C 4,4 C 92 % 1023,8 hPa 0,0 l/m 12,4 km/h (3 Bft) O 85 0 min 0,000 mm 0,0 UV-I 63 W/m -3,7 C -8,3 C 19,3 km/h (3 Bft) 97,87 %
05.02.2018 08:18 -2,6 C 4,4 C 91 % 1023,8 hPa 0,0 l/m 10,5 km/h (2 Bft) O-NO 65 0 min 0,000 mm 0,0 UV-I 63 W/m -3,9 C -6,8 C 16,1 km/h (3 Bft) 93,62 %
05.02.2018 08:20 -2,6 C 4,4 C 91 % 1023,9 hPa 0,0 l/m 12,8 km/h (3 Bft) O-NO 67 2 min 0,000 mm 0,0 UV-I 71 W/m -3,9 C -8,6 C 16,1 km/h (3 Bft) 95,74 %
05.02.2018 08:22 -2,6 C 4,4 C 91 % 1023,9 hPa 0,0 l/m 11,5 km/h (2 Bft) O-NO 67 2 min 0,000 mm 0,0 UV-I 79 W/m -3,9 C -7,6 C 17,7 km/h (3 Bft) 95,74 %
05.02.2018 08:24 -2,5 C 4,4 C 91 % 1023,9 hPa 0,0 l/m 12,1 km/h (2 Bft) O-SO 111 2 min 0,000 mm 0,0 UV-I 86 W/m -3,8 C -8,0 C 19,3 km/h (3 Bft) 95,74 %
05.02.2018 08:26 -2,5 C 4,4 C 91 % 1023,9 hPa 0,0 l/m 12,1 km/h (2 Bft) O 80 2 min 0,000 mm 0,0 UV-I 85 W/m -3,8 C -8,0 C 17,7 km/h (3 Bft) 97,87 %
05.02.2018 08:28 -2,4 C 4,4 C 91 % 1023,9 hPa 0,0 l/m 11,5 km/h (2 Bft) O-NO 74 2 min 0,000 mm 0,0 UV-I 82 W/m -3,7 C -7,4 C 17,7 km/h (3 Bft) 97,87 %
05.02.2018 08:30 -2,4 C 4,4 C 90 % 1024,0 hPa 0,0 l/m 10,4 km/h (2 Bft) O-NO 69 0 min 0,000 mm 0,0 UV-I 58 W/m -3,8 C -6,5 C 16,1 km/h (3 Bft) 97,87 %
05.02.2018 08:32 -2,4 C 4,4 C 90 % 1024,0 hPa 0,0 l/m 10,0 km/h (2 Bft) O-NO 59 0 min 0,000 mm 0,0 UV-I 56 W/m -3,8 C -6,1 C 16,1 km/h (3 Bft) 94,74 %
05.02.2018 08:34 -2,3 C 4,4 C 90 % 1024,0 hPa 0,0 l/m 10,9 km/h (2 Bft) O-NO 68 0 min 0,000 mm 0,0 UV-I 69 W/m -3,7 C -6,8 C 17,7 km/h (3 Bft) 93,62 %
05.02.2018 08:36 -2,3 C 4,4 C 90 % 1024,1 hPa 0,0 l/m 11,1 km/h (2 Bft) O 99 0 min 0,000 mm 0,0 UV-I 80 W/m -3,7 C -6,9 C 16,1 km/h (3 Bft) 97,14 %
05.02.2018 08:38 -2,3 C 4,4 C 90 % 1024,1 hPa 0,0 l/m 7,3 km/h (2 Bft) O-NO 75 2 min 0,000 mm 0,0 UV-I 112 W/m -3,7 C -3,3 C 12,9 km/h (3 Bft) 95,16 %
05.02.2018 08:40 -2,3 C 4,4 C 90 % 1024,0 hPa 0,0 l/m 9,5 km/h (2 Bft) O-NO 78 0 min 0,000 mm 0,0 UV-I 77 W/m -3,7 C -5,5 C 14,5 km/h (3 Bft) 95,74 %
05.02.2018 08:42 -2,2 C 4,4 C 90 % 1024,0 hPa 0,0 l/m 8,5 km/h (2 Bft) O-NO 59 0 min 0,000 mm 0,0 UV-I 69 W/m -3,6 C -4,5 C 12,9 km/h (3 Bft) 98,00 %
05.02.2018 08:44 -2,2 C 4,4 C 90 % 1024,0 hPa 0,0 l/m 9,7 km/h (2 Bft) NO 56 0 min 0,000 mm 0,0 UV-I 66 W/m -3,6 C -5,6 C 14,5 km/h (3 Bft) 95,74 %
05.02.2018 08:46 -2,2 C 4,4 C 90 % 1024,0 hPa 0,0 l/m 9,7 km/h (2 Bft) O-NO 69 0 min 0,000 mm 0,0 UV-I 73 W/m -3,6 C -5,6 C 14,5 km/h (3 Bft) 95,74 %
05.02.2018 08:48 -2,2 C 4,4 C 90 % 1024,1 hPa 0,0 l/m 9,8 km/h (2 Bft) O-NO 73 0 min 0,000 mm 0,0 UV-I 80 W/m -3,6 C -5,7 C 16,1 km/h (3 Bft) 97,87 %
05.02.2018 08:50 -2,1 C 4,4 C 90 % 1024,1 hPa 0,0 l/m 9,5 km/h (2 Bft) O-NO 76 0 min 0,000 mm 0,0 UV-I 84 W/m -3,5 C -5,3 C 14,5 km/h (3 Bft) 97,87 %
05.02.2018 08:52 -2,1 C 4,4 C 90 % 1024,1 hPa 0,0 l/m 8,8 km/h (2 Bft) NO 52 0 min 0,000 mm 0,0 UV-I 83 W/m -3,5 C -4,7 C 12,9 km/h (3 Bft) 97,92 %
05.02.2018 08:54 -2,1 C 4,4 C 90 % 1024,1 hPa 0,0 l/m 7,1 km/h (2 Bft) O-NO 75 0 min 0,000 mm 0,0 UV-I 83 W/m -3,5 C -2,9 C 11,3 km/h (2 Bft) 95,74 %
05.02.2018 08:56 -2,1 C 4,4 C 90 % 1024,1 hPa 0,0 l/m 7,2 km/h (2 Bft) O-NO 78 0 min 0,000 mm 0,0 UV-I 86 W/m -3,5 C -3,0 C 9,7 km/h (2 Bft) 97,87 %
05.02.2018 08:58 -2,0 C 4,4 C 91 % 1024,1 hPa 0,0 l/m 9,7 km/h (2 Bft) O 79 0 min 0,000 mm 0,0 UV-I 84 W/m -3,3 C -5,4 C 14,5 km/h (3 Bft) 95,74 %
05.02.2018 09:00 -2,0 C 4,4 C 91 % 1024,2 hPa 0,0 l/m 9,0 km/h (2 Bft) O-NO 74 0 min 0,025 mm 0,0 UV-I 84 W/m -3,3 C -4,7 C 12,9 km/h (3 Bft) 97,37 %
05.02.2018 09:02 -2,0 C 4,4 C 91 % 1024,1 hPa 0,0 l/m 10,1 km/h (2 Bft) O-NO 66 0 min 0,000 mm 0,0 UV-I 85 W/m -3,3 C -5,7 C 14,5 km/h (3 Bft) 97,92 %
05.02.2018 09:04 -2,0 C 4,4 C 91 % 1024,2 hPa 0,0 l/m 7,8 km/h (2 Bft) O 93 0 min 0,000 mm 0,0 UV-I 94 W/m -3,3 C -3,5 C 14,5 km/h (3 Bft) 98,00 %
05.02.2018 09:06 -1,9 C 4,4 C 91 % 1024,2 hPa 0,0 l/m 10,0 km/h (2 Bft) O-NO 59 0 min 0,000 mm 0,0 UV-I 107 W/m -3,2 C -5,5 C 16,1 km/h (3 Bft) 97,87 %
05.02.2018 09:08 -1,9 C 4,4 C 91 % 1024,2 hPa 0,0 l/m 8,4 km/h (2 Bft) O-NO 78 0 min 0,000 mm 0,0 UV-I 117 W/m -3,2 C -4,0 C 14,5 km/h (3 Bft) 93,62 %
05.02.2018 09:10 -1,9 C 4,4 C 91 % 1024,2 hPa 0,0 l/m 7,5 km/h (2 Bft) O-NO 64 0 min 0,000 mm 0,0 UV-I 122 W/m -3,2 C -3,1 C 11,3 km/h (2 Bft) 95,74 %
05.02.2018 09:12 -1,9 C 4,4 C 91 % 1024,3 hPa 0,0 l/m 8,5 km/h (2 Bft) NO 55 2 min 0,000 mm 0,0 UV-I 138 W/m -3,2 C -4,1 C 12,9 km/h (3 Bft) 95,74 %
05.02.2018 09:14 -1,8 C 4,4 C 91 % 1024,2 hPa 0,0 l/m 7,8 km/h (2 Bft) O-NO 65 2 min 0,000 mm 0,0 UV-I 165 W/m -3,1 C -3,3 C 9,7 km/h (2 Bft) 97,87 %
05.02.2018 09:16 -1,8 C 4,4 C 91 % 1024,2 hPa 0,0 l/m 8,4 km/h (2 Bft) O-NO 59 2 min 0,000 mm 0,0 UV-I 177 W/m -3,1 C -3,9 C 11,3 km/h (2 Bft) 98,00 %
05.02.2018 09:18 -1,7 C 4,4 C 91 % 1024,2 hPa 0,0 l/m 7,0 km/h (2 Bft) NO 41 2 min 0,000 mm 0,0 UV-I 185 W/m -3,0 C -2,4 C 9,7 km/h (2 Bft) 97,37 %
05.02.2018 09:20 -1,7 C 4,4 C 91 % 1024,2 hPa 0,0 l/m 8,3 km/h (2 Bft) N 9 2 min 0,000 mm 0,0 UV-I 189 W/m -3,0 C -3,7 C 12,9 km/h (3 Bft) 96,00 %
05.02.2018 09:22 -1,7 C 4,4 C 91 % 1024,2 hPa 0,0 l/m 7,8 km/h (2 Bft) N-NO 30 2 min 0,000 mm 0,0 UV-I 191 W/m -3,0 C -3,2 C 9,7 km/h (2 Bft) 100,00 %
05.02.2018 09:24 -1,6 C 4,4 C 91 % 1024,2 hPa 0,0 l/m 6,6 km/h (2 Bft) NO 41 2 min 0,000 mm 0,0 UV-I 196 W/m -2,9 C -1,8 C 11,3 km/h (2 Bft) 100,00 %
05.02.2018 09:26 -1,6 C 4,4 C 91 % 1024,1 hPa 0,0 l/m 6,7 km/h (2 Bft) NO 53 2 min 0,000 mm 0,0 UV-I 192 W/m -2,9 C -1,9 C 9,7 km/h (2 Bft) 100,00 %
05.02.2018 09:28 -1,6 C 4,4 C 91 % 1024,1 hPa 0,0 l/m 8,3 km/h (2 Bft) NO 42 2 min 0,000 mm 0,0 UV-I 172 W/m -2,9 C -3,6 C 14,5 km/h (3 Bft) 97,87 %
05.02.2018 09:30 -1,6 C 4,4 C 91 % 1024,1 hPa 0,0 l/m 12,3 km/h (3 Bft) O-NO 61 2 min 0,000 mm 0,0 UV-I 154 W/m -2,9 C -7,1 C 16,1 km/h (3 Bft) 97,92 %
05.02.2018 09:32 -1,7 C 4,4 C 91 % 1024,2 hPa 0,0 l/m 10,2 km/h (2 Bft) O-NO 67 0 min 0,000 mm 0,0 UV-I 154 W/m -3,0 C -5,5 C 14,5 km/h (3 Bft) 94,00 %
05.02.2018 09:34 -1,7 C 4,4 C 91 % 1024,2 hPa 0,0 l/m 11,7 km/h (2 Bft) O-NO 58 2 min 0,000 mm 0,0 UV-I 183 W/m -3,0 C -6,7 C 16,1 km/h (3 Bft) 95,74 %
05.02.2018 09:36 -1,6 C 4,4 C 91 % 1024,2 hPa 0,0 l/m 9,3 km/h (2 Bft) O-NO 58 2 min 0,000 mm 0,0 UV-I 209 W/m -2,9 C -4,6 C 16,1 km/h (3 Bft) 97,87 %
05.02.2018 09:38 -1,6 C 4,4 C 91 % 1024,2 hPa 0,0 l/m 10,3 km/h (2 Bft) NO 40 2 min 0,000 mm 0,0 UV-I 199 W/m -2,9 C -5,5 C 16,1 km/h (3 Bft) 97,87 %
05.02.2018 09:40 -1,5 C 4,4 C 91 % 1024,1 hPa 0,0 l/m 13,6 km/h (3 Bft) O-NO 75 2 min 0,000 mm 0,0 UV-I 225 W/m -2,8 C -7,9 C 20,9 km/h (4 Bft) 97,87 %
05.02.2018 09:42 -1,4 C 4,4 C 91 % 1024,1 hPa 0,0 l/m 7,8 km/h (2 Bft) O-NO 62 2 min 0,000 mm 0,0 UV-I 228 W/m -2,7 C -2,9 C 12,9 km/h (3 Bft) 97,87 %
05.02.2018 09:44 -1,4 C 4,4 C 91 % 1024,0 hPa 0,0 l/m 8,1 km/h (2 Bft) O-NO 61 2 min 0,000 mm 0,0 UV-I 235 W/m -2,7 C -3,2 C 12,9 km/h (3 Bft) 95,74 %
05.02.2018 09:46 -1,3 C 4,4 C 91 % 1024,0 hPa 0,0 l/m 11,3 km/h (2 Bft) O-NO 61 2 min 0,000 mm 0,0 UV-I 238 W/m -2,6 C -6,0 C 16,1 km/h (3 Bft) 94,74 %
05.02.2018 09:48 -1,3 C 4,4 C 91 % 1024,0 hPa 0,0 l/m 14,4 km/h (3 Bft) O-NO 59 2 min 0,000 mm 0,0 UV-I 238 W/m -2,6 C -8,2 C 19,3 km/h (3 Bft) 98,00 %
05.02.2018 09:50 -1,3 C 4,4 C 91 % 1024,0 hPa 0,0 l/m 10,5 km/h (2 Bft) NO 44 2 min 0,000 mm 0,0 UV-I 244 W/m -2,6 C -5,3 C 17,7 km/h (3 Bft) 95,74 %
05.02.2018 09:52 -1,2 C 4,4 C 91 % 1024,0 hPa 0,0 l/m 15,3 km/h (3 Bft) NO 45 2 min 0,000 mm 0,0 UV-I 252 W/m -2,5 C -8,6 C 19,3 km/h (3 Bft) 98,00 %
05.02.2018 09:54 -1,2 C 4,4 C 91 % 1024,0 hPa 0,0 l/m 13,6 km/h (3 Bft) NO 48 2 min 0,000 mm 0,0 UV-I 257 W/m -2,5 C -7,5 C 19,3 km/h (3 Bft) 97,87 %
05.02.2018 09:56 -1,1 C 4,4 C 91 % 1023,9 hPa 0,0 l/m 17,6 km/h (3 Bft) O-NO 57 2 min 0,000 mm 0,0 UV-I 258 W/m -2,4 C -9,8 C 22,5 km/h (4 Bft) 100,00 %
05.02.2018 09:58 -1,1 C 4,4 C 91 % 1024,0 hPa 0,0 l/m 16,2 km/h (3 Bft) O-NO 63 2 min 0,000 mm 0,0 UV-I 257 W/m -2,4 C -9,0 C 22,5 km/h (4 Bft) 97,87 %
05.02.2018 10:00 -1,2 C 4,4 C 91 % 1024,0 hPa 0,0 l/m 13,0 km/h (3 Bft) NO 54 2 min 0,000 mm 0,0 UV-I 273 W/m -2,5 C -7,1 C 17,7 km/h (3 Bft) 97,87 %
05.02.2018 10:02 -1,2 C 4,4 C 90 % 1024,0 hPa 0,0 l/m 14,1 km/h (3 Bft) NO 36 2 min 0,077 mm 0,0 UV-I 272 W/m -2,6 C -7,9 C 20,9 km/h (4 Bft) 94,00 %
05.02.2018 10:04 -1,2 C 4,4 C 91 % 1024,0 hPa 0,0 l/m 11,6 km/h (2 Bft) NO 40 2 min 0,000 mm 0,0 UV-I 297 W/m -2,5 C -6,1 C 16,1 km/h (3 Bft) 100,00 %
05.02.2018 10:06 -1,1 C 4,4 C 91 % 1024,0 hPa 0,0 l/m 14,7 km/h (3 Bft) NO 46 2 min 0,000 mm 0,2 UV-I 283 W/m -2,4 C -8,1 C 22,5 km/h (4 Bft) 97,87 %
05.02.2018 10:08 -1,1 C 4,4 C 91 % 1024,0 hPa 0,0 l/m 13,9 km/h (3 Bft) O-NO 74 2 min 0,000 mm 0,3 UV-I 217 W/m -2,4 C -7,6 C 20,9 km/h (4 Bft) 100,00 %
05.02.2018 10:10 -1,1 C 4,4 C 91 % 1024,0 hPa 0,0 l/m 13,2 km/h (3 Bft) O-NO 64 2 min 0,000 mm 0,2 UV-I 216 W/m -2,4 C -7,1 C 19,3 km/h (3 Bft) 100,00 %
05.02.2018 10:12 -1,1 C 4,4 C 91 % 1023,9 hPa 0,0 l/m 15,1 km/h (3 Bft) NO 49 2 min 0,000 mm 0,4 UV-I 266 W/m -2,4 C -8,4 C 20,9 km/h (4 Bft) 100,00 %
05.02.2018 10:14 -1,1 C 4,4 C 91 % 1023,9 hPa 0,0 l/m 11,1 km/h (2 Bft) NO 38 2 min 0,000 mm 0,3 UV-I 329 W/m -2,4 C -5,6 C 16,1 km/h (3 Bft) 100,00 %
05.02.2018 10:16 -1,0 C 4,4 C 91 % 1023,9 hPa 0,0 l/m 13,3 km/h (3 Bft) O-NO 57 2 min 0,000 mm 0,5 UV-I 307 W/m -2,3 C -7,1 C 19,3 km/h (3 Bft) 97,87 %
05.02.2018 10:18 -1,0 C 4,4 C 91 % 1024,0 hPa 0,0 l/m 16,1 km/h (3 Bft) NO 49 2 min 0,000 mm 0,5 UV-I 301 W/m -2,3 C -8,9 C 20,9 km/h (4 Bft) 96,00 %
05.02.2018 10:20 -0,9 C 4,4 C 90 % 1023,9 hPa 0,0 l/m 13,0 km/h (3 Bft) O-NO 58 2 min 0,000 mm 0,5 UV-I 352 W/m -2,3 C -6,8 C 20,9 km/h (4 Bft) 97,87 %
05.02.2018 10:22 -0,9 C 4,4 C 90 % 1023,9 hPa 0,0 l/m 16,9 km/h (3 Bft) O-NO 60 2 min 0,000 mm 0,5 UV-I 352 W/m -2,3 C -9,2 C 22,5 km/h (4 Bft) 100,00 %
05.02.2018 10:24 -0,9 C 4,4 C 90 % 1023,9 hPa 0,0 l/m 16,3 km/h (3 Bft) O-NO 66 2 min 0,000 mm 0,5 UV-I 337 W/m -2,3 C -8,8 C 22,5 km/h (4 Bft) 97,87 %
05.02.2018 10:26 -0,8 C 4,4 C 90 % 1023,9 hPa 0,0 l/m 13,6 km/h (3 Bft) NO 47 2 min 0,000 mm 0,5 UV-I 373 W/m -2,2 C -7,0 C 20,9 km/h (4 Bft) 95,83 %
05.02.2018 10:28 -0,8 C 4,4 C 90 % 1023,9 hPa 0,0 l/m 16,1 km/h (3 Bft) O-NO 63 2 min 0,000 mm 0,5 UV-I 263 W/m -2,2 C -8,6 C 22,5 km/h (4 Bft) 95,74 %
05.02.2018 10:30 -0,8 C 4,4 C 90 % 1023,9 hPa 0,0 l/m 17,8 km/h (3 Bft) O-NO 59 2 min 0,000 mm 0,5 UV-I 353 W/m -2,2 C -9,6 C 22,5 km/h (4 Bft) 100,00 %
05.02.2018 10:32 -0,8 C 4,4 C 90 % 1023,9 hPa 0,0 l/m 16,1 km/h (3 Bft) O-NO 71 0 min 0,000 mm 0,5 UV-I 182 W/m -2,2 C -8,6 C 20,9 km/h (4 Bft) 97,87 %
05.02.2018 10:34 -0,8 C 4,4 C 90 % 1024,0 hPa 0,0 l/m 16,9 km/h (3 Bft) O-SO 111 0 min 0,000 mm 0,5 UV-I 178 W/m -2,2 C -9,1 C 24,1 km/h (4 Bft) 100,00 %
05.02.2018 10:36 -0,8 C 4,4 C 89 % 1024,0 hPa 0,0 l/m 20,7 km/h (4 Bft) O-NO 76 0 min 0,000 mm 0,3 UV-I 158 W/m -2,4 C -11,0 C 27,4 km/h (4 Bft) 97,87 %
05.02.2018 10:38 -0,8 C 4,4 C 89 % 1024,0 hPa 0,0 l/m 17,1 km/h (3 Bft) O-NO 66 0 min 0,000 mm 0,5 UV-I 182 W/m -2,4 C -9,2 C 22,5 km/h (4 Bft) 100,00 %
05.02.2018 10:40 -0,8 C 4,4 C 90 % 1024,0 hPa 0,0 l/m 15,8 km/h (3 Bft) O-NO 75 0 min 0,000 mm 0,5 UV-I 164 W/m -2,2 C -8,4 C 22,5 km/h (4 Bft) 100,00 %
05.02.2018 10:42 -0,8 C 4,4 C 90 % 1024,0 hPa 0,0 l/m 15,1 km/h (3 Bft) O 79 0 min 0,000 mm 0,5 UV-I 161 W/m -2,2 C -8,0 C 20,9 km/h (4 Bft) 97,96 %
05.02.2018 10:44 -0,8 C 4,4 C 89 % 1024,0 hPa 0,0 l/m 17,9 km/h (3 Bft) O-NO 65 0 min 0,000 mm 0,5 UV-I 187 W/m -2,4 C -9,6 C 25,7 km/h (4 Bft) 97,87 %
05.02.2018 10:46 -0,8 C 4,4 C 89 % 1024,0 hPa 0,0 l/m 21,4 km/h (4 Bft) O-NO 67 0 min 0,000 mm 0,5 UV-I 162 W/m -2,4 C -11,3 C 27,4 km/h (4 Bft) 100,00 %
05.02.2018 10:48 -0,8 C 4,4 C 89 % 1024,0 hPa 0,0 l/m 19,3 km/h (3 Bft) O-NO 59 0 min 0,000 mm 0,5 UV-I 163 W/m -2,4 C -10,3 C 24,1 km/h (4 Bft) 100,00 %
05.02.2018 10:50 -0,8 C 4,4 C 90 % 1024,0 hPa 0,0 l/m 19,9 km/h (4 Bft) O-NO 61 0 min 0,000 mm 0,6 UV-I 202 W/m -2,2 C -10,6 C 24,1 km/h (4 Bft) 100,00 %
05.02.2018 10:52 -0,7 C 4,4 C 90 % 1024,0 hPa 0,0 l/m 15,0 km/h (3 Bft) O-NO 69 2 min 0,000 mm 0,7 UV-I 348 W/m -2,1 C -7,8 C 20,9 km/h (4 Bft) 100,00 %
05.02.2018 10:54 -0,5 C 4,4 C 90 % 1024,0 hPa 0,0 l/m 18,1 km/h (3 Bft) NO 49 2 min 0,000 mm 0,7 UV-I 503 W/m -1,9 C -9,3 C 22,5 km/h (4 Bft) 100,00 %
05.02.2018 10:56 -0,4 C 4,4 C 89 % 1024,0 hPa 0,0 l/m 16,6 km/h (3 Bft) O-NO 57 2 min 0,000 mm 0,7 UV-I 464 W/m -2,0 C -8,4 C 24,1 km/h (4 Bft) 100,00 %
05.02.2018 10:58 -0,3 C 4,4 C 89 % 1023,9 hPa 0,0 l/m 18,3 km/h (3 Bft) NO 42 2 min 0,000 mm 0,7 UV-I 461 W/m -1,9 C -9,2 C 25,7 km/h (4 Bft) 97,37 %
05.02.2018 11:00 -0,3 C 4,4 C 88 % 1024,0 hPa 0,0 l/m 21,6 km/h (4 Bft) NO 49 2 min 0,101 mm 0,7 UV-I 408 W/m -2,0 C -10,7 C 25,7 km/h (4 Bft) 97,87 %
05.02.2018 11:02 -0,3 C 4,4 C 88 % 1024,0 hPa 0,0 l/m 17,9 km/h (3 Bft) NO 55 2 min 0,000 mm 0,7 UV-I 444 W/m -2,0 C -9,0 C 20,9 km/h (4 Bft) 96,43 %
05.02.2018 11:04 -0,3 C 4,4 C 88 % 1024,0 hPa 0,0 l/m 17,1 km/h (3 Bft) NO 51 2 min 0,000 mm 0,7 UV-I 398 W/m -2,0 C -8,6 C 25,7 km/h (4 Bft) 97,87 %
05.02.2018 11:06 -0,2 C 4,4 C 88 % 1024,0 hPa 0,0 l/m 17,3 km/h (3 Bft) O-NO 57 2 min 0,000 mm 0,7 UV-I 368 W/m -1,9 C -8,5 C 25,7 km/h (4 Bft) 97,37 %
05.02.2018 11:08 -0,1 C 4,4 C 87 % 1024,0 hPa 0,0 l/m 19,2 km/h (3 Bft) NO 52 2 min 0,000 mm 0,8 UV-I 446 W/m -2,0 C -9,4 C 25,7 km/h (4 Bft) 97,87 %
05.02.2018 11:10 -0,1 C 4,4 C 88 % 1024,0 hPa 0,0 l/m 17,2 km/h (3 Bft) O-NO 71 2 min 0,000 mm 0,8 UV-I 469 W/m -1,8 C -8,4 C 22,5 km/h (4 Bft) 95,74 %
05.02.2018 11:12 0,1 C 4,4 C 87 % 1024,0 hPa 0,0 l/m 19,3 km/h (3 Bft) O 86 2 min 0,000 mm 0,8 UV-I 437 W/m -1,8 C -9,2 C 27,4 km/h (4 Bft) 97,87 %
05.02.2018 11:14 0,1 C 4,4 C 87 % 1024,0 hPa 0,0 l/m 19,5 km/h (3 Bft) O-NO 77 2 min 0,000 mm 0,8 UV-I 422 W/m -1,8 C -9,3 C 25,7 km/h (4 Bft) 94,92 %
05.02.2018 11:16 0,1 C 4,4 C 86 % 1024,0 hPa 0,0 l/m 18,9 km/h (3 Bft) O-NO 76 2 min 0,000 mm 0,8 UV-I 403 W/m -2,0 C -9,0 C 25,7 km/h (4 Bft) 100,00 %
05.02.2018 11:18 0,1 C 4,4 C 86 % 1024,0 hPa 0,0 l/m 19,3 km/h (3 Bft) O-NO 76 2 min 0,000 mm 0,8 UV-I 391 W/m -2,0 C -9,2 C 30,6 km/h (5 Bft) 94,00 %
05.02.2018 11:20 0,1 C 4,4 C 86 % 1024,0 hPa 0,0 l/m 14,4 km/h (3 Bft) O 84 2 min 0,000 mm 0,8 UV-I 397 W/m -2,0 C -6,5 C 20,9 km/h (4 Bft) 97,87 %
05.02.2018 11:22 0,1 C 4,4 C 86 % 1024,0 hPa 0,0 l/m 14,7 km/h (3 Bft) NO 55 2 min 0,000 mm 0,8 UV-I 439 W/m -2,0 C -6,7 C 19,3 km/h (3 Bft) 100,00 %
05.02.2018 11:24 0,2 C 4,4 C 87 % 1024,0 hPa 0,0 l/m 13,8 km/h (3 Bft) O 82 2 min 0,000 mm 0,8 UV-I 432 W/m -1,7 C -6,0 C 17,7 km/h (3 Bft) 97,87 %
05.02.2018 11:26 0,3 C 4,4 C 86 % 1023,9 hPa 0,0 l/m 15,4 km/h (3 Bft) O-NO 68 2 min 0,000 mm 0,8 UV-I 448 W/m -1,8 C -6,9 C 20,9 km/h (4 Bft) 97,87 %
05.02.2018 11:28 0,3 C 4,4 C 86 % 1023,9 hPa 0,0 l/m 15,8 km/h (3 Bft) NO 40 2 min 0,000 mm 0,7 UV-I 314 W/m -1,8 C -7,1 C 22,5 km/h (4 Bft) 97,87 %
05.02.2018 11:30 0,2 C 4,4 C 86 % 1023,9 hPa 0,0 l/m 18,8 km/h (3 Bft) NO 43 0 min 0,000 mm 0,8 UV-I 222 W/m -1,9 C -8,8 C 25,7 km/h (4 Bft) 97,87 %
05.02.2018 11:32 0,2 C 4,4 C 86 % 1023,8 hPa 0,0 l/m 18,6 km/h (3 Bft) NO 41 2 min 0,000 mm 0,8 UV-I 467 W/m -1,9 C -8,7 C 24,1 km/h (4 Bft) 100,00 %
05.02.2018 11:34 0,3 C 4,4 C 86 % 1023,8 hPa 0,0 l/m 15,9 km/h (3 Bft) O-NO 59 2 min 0,000 mm 0,8 UV-I 500 W/m -1,8 C -7,1 C 24,1 km/h (4 Bft) 97,87 %
05.02.2018 11:36 0,3 C 4,4 C 86 % 1023,8 hPa 0,0 l/m 17,3 km/h (3 Bft) NO 50 2 min 0,000 mm 0,8 UV-I 506 W/m -1,8 C -7,9 C 24,1 km/h (4 Bft) 97,87 %
05.02.2018 11:38 0,4 C 4,4 C 85 % 1023,7 hPa 0,0 l/m 19,6 km/h (3 Bft) NO 42 2 min 0,000 mm 0,8 UV-I 415 W/m -1,8 C -8,9 C 27,4 km/h (4 Bft) 100,00 %
05.02.2018 11:40 0,4 C 4,4 C 85 % 1023,7 hPa 0,0 l/m 13,8 km/h (3 Bft) NO 46 2 min 0,000 mm 0,8 UV-I 367 W/m -1,8 C -5,8 C 20,9 km/h (4 Bft) 100,00 %
05.02.2018 11:42 0,4 C 4,4 C 85 % 1023,7 hPa 0,0 l/m 15,8 km/h (3 Bft) O-NO 62 2 min 0,000 mm 0,7 UV-I 327 W/m -1,8 C -7,0 C 25,7 km/h (4 Bft) 97,87 %
05.02.2018 11:44 0,3 C 4,4 C 85 % 1023,7 hPa 0,0 l/m 18,5 km/h (3 Bft) N-NO 32 2 min 0,000 mm 0,8 UV-I 349 W/m -1,9 C -8,5 C 24,1 km/h (4 Bft) 97,87 %
05.02.2018 11:46 0,4 C 4,4 C 85 % 1023,7 hPa 0,0 l/m 19,1 km/h (3 Bft) O-NO 74 2 min 0,000 mm 0,8 UV-I 406 W/m -1,8 C -8,7 C 24,1 km/h (4 Bft) 100,00 %
05.02.2018 11:48 0,4 C 4,4 C 84 % 1023,6 hPa 0,0 l/m 19,6 km/h (3 Bft) NO 34 2 min 0,000 mm 0,8 UV-I 323 W/m -2,0 C -8,9 C 29,0 km/h (5 Bft) 100,00 %
05.02.2018 11:50 0,3 C 4,4 C 84 % 1023,6 hPa 0,0 l/m 21,6 km/h (4 Bft) O-NO 73 2 min 0,000 mm 0,7 UV-I 452 W/m -2,1 C -10,0 C 25,7 km/h (4 Bft) 100,00 %
05.02.2018 11:52 0,3 C 4,4 C 83 % 1023,6 hPa 0,0 l/m 23,0 km/h (4 Bft) NO 44 2 min 0,000 mm 0,7 UV-I 466 W/m -2,2 C -10,5 C 30,6 km/h (5 Bft) 100,00 %
05.02.2018 11:54 0,3 C 4,4 C 84 % 1023,6 hPa 0,0 l/m 21,6 km/h (4 Bft) O-NO 58 2 min 0,000 mm 0,7 UV-I 469 W/m -2,1 C -10,0 C 29,0 km/h (5 Bft) 100,00 %
05.02.2018 11:56 0,2 C 4,4 C 84 % 1023,6 hPa 0,0 l/m 19,4 km/h (3 Bft) O-NO 65 0 min 0,000 mm 0,7 UV-I 225 W/m -2,2 C -9,1 C 27,4 km/h (4 Bft) 100,00 %
05.02.2018 11:58 0,2 C 4,4 C 84 % 1023,6 hPa 0,0 l/m 21,9 km/h (4 Bft) O-NO 65 0 min 0,000 mm 0,7 UV-I 130 W/m -2,2 C -10,2 C 29,0 km/h (5 Bft) 97,92 %
05.02.2018 12:00 0,2 C 4,4 C 84 % 1023,6 hPa 0,0 l/m 20,8 km/h (4 Bft) O 90 0 min 0,153 mm 0,8 UV-I 130 W/m -2,2 C -9,7 C 27,4 km/h (4 Bft) 97,87 %
05.02.2018 12:02 0,3 C 4,4 C 84 % 1023,6 hPa 0,0 l/m 14,3 km/h (3 Bft) O 85 2 min 0,000 mm 0,9 UV-I 377 W/m -2,1 C -6,2 C 19,3 km/h (3 Bft) 100,00 %
05.02.2018 12:04 0,6 C 4,4 C 84 % 1023,6 hPa 0,0 l/m 16,8 km/h (3 Bft) O 96 2 min 0,000 mm 0,9 UV-I 451 W/m -1,8 C -7,3 C 24,1 km/h (4 Bft) 94,00 %
05.02.2018 12:06 0,6 C 4,4 C 83 % 1023,6 hPa 0,0 l/m 17,9 km/h (3 Bft) O-NO 69 2 min 0,000 mm 0,9 UV-I 473 W/m -1,9 C -7,8 C 24,1 km/h (4 Bft) 100,00 %
05.02.2018 12:08 0,6 C 4,4 C 83 % 1023,5 hPa 0,0 l/m 17,5 km/h (3 Bft) O-NO 60 2 min 0,000 mm 0,9 UV-I 449 W/m -1,9 C -7,6 C 24,1 km/h (4 Bft) 100,00 %
05.02.2018 12:10 0,6 C 4,4 C 84 % 1023,5 hPa 0,0 l/m 14,3 km/h (3 Bft) NO 55 2 min 0,000 mm 0,8 UV-I 369 W/m -1,8 C -5,8 C 22,5 km/h (4 Bft) 100,00 %
05.02.2018 12:12 0,7 C 4,4 C 84 % 1023,5 hPa 0,0 l/m 16,9 km/h (3 Bft) O-NO 72 2 min 0,000 mm 0,9 UV-I 427 W/m -1,7 C -7,2 C 24,1 km/h (4 Bft) 100,00 %
05.02.2018 12:14 0,7 C 4,4 C 84 % 1023,5 hPa 0,0 l/m 15,4 km/h (3 Bft) O-NO 74 2 min 0,000 mm 0,9 UV-I 443 W/m -1,7 C -6,4 C 22,5 km/h (4 Bft) 100,00 %
05.02.2018 12:16 0,8 C 4,4 C 83 % 1023,5 hPa 0,0 l/m 18,0 km/h (3 Bft) O-NO 59 2 min 0,000 mm 0,9 UV-I 466 W/m -1,8 C -7,6 C 24,1 km/h (4 Bft) 100,00 %
05.02.2018 12:18 0,9 C 4,4 C 83 % 1023,5 hPa 0,0 l/m 17,7 km/h (3 Bft) O 80 2 min 0,000 mm 0,9 UV-I 474 W/m -1,7 C -7,4 C 20,9 km/h (4 Bft) 97,37 %
05.02.2018 12:20 1,0 C 4,4 C 83 % 1023,4 hPa 0,0 l/m 17,4 km/h (3 Bft) O-NO 69 2 min 0,000 mm 0,9 UV-I 480 W/m -1,6 C -7,1 C 27,4 km/h (4 Bft) 100,00 %
05.02.2018 12:22 1,0 C 4,4 C 82 % 1023,4 hPa 0,0 l/m 20,1 km/h (4 Bft) O-NO 71 2 min 0,000 mm 0,9 UV-I 473 W/m -1,7 C -8,4 C 27,4 km/h (4 Bft) 96,00 %
05.02.2018 12:24 1,0 C 4,4 C 82 % 1023,3 hPa 0,0 l/m 18,0 km/h (3 Bft) O-NO 58 2 min 0,000 mm 0,9 UV-I 462 W/m -1,7 C -7,4 C 25,7 km/h (4 Bft) 97,87 %
05.02.2018 12:26 1,1 C 4,4 C 82 % 1023,3 hPa 0,0 l/m 17,0 km/h (3 Bft) NO 56 2 min 0,000 mm 0,9 UV-I 489 W/m -1,6 C -6,8 C 22,5 km/h (4 Bft) 95,74 %
05.02.2018 12:28 1,1 C 4,4 C 82 % 1023,3 hPa 0,0 l/m 13,8 km/h (3 Bft) NO 36 2 min 0,000 mm 0,9 UV-I 469 W/m -1,6 C -4,9 C 19,3 km/h (3 Bft) 98,00 %
05.02.2018 12:30 1,3 C 4,4 C 83 % 1023,3 hPa 0,0 l/m 11,7 km/h (2 Bft) O-NO 66 2 min 0,000 mm 0,9 UV-I 482 W/m -1,3 C -3,3 C 17,7 km/h (3 Bft) 97,87 %
05.02.2018 12:32 1,4 C 4,4 C 82 % 1023,2 hPa 0,0 l/m 17,0 km/h (3 Bft) NO 40 2 min 0,000 mm 0,9 UV-I 488 W/m -1,3 C -6,4 C 20,9 km/h (4 Bft) 97,87 %
05.02.2018 12:34 1,4 C 4,4 C 80 % 1023,2 hPa 0,0 l/m 19,2 km/h (3 Bft) NO 51 2 min 0,000 mm 0,9 UV-I 480 W/m -1,7 C -7,5 C 25,7 km/h (4 Bft) 95,74 %
05.02.2018 12:36 1,3 C 4,4 C 81 % 1023,1 hPa 0,0 l/m 15,8 km/h (3 Bft) NO 45 2 min 0,000 mm 0,9 UV-I 454 W/m -1,6 C -5,9 C 24,1 km/h (4 Bft) 91,49 %
05.02.2018 12:38 1,4 C 4,4 C 83 % 1023,0 hPa 0,0 l/m 19,0 km/h (3 Bft) N-NO 28 2 min 0,000 mm 0,9 UV-I 464 W/m -1,2 C -7,4 C 25,7 km/h (4 Bft) 97,22 %
05.02.2018 12:40 1,4 C 4,4 C 81 % 1023,1 hPa 0,0 l/m 20,5 km/h (4 Bft) O-NO 63 2 min 0,000 mm 0,9 UV-I 464 W/m -1,5 C -8,0 C 29,0 km/h (5 Bft) 98,00 %
05.02.2018 12:42 1,3 C 4,4 C 81 % 1023,1 hPa 0,0 l/m 17,5 km/h (3 Bft) O-NO 61 2 min 0,000 mm 0,8 UV-I 253 W/m -1,6 C -6,8 C 25,7 km/h (4 Bft) 95,74 %
05.02.2018 12:44 1,3 C 4,4 C 80 % 1023,0 hPa 0,0 l/m 18,8 km/h (3 Bft) N-NO 28 2 min 0,000 mm 0,8 UV-I 427 W/m -1,8 C -7,4 C 27,4 km/h (4 Bft) 100,00 %
05.02.2018 12:46 1,4 C 4,4 C 82 % 1023,1 hPa 0,0 l/m 17,4 km/h (3 Bft) O-NO 59 2 min 0,000 mm 0,8 UV-I 412 W/m -1,3 C -6,6 C 27,4 km/h (4 Bft) 100,00 %
05.02.2018 12:48 1,4 C 4,4 C 80 % 1023,1 hPa 0,0 l/m 21,5 km/h (4 Bft) O-NO 61 2 min 0,000 mm 0,8 UV-I 419 W/m -1,7 C -8,5 C 29,0 km/h (5 Bft) 100,00 %
05.02.2018 12:50 1,4 C 4,4 C 81 % 1023,1 hPa 0,0 l/m 15,8 km/h (3 Bft) NO 55 2 min 0,000 mm 0,8 UV-I 453 W/m -1,5 C -5,7 C 25,7 km/h (4 Bft) 100,00 %
05.02.2018 12:52 1,6 C 4,4 C 81 % 1023,1 hPa 0,0 l/m 13,5 km/h (3 Bft) N-NO 14 2 min 0,000 mm 0,8 UV-I 414 W/m -1,3 C -4,1 C 19,3 km/h (3 Bft) 100,00 %
05.02.2018 12:54 1,7 C 4,4 C 81 % 1023,0 hPa 0,0 l/m 14,2 km/h (3 Bft) NO 48 2 min 0,000 mm 0,8 UV-I 448 W/m -1,2 C -4,5 C 24,1 km/h (4 Bft) 100,00 %
05.02.2018 12:56 1,8 C 4,4 C 81 % 1023,1 hPa 0,0 l/m 15,6 km/h (3 Bft) O-NO 63 2 min 0,000 mm 0,8 UV-I 414 W/m -1,1 C -5,1 C 22,5 km/h (4 Bft) 100,00 %
05.02.2018 12:58 1,8 C 4,4 C 79 % 1023,0 hPa 0,0 l/m 19,9 km/h (4 Bft) NO 36 2 min 0,000 mm 0,8 UV-I 449 W/m -1,4 C -7,3 C 27,4 km/h (4 Bft) 100,00 %
05.02.2018 13:00 1,9 C 4,4 C 79 % 1023,0 hPa 0,0 l/m 17,2 km/h (3 Bft) O 88 2 min 0,000 mm 0,8 UV-I 450 W/m -1,3 C -5,9 C 27,4 km/h (4 Bft) 100,00 %
05.02.2018 13:02 1,9 C 4,4 C 78 % 1023,0 hPa 0,0 l/m 21,2 km/h (4 Bft) NO 46 2 min 0,177 mm 0,8 UV-I 455 W/m -1,5 C -7,7 C 30,6 km/h (5 Bft) 100,00 %
05.02.2018 13:04 1,9 C 4,4 C 79 % 1023,0 hPa 0,0 l/m 17,6 km/h (3 Bft) NO 40 2 min 0,000 mm 0,8 UV-I 461 W/m -1,3 C -6,1 C 27,4 km/h (4 Bft) 97,87 %
05.02.2018 13:06 1,9 C 4,4 C 78 % 1023,0 hPa 0,0 l/m 20,3 km/h (4 Bft) NO 51 2 min 0,000 mm 0,8 UV-I 482 W/m -1,5 C -7,3 C 32,2 km/h (5 Bft) 100,00 %
05.02.2018 13:08 1,9 C 4,4 C 79 % 1023,0 hPa 0,0 l/m 17,3 km/h (3 Bft) NO 44 2 min 0,000 mm 0,8 UV-I 476 W/m -1,3 C -5,9 C 24,1 km/h (4 Bft) 97,87 %
05.02.2018 13:10 2,1 C 4,4 C 79 % 1023,0 hPa 0,0 l/m 16,5 km/h (3 Bft) NO 38 2 min 0,000 mm 0,8 UV-I 421 W/m -1,2 C -5,3 C 24,1 km/h (4 Bft) 100,00 %
05.02.2018 13:12 2,1 C 4,4 C 79 % 1022,9 hPa 0,0 l/m 15,6 km/h (3 Bft) O-NO 78 2 min 0,000 mm 0,8 UV-I 470 W/m -1,2 C -4,8 C 27,4 km/h (4 Bft) 98,00 %
05.02.2018 13:14 2,0 C 4,4 C 78 % 1022,9 hPa 0,0 l/m 15,4 km/h (3 Bft) O-NO 71 2 min 0,000 mm 0,7 UV-I 454 W/m -1,4 C -4,8 C 25,7 km/h (4 Bft) 97,87 %
05.02.2018 13:16 1,9 C 4,4 C 78 % 1022,8 hPa 0,0 l/m 15,4 km/h (3 Bft) NO 34 2 min 0,000 mm 0,8 UV-I 491 W/m -1,5 C -4,9 C 24,1 km/h (4 Bft) 100,00 %
05.02.2018 13:18 2,1 C 4,4 C 79 % 1022,8 hPa 0,0 l/m 13,9 km/h (3 Bft) O-NO 77 2 min 0,000 mm 0,8 UV-I 471 W/m -1,2 C -3,8 C 22,5 km/h (4 Bft) 98,04 %
05.02.2018 13:20 2,0 C 4,4 C 77 % 1022,8 hPa 0,0 l/m 17,0 km/h (3 Bft) O-NO 78 2 min 0,000 mm 0,6 UV-I 380 W/m -1,6 C -5,6 C 24,1 km/h (4 Bft) 97,87 %
05.02.2018 13:22 1,8 C 4,4 C 78 % 1022,8 hPa 0,0 l/m 15,7 km/h (3 Bft) O-NO 62 2 min 0,000 mm 0,6 UV-I 249 W/m -1,6 C -5,2 C 24,1 km/h (4 Bft) 100,00 %
05.02.2018 13:24 1,8 C 4,4 C 79 % 1022,8 hPa 0,0 l/m 14,0 km/h (3 Bft) O-NO 58 2 min 0,000 mm 0,7 UV-I 275 W/m -1,4 C -4,2 C 19,3 km/h (3 Bft) 100,00 %
05.02.2018 13:26 1,8 C 4,4 C 79 % 1022,8 hPa 0,0 l/m 15,2 km/h (3 Bft) O-NO 57 2 min 0,000 mm 0,7 UV-I 455 W/m -1,4 C -4,9 C 22,5 km/h (4 Bft) 97,87 %
05.02.2018 13:28 1,8 C 4,4 C 79 % 1022,8 hPa 0,0 l/m 13,4 km/h (3 Bft) O-NO 69 2 min 0,000 mm 0,6 UV-I 395 W/m -1,4 C -3,8 C 22,5 km/h (4 Bft) 97,87 %
05.02.2018 13:30 1,6 C 4,4 C 78 % 1022,8 hPa 0,0 l/m 18,5 km/h (3 Bft) O-NO 69 0 min 0,000 mm 0,6 UV-I 137 W/m -1,8 C -6,9 C 24,1 km/h (4 Bft) 97,37 %
05.02.2018 13:32 1,5 C 4,4 C 78 % 1022,7 hPa 0,0 l/m 16,9 km/h (3 Bft) NO 55 0 min 0,000 mm 0,6 UV-I 139 W/m -1,9 C -6,2 C 22,5 km/h (4 Bft) 100,00 %
05.02.2018 13:34 1,6 C 4,4 C 79 % 1022,7 hPa 0,0 l/m 14,8 km/h (3 Bft) O 81 0 min 0,000 mm 0,6 UV-I 172 W/m -1,6 C -4,9 C 22,5 km/h (4 Bft) 98,00 %
05.02.2018 13:36 1,6 C 4,4 C 79 % 1022,7 hPa 0,0 l/m 12,5 km/h (3 Bft) O 82 2 min 0,000 mm 0,6 UV-I 248 W/m -1,6 C -3,5 C 19,3 km/h (3 Bft) 95,74 %
05.02.2018 13:38 1,7 C 4,4 C 79 % 1022,7 hPa 0,0 l/m 17,4 km/h (3 Bft) O-NO 75 2 min 0,000 mm 0,6 UV-I 297 W/m -1,5 C -6,2 C 20,9 km/h (4 Bft) 95,74 %
05.02.2018 13:40 1,8 C 4,4 C 79 % 1022,6 hPa 0,0 l/m 14,9 km/h (3 Bft) O-NO 75 2 min 0,000 mm 0,7 UV-I 284 W/m -1,4 C -4,7 C 20,9 km/h (4 Bft) 97,87 %
05.02.2018 13:42 2,1 C 4,4 C 79 % 1022,6 hPa 0,0 l/m 19,2 km/h (3 Bft) O-NO 67 2 min 0,000 mm 0,6 UV-I 478 W/m -1,2 C -6,6 C 30,6 km/h (5 Bft) 100,00 %
05.02.2018 13:44 2,3 C 4,4 C 77 % 1022,6 hPa 0,0 l/m 21,2 km/h (4 Bft) N-NO 30 2 min 0,000 mm 0,6 UV-I 510 W/m -1,3 C -7,2 C 29,0 km/h (5 Bft) 97,87 %
05.02.2018 13:46 2,3 C 4,4 C 76 % 1022,5 hPa 0,0 l/m 18,8 km/h (3 Bft) NO 51 2 min 0,000 mm 0,6 UV-I 492 W/m -1,5 C -6,1 C 24,1 km/h (4 Bft) 93,62 %
05.02.2018 13:48 2,3 C 4,4 C 75 % 1022,6 hPa 0,0 l/m 18,2 km/h (3 Bft) O-NO 59 2 min 0,000 mm 0,6 UV-I 448 W/m -1,7 C -5,8 C 22,5 km/h (4 Bft) 97,87 %
05.02.2018 13:50 2,4 C 4,4 C 77 % 1022,5 hPa 0,0 l/m 15,9 km/h (3 Bft) NO 43 2 min 0,000 mm 0,6 UV-I 403 W/m -1,2 C -4,6 C 22,5 km/h (4 Bft) 92,11 %
05.02.2018 13:52 2,3 C 4,4 C 77 % 1022,5 hPa 0,0 l/m 19,3 km/h (3 Bft) N-NO 33 2 min 0,000 mm 0,6 UV-I 411 W/m -1,3 C -6,4 C 25,7 km/h (4 Bft) 98,00 %
05.02.2018 13:54 2,3 C 4,4 C 77 % 1022,5 hPa 0,0 l/m 15,8 km/h (3 Bft) N-NO 24 2 min 0,000 mm 0,6 UV-I 420 W/m -1,3 C -4,6 C 20,9 km/h (4 Bft) 93,62 %
05.02.2018 13:56 2,3 C 4,4 C 78 % 1022,5 hPa 0,0 l/m 15,9 km/h (3 Bft) N-NO 26 2 min 0,000 mm 0,6 UV-I 424 W/m -1,1 C -4,7 C 24,1 km/h (4 Bft) 97,87 %
05.02.2018 13:58 2,3 C 4,4 C 77 % 1022,6 hPa 0,0 l/m 15,2 km/h (3 Bft) N-NW 348 2 min 0,000 mm 0,6 UV-I 435 W/m -1,3 C -4,3 C 20,9 km/h (4 Bft) 98,00 %
05.02.2018 14:00 2,4 C 4,4 C 78 % 1022,5 hPa 0,0 l/m 15,4 km/h (3 Bft) NO 37 2 min 0,153 mm 0,6 UV-I 419 W/m -1,0 C -4,3 C 24,1 km/h (4 Bft) 97,96 %
05.02.2018 14:02 2,4 C 4,4 C 78 % 1022,5 hPa 0,0 l/m 16,3 km/h (3 Bft) NO 36 2 min 0,000 mm 0,6 UV-I 429 W/m -1,0 C -4,8 C 25,7 km/h (4 Bft) 93,62 %
05.02.2018 14:04 2,6 C 4,4 C 77 % 1022,5 hPa 0,0 l/m 15,4 km/h (3 Bft) NO 52 2 min 0,000 mm 0,6 UV-I 448 W/m -1,0 C -4,1 C 19,3 km/h (3 Bft) 93,62 %
05.02.2018 14:06 2,7 C 4,4 C 77 % 1022,6 hPa 0,0 l/m 16,9 km/h (3 Bft) N-NO 22 2 min 0,000 mm 0,6 UV-I 455 W/m -0,9 C -4,7 C 20,9 km/h (4 Bft) 94,74 %
05.02.2018 14:08 2,8 C 4,4 C 77 % 1022,6 hPa 0,0 l/m 13,1 km/h (3 Bft) NO 48 2 min 0,000 mm 0,6 UV-I 461 W/m -0,8 C -2,5 C 17,7 km/h (3 Bft) 95,74 %
05.02.2018 14:10 2,9 C 4,4 C 76 % 1022,6 hPa 0,0 l/m 12,6 km/h (3 Bft) NO 49 2 min 0,000 mm 0,5 UV-I 465 W/m -0,9 C -2,1 C 20,9 km/h (4 Bft) 91,49 %
05.02.2018 14:12 3,0 C 4,4 C 75 % 1022,6 hPa 0,0 l/m 13,9 km/h (3 Bft) O-NO 59 2 min 0,000 mm 0,5 UV-I 480 W/m -1,0 C -2,7 C 19,3 km/h (3 Bft) 97,87 %
05.02.2018 14:14 3,1 C 4,4 C 74 % 1022,6 hPa 0,0 l/m 15,0 km/h (3 Bft) O-NO 69 2 min 0,000 mm 0,5 UV-I 486 W/m -1,1 C -3,2 C 20,9 km/h (4 Bft) 93,62 %
05.02.2018 14:16 3,1 C 4,4 C 73 % 1022,6 hPa 0,0 l/m 16,8 km/h (3 Bft) O-NO 74 2 min 0,000 mm 0,5 UV-I 481 W/m -1,3 C -4,2 C 24,1 km/h (4 Bft) 98,11 %
05.02.2018 14:18 3,0 C 4,4 C 71 % 1022,6 hPa 0,0 l/m 19,5 km/h (3 Bft) O-NO 71 2 min 0,000 mm 0,5 UV-I 478 W/m -1,7 C -5,5 C 30,6 km/h (5 Bft) 97,87 %
05.02.2018 14:20 2,9 C 4,4 C 72 % 1022,5 hPa 0,0 l/m 19,5 km/h (3 Bft) O-NO 65 2 min 0,000 mm 0,5 UV-I 469 W/m -1,6 C -5,7 C 25,7 km/h (4 Bft) 95,74 %
05.02.2018 14:22 2,8 C 4,4 C 71 % 1022,5 hPa 0,0 l/m 21,2 km/h (4 Bft) O-SO 111 2 min 0,000 mm 0,5 UV-I 453 W/m -1,9 C -6,5 C 30,6 km/h (5 Bft) 91,49 %
05.02.2018 14:24 2,7 C 4,4 C 71 % 1022,6 hPa 0,0 l/m 20,0 km/h (4 Bft) O-NO 78 2 min 0,000 mm 0,5 UV-I 444 W/m -2,0 C -6,1 C 25,7 km/h (4 Bft) 95,74 %
05.02.2018 14:26 2,7 C 4,4 C 71 % 1022,5 hPa 0,0 l/m 21,4 km/h (4 Bft) O 89 2 min 0,000 mm 0,2 UV-I 456 W/m -2,0 C -6,7 C 32,2 km/h (5 Bft) 96,00 %
05.02.2018 14:28 2,7 C 4,4 C 71 % 1022,5 hPa 0,0 l/m 23,7 km/h (4 Bft) O 80 2 min 0,000 mm 0,0 UV-I 439 W/m -2,0 C -7,6 C 30,6 km/h (5 Bft) 97,87 %
05.02.2018 14:30 2,7 C 4,4 C 72 % 1022,5 hPa 0,0 l/m 20,9 km/h (4 Bft) O-NO 63 2 min 0,000 mm 0,0 UV-I 396 W/m -1,8 C -6,5 C 25,7 km/h (4 Bft) 97,87 %
05.02.2018 14:32 2,7 C 4,4 C 72 % 1022,5 hPa 0,0 l/m 18,6 km/h (3 Bft) O 97 2 min 0,000 mm 0,0 UV-I 407 W/m -1,8 C -5,5 C 24,1 km/h (4 Bft) 97,22 %
05.02.2018 14:34 2,8 C 4,4 C 72 % 1022,5 hPa 0,0 l/m 15,8 km/h (3 Bft) O-NO 59 2 min 0,000 mm 0,1 UV-I 385 W/m -1,7 C -4,0 C 24,1 km/h (4 Bft) 97,87 %
05.02.2018 14:36 2,7 C 4,4 C 72 % 1022,4 hPa 0,0 l/m 20,5 km/h (4 Bft) O 86 2 min 0,000 mm 0,1 UV-I 354 W/m -1,8 C -6,4 C 29,0 km/h (5 Bft) 97,87 %
05.02.2018 14:38 2,7 C 4,4 C 71 % 1022,3 hPa 0,0 l/m 17,1 km/h (3 Bft) O 82 2 min 0,000 mm 0,0 UV-I 346 W/m -2,0 C -4,8 C 22,5 km/h (4 Bft) 97,87 %
05.02.2018 14:40 2,6 C 4,4 C 71 % 1022,4 hPa 0,0 l/m 21,5 km/h (4 Bft) O 84 2 min 0,000 mm 0,0 UV-I 413 W/m -2,1 C -6,9 C 25,7 km/h (4 Bft) 98,00 %
05.02.2018 14:42 2,6 C 4,4 C 71 % 1022,3 hPa 0,0 l/m 21,4 km/h (4 Bft) O 82 2 min 0,000 mm 0,0 UV-I 401 W/m -2,1 C -6,9 C 30,6 km/h (5 Bft) 97,87 %
05.02.2018 14:44 2,6 C 4,4 C 71 % 1022,3 hPa 0,0 l/m 21,6 km/h (4 Bft) O-NO 74 2 min 0,000 mm 0,0 UV-I 351 W/m -2,1 C -6,9 C 32,2 km/h (5 Bft) 97,87 %
05.02.2018 14:46 2,6 C 4,4 C 71 % 1022,3 hPa 0,0 l/m 20,6 km/h (4 Bft) O 92 2 min 0,000 mm 0,0 UV-I 319 W/m -2,1 C -6,5 C 27,4 km/h (4 Bft) 96,00 %
05.02.2018 14:48 2,6 C 4,4 C 73 % 1022,3 hPa 0,0 l/m 16,1 km/h (3 Bft) O 96 2 min 0,000 mm 0,0 UV-I 342 W/m -1,7 C -4,4 C 22,5 km/h (4 Bft) 97,87 %
05.02.2018 14:50 2,5 C 4,4 C 71 % 1022,3 hPa 0,0 l/m 20,7 km/h (4 Bft) O-NO 75 2 min 0,000 mm 0,0 UV-I 313 W/m -2,2 C -6,7 C 25,7 km/h (4 Bft) 97,87 %
05.02.2018 14:52 2,5 C 4,4 C 72 % 1022,3 hPa 0,0 l/m 17,8 km/h (3 Bft) O-NO 70 2 min 0,000 mm 0,0 UV-I 310 W/m -2,0 C -5,4 C 27,4 km/h (4 Bft) 97,87 %
05.02.2018 14:54 2,4 C 4,4 C 72 % 1022,2 hPa 0,0 l/m 23,7 km/h (4 Bft) O-NO 67 2 min 0,000 mm 0,0 UV-I 268 W/m -2,1 C -8,0 C 30,6 km/h (5 Bft) 92,68 %
05.02.2018 14:56 2,4 C 4,4 C 73 % 1022,1 hPa 0,0 l/m 20,9 km/h (4 Bft) NO 36 2 min 0,000 mm 0,0 UV-I 242 W/m -1,9 C -6,9 C 27,4 km/h (4 Bft) 95,74 %
05.02.2018 14:58 2,4 C 4,4 C 72 % 1022,1 hPa 0,0 l/m 19,9 km/h (4 Bft) O-NO 71 2 min 0,000 mm 0,0 UV-I 304 W/m -2,1 C -6,5 C 29,0 km/h (5 Bft) 97,87 %
05.02.2018 15:00 2,4 C 4,4 C 73 % 1022,1 hPa 0,0 l/m 18,6 km/h (3 Bft) O-NO 69 2 min 0,178 mm 0,0 UV-I 352 W/m -1,9 C -5,9 C 27,4 km/h (4 Bft) 97,96 %
05.02.2018 15:02 2,4 C 4,4 C 72 % 1022,1 hPa 0,0 l/m 17,5 km/h (3 Bft) NO 48 2 min 0,000 mm 0,0 UV-I 372 W/m -2,1 C -5,4 C 22,5 km/h (4 Bft) 95,74 %
05.02.2018 15:04 2,6 C 4,4 C 73 % 1022,2 hPa 0,0 l/m 19,3 km/h (3 Bft) O 87 2 min 0,000 mm 0,0 UV-I 348 W/m -1,7 C -6,0 C 29,0 km/h (5 Bft) 98,00 %
05.02.2018 15:06 2,6 C 4,4 C 72 % 1022,2 hPa 0,0 l/m 20,6 km/h (4 Bft) O-NO 58 2 min 0,000 mm 0,0 UV-I 278 W/m -1,9 C -6,5 C 27,4 km/h (4 Bft) 94,00 %
05.02.2018 15:08 2,6 C 4,4 C 73 % 1022,1 hPa 0,0 l/m 17,3 km/h (3 Bft) O-NO 62 2 min 0,000 mm 0,0 UV-I 308 W/m -1,7 C -5,0 C 24,1 km/h (4 Bft) 97,44 %
05.02.2018 15:10 2,6 C 4,4 C 75 % 1022,2 hPa 0,0 l/m 17,7 km/h (3 Bft) NO 49 2 min 0,000 mm 0,0 UV-I 227 W/m -1,4 C -5,2 C 24,1 km/h (4 Bft) 100,00 %
05.02.2018 15:12 2,6 C 4,4 C 73 % 1022,2 hPa 0,0 l/m 17,7 km/h (3 Bft) N-NO 26 2 min 0,000 mm 0,0 UV-I 297 W/m -1,7 C -5,2 C 24,1 km/h (4 Bft) 100,00 %
05.02.2018 15:15 2,6 C 4,4 C 73 % 1022,2 hPa 0,0 l/m 21,1 km/h (4 Bft) NO 54 3 min 0,000 mm 0,0 UV-I 267 W/m -1,7 C -6,7 C 29,0 km/h (5 Bft) 97,14 %
05.02.2018 15:16 2,6 C 4,4 C 72 % 1022,2 hPa 0,0 l/m 20,8 km/h (4 Bft) O-NO 68 1 min 0,000 mm 0,0 UV-I 284 W/m -1,9 C -6,6 C 25,7 km/h (4 Bft) 100,00 %
05.02.2018 15:18 2,5 C 4,4 C 73 % 1022,2 hPa 0,0 l/m 19,8 km/h (3 Bft) O-NO 63 2 min 0,000 mm 0,0 UV-I 272 W/m -1,8 C -6,3 C 27,4 km/h (4 Bft) 95,74 %
05.02.2018 15:20 2,4 C 4,4 C 73 % 1022,1 hPa 0,0 l/m 22,8 km/h (4 Bft) O-NO 65 2 min 0,000 mm 0,0 UV-I 266 W/m -1,9 C -7,7 C 29,0 km/h (5 Bft) 97,87 %
05.02.2018 15:22 2,3 C 4,4 C 73 % 1022,0 hPa 0,0 l/m 20,2 km/h (4 Bft) O-NO 59 2 min 0,000 mm 0,0 UV-I 280 W/m -2,0 C -6,7 C 27,4 km/h (4 Bft) 95,74 %
05.02.2018 15:24 2,3 C 4,4 C 73 % 1022,0 hPa 0,0 l/m 22,2 km/h (4 Bft) O-NO 78 2 min 0,000 mm 0,0 UV-I 284 W/m -2,0 C -7,6 C 27,4 km/h (4 Bft) 97,87 %
05.02.2018 15:26 2,2 C 4,4 C 73 % 1022,0 hPa 0,0 l/m 20,4 km/h (4 Bft) O-NO 76 2 min 0,000 mm 0,0 UV-I 170 W/m -2,1 C -7,0 C 33,8 km/h (5 Bft) 97,87 %
05.02.2018 15:28 2,1 C 4,4 C 75 % 1022,0 hPa 0,0 l/m 19,5 km/h (3 Bft) O-NO 60 2 min 0,000 mm 0,0 UV-I 178 W/m -1,9 C -6,7 C 25,7 km/h (4 Bft) 97,87 %
05.02.2018 15:30 2,0 C 4,4 C 75 % 1022,0 hPa 0,0 l/m 22,3 km/h (4 Bft) NO 55 2 min 0,000 mm 0,0 UV-I 189 W/m -2,0 C -8,0 C 29,0 km/h (5 Bft) 94,74 %
05.02.2018 15:32 1,9 C 4,4 C 76 % 1022,0 hPa 0,0 l/m 19,9 km/h (4 Bft) O-NO 57 2 min 0,000 mm 0,0 UV-I 144 W/m -1,9 C -7,1 C 27,4 km/h (4 Bft) 97,87 %
05.02.2018 15:34 1,9 C 4,4 C 77 % 1022,0 hPa 0,0 l/m 17,8 km/h (3 Bft) O 80 2 min 0,000 mm 0,0 UV-I 130 W/m -1,7 C -6,2 C 24,1 km/h (4 Bft) 95,74 %
05.02.2018 15:36 1,8 C 4,4 C 77 % 1022,0 hPa 0,0 l/m 20,0 km/h (4 Bft) O-NO 72 2 min 0,000 mm 0,0 UV-I 126 W/m -1,8 C -7,3 C 30,6 km/h (5 Bft) 96,00 %
05.02.2018 15:38 1,8 C 4,4 C 77 % 1022,0 hPa 0,0 l/m 16,5 km/h (3 Bft) O 89 2 min 0,000 mm 0,0 UV-I 134 W/m -1,8 C -5,6 C 25,7 km/h (4 Bft) 97,87 %
05.02.2018 15:40 1,7 C 4,4 C 78 % 1022,0 hPa 0,0 l/m 14,7 km/h (3 Bft) O-NO 70 0 min 0,000 mm 0,0 UV-I 114 W/m -1,7 C -4,7 C 24,1 km/h (4 Bft) 97,87 %
05.02.2018 15:42 1,7 C 4,4 C 78 % 1022,0 hPa 0,0 l/m 17,9 km/h (3 Bft) O-NO 67 2 min 0,000 mm 0,0 UV-I 138 W/m -1,7 C -6,5 C 24,1 km/h (4 Bft) 98,00 %
05.02.2018 15:44 1,6 C 4,4 C 77 % 1022,0 hPa 0,0 l/m 16,9 km/h (3 Bft) O 95 2 min 0,000 mm 0,0 UV-I 111 W/m -2,0 C -6,1 C 22,5 km/h (4 Bft) 97,37 %
05.02.2018 15:46 1,6 C 4,4 C 77 % 1022,0 hPa 0,0 l/m 18,2 km/h (3 Bft) O 89 0 min 0,000 mm 0,0 UV-I 100 W/m -2,0 C -6,7 C 24,1 km/h (4 Bft) 97,96 %
05.02.2018 15:48 1,6 C 4,4 C 78 % 1022,0 hPa 0,0 l/m 16,3 km/h (3 Bft) O-NO 69 2 min 0,000 mm 0,0 UV-I 146 W/m -1,8 C -5,8 C 22,5 km/h (4 Bft) 95,74 %
05.02.2018 15:50 1,6 C 4,4 C 78 % 1022,1 hPa 0,0 l/m 16,0 km/h (3 Bft) O-NO 74 2 min 0,000 mm 0,0 UV-I 125 W/m -1,8 C -5,6 C 20,9 km/h (4 Bft) 97,87 %
05.02.2018 15:52 1,6 C 4,4 C 77 % 1022,1 hPa 0,0 l/m 19,2 km/h (3 Bft) O-NO 71 0 min 0,000 mm 0,0 UV-I 95 W/m -2,0 C -7,2 C 25,7 km/h (4 Bft) 95,74 %
05.02.2018 15:54 1,5 C 4,4 C 77 % 1022,0 hPa 0,0 l/m 19,3 km/h (3 Bft) O-NO 66 0 min 0,000 mm 0,0 UV-I 83 W/m -2,1 C -7,4 C 25,7 km/h (4 Bft) 96,00 %
05.02.2018 15:56 1,5 C 4,4 C 77 % 1022,0 hPa 0,0 l/m 12,7 km/h (3 Bft) O 89 2 min 0,000 mm 0,0 UV-I 144 W/m -2,1 C -3,7 C 19,3 km/h (3 Bft) 96,00 %
05.02.2018 15:58 1,5 C 4,4 C 77 % 1022,0 hPa 0,0 l/m 18,9 km/h (3 Bft) O-NO 68 2 min 0,000 mm 0,0 UV-I 159 W/m -2,1 C -7,2 C 29,0 km/h (5 Bft) 100,00 %
05.02.2018 16:00 1,5 C 4,4 C 77 % 1022,0 hPa 0,0 l/m 18,0 km/h (3 Bft) O-NO 69 2 min 0,000 mm 0,0 UV-I 147 W/m -2,1 C -6,8 C 24,1 km/h (4 Bft) 100,00 %
05.02.2018 16:02 1,5 C 4,4 C 77 % 1022,0 hPa 0,0 l/m 18,7 km/h (3 Bft) O-NO 67 2 min 0,101 mm 0,0 UV-I 121 W/m -2,1 C -7,1 C 24,1 km/h (4 Bft) 91,49 %
05.02.2018 16:04 1,4 C 4,4 C 77 % 1021,9 hPa 0,0 l/m 16,0 km/h (3 Bft) O 80 2 min 0,000 mm 0,0 UV-I 98 W/m -2,2 C -5,8 C 20,9 km/h (4 Bft) 100,00 %
05.02.2018 16:06 1,4 C 4,4 C 77 % 1021,9 hPa 0,0 l/m 13,6 km/h (3 Bft) O-NO 59 2 min 0,000 mm 0,0 UV-I 110 W/m -2,2 C -4,4 C 17,7 km/h (3 Bft) 98,00 %
05.02.2018 16:08 1,4 C 4,4 C 78 % 1021,9 hPa 0,0 l/m 16,7 km/h (3 Bft) O 94 2 min 0,000 mm 0,0 UV-I 119 W/m -2,0 C -6,2 C 22,5 km/h (4 Bft) 100,00 %
05.02.2018 16:10 1,3 C 4,4 C 77 % 1021,9 hPa 0,0 l/m 18,8 km/h (3 Bft) O-NO 78 2 min 0,000 mm 0,0 UV-I 112 W/m -2,3 C -7,4 C 25,7 km/h (4 Bft) 100,00 %
05.02.2018 16:12 1,3 C 4,4 C 77 % 1021,8 hPa 0,0 l/m 22,9 km/h (4 Bft) NO 44 2 min 0,000 mm 0,0 UV-I 102 W/m -2,3 C -9,2 C 30,6 km/h (5 Bft) 100,00 %
05.02.2018 16:14 1,3 C 4,4 C 77 % 1021,8 hPa 0,0 l/m 18,7 km/h (3 Bft) O-NO 60 2 min 0,000 mm 0,0 UV-I 95 W/m -2,3 C -7,4 C 25,7 km/h (4 Bft) 98,00 %
05.02.2018 16:16 1,3 C 4,4 C 77 % 1021,7 hPa 0,0 l/m 16,9 km/h (3 Bft) O-NO 71 2 min 0,000 mm 0,0 UV-I 89 W/m -2,3 C -6,5 C 22,5 km/h (4 Bft) 97,87 %
05.02.2018 16:18 1,3 C 4,4 C 78 % 1021,7 hPa 0,0 l/m 17,9 km/h (3 Bft) O-NO 77 2 min 0,000 mm 0,0 UV-I 83 W/m -2,1 C -7,0 C 25,7 km/h (4 Bft) 100,00 %
05.02.2018 16:20 1,2 C 4,4 C 78 % 1021,7 hPa 0,0 l/m 16,8 km/h (3 Bft) O-NO 74 2 min 0,000 mm 0,0 UV-I 78 W/m -2,2 C -6,5 C 22,5 km/h (4 Bft) 100,00 %
05.02.2018 16:22 1,2 C 4,4 C 78 % 1021,7 hPa 0,0 l/m 17,6 km/h (3 Bft) O-NO 58 2 min 0,000 mm 0,0 UV-I 76 W/m -2,2 C -6,9 C 24,1 km/h (4 Bft) 95,74 %
05.02.2018 16:24 1,2 C 4,4 C 77 % 1021,7 hPa 0,0 l/m 17,3 km/h (3 Bft) NO 38 2 min 0,000 mm 0,0 UV-I 71 W/m -2,4 C -6,8 C 24,1 km/h (4 Bft) 97,92 %
05.02.2018 16:26 1,2 C 4,4 C 78 % 1021,7 hPa 0,0 l/m 17,3 km/h (3 Bft) NO 47 2 min 0,000 mm 0,0 UV-I 62 W/m -2,2 C -6,8 C 24,1 km/h (4 Bft) 100,00 %
05.02.2018 16:28 1,1 C 4,4 C 78 % 1021,7 hPa 0,0 l/m 16,7 km/h (3 Bft) NO 40 2 min 0,000 mm 0,0 UV-I 53 W/m -2,3 C -6,6 C 24,1 km/h (4 Bft) 100,00 %
05.02.2018 16:30 1,1 C 4,4 C 79 % 1021,7 hPa 0,0 l/m 14,4 km/h (3 Bft) O-NO 74 2 min 0,000 mm 0,0 UV-I 50 W/m -2,1 C -5,3 C 22,5 km/h (4 Bft) 100,00 %
05.02.2018 16:32 1,0 C 4,4 C 79 % 1021,7 hPa 0,0 l/m 13,2 km/h (3 Bft) O-NO 77 2 min 0,000 mm 0,0 UV-I 51 W/m -2,2 C -4,7 C 20,9 km/h (4 Bft) 100,00 %
05.02.2018 16:34 1,0 C 4,4 C 79 % 1021,7 hPa 0,0 l/m 11,3 km/h (2 Bft) O-NO 59 2 min 0,000 mm 0,0 UV-I 50 W/m -2,2 C -3,3 C 16,1 km/h (3 Bft) 100,00 %
05.02.2018 16:36 0,9 C 4,4 C 80 % 1021,7 hPa 0,0 l/m 9,7 km/h (2 Bft) O-NO 60 2 min 0,000 mm 0,0 UV-I 48 W/m -2,2 C -2,2 C 16,1 km/h (3 Bft) 100,00 %
05.02.2018 16:38 0,9 C 4,4 C 80 % 1021,7 hPa 0,0 l/m 13,0 km/h (3 Bft) O 84 2 min 0,000 mm 0,0 UV-I 45 W/m -2,2 C -4,6 C 17,7 km/h (3 Bft) 100,00 %
05.02.2018 16:40 0,9 C 4,4 C 80 % 1021,7 hPa 0,0 l/m 12,1 km/h (2 Bft) NO 55 2 min 0,000 mm 0,0 UV-I 40 W/m -2,2 C -4,0 C 17,7 km/h (3 Bft) 100,00 %
05.02.2018 16:42 0,9 C 4,4 C 80 % 1021,7 hPa 0,0 l/m 13,1 km/h (3 Bft) O 82 2 min 0,000 mm 0,0 UV-I 38 W/m -2,2 C -4,7 C 19,3 km/h (3 Bft) 100,00 %
05.02.2018 16:44 0,8 C 4,4 C 81 % 1021,7 hPa 0,0 l/m 12,2 km/h (2 Bft) O-NO 63 2 min 0,000 mm 0,0 UV-I 36 W/m -2,1 C -4,2 C 17,7 km/h (3 Bft) 100,00 %
05.02.2018 16:46 0,8 C 4,4 C 81 % 1021,8 hPa 0,0 l/m 12,3 km/h (3 Bft) O 83 2 min 0,000 mm 0,0 UV-I 34 W/m -2,1 C -4,3 C 19,3 km/h (3 Bft) 100,00 %
05.02.2018 16:48 0,8 C 4,4 C 81 % 1021,7 hPa 0,0 l/m 8,9 km/h (2 Bft) O 86 2 min 0,000 mm 0,0 UV-I 31 W/m -2,1 C -1,6 C 16,1 km/h (3 Bft) 98,00 %
05.02.2018 16:50 0,7 C 4,4 C 81 % 1021,7 hPa 0,0 l/m 11,6 km/h (2 Bft) O-NO 67 2 min 0,000 mm 0,0 UV-I 31 W/m -2,2 C -3,9 C 16,1 km/h (3 Bft) 100,00 %
05.02.2018 16:52 0,7 C 4,4 C 82 % 1021,7 hPa 0,0 l/m 12,7 km/h (3 Bft) O-NO 67 2 min 0,000 mm 0,0 UV-I 31 W/m -2,0 C -4,7 C 20,9 km/h (4 Bft) 100,00 %
05.02.2018 16:54 0,7 C 4,4 C 81 % 1021,7 hPa 0,0 l/m 14,7 km/h (3 Bft) O-NO 69 2 min 0,000 mm 0,0 UV-I 23 W/m -2,2 C -6,0 C 22,5 km/h (4 Bft) 98,00 %
05.02.2018 16:56 0,7 C 4,4 C 81 % 1021,7 hPa 0,0 l/m 16,2 km/h (3 Bft) O 80 2 min 0,000 mm 0,0 UV-I 20 W/m -2,2 C -6,8 C 24,1 km/h (4 Bft) 100,00 %
05.02.2018 16:58 0,7 C 4,4 C 81 % 1021,8 hPa 0,0 l/m 15,3 km/h (3 Bft) O 84 2 min 0,000 mm 0,0 UV-I 18 W/m -2,2 C -6,3 C 20,9 km/h (4 Bft) 98,00 %
05.02.2018 17:00 0,7 C 4,4 C 82 % 1021,8 hPa 0,0 l/m 11,5 km/h (2 Bft) O-NO 69 0 min 0,051 mm 0,0 UV-I 16 W/m -2,0 C -3,8 C 16,1 km/h (3 Bft) 100,00 %
05.02.2018 17:02 0,6 C 4,4 C 82 % 1021,7 hPa 0,0 l/m 11,7 km/h (2 Bft) O-NO 69 0 min 0,000 mm 0,0 UV-I 12 W/m -2,1 C -4,1 C 14,5 km/h (3 Bft) 97,87 %
05.02.2018 17:04 0,5 C 4,4 C 82 % 1021,7 hPa 0,0 l/m 13,1 km/h (3 Bft) O-NO 67 0 min 0,000 mm 0,0 UV-I 11 W/m -2,2 C -5,2 C 20,9 km/h (4 Bft) 100,00 %
05.02.2018 17:06 0,4 C 4,4 C 82 % 1021,7 hPa 0,0 l/m 13,7 km/h (3 Bft) O-NO 57 0 min 0,000 mm 0,0 UV-I 11 W/m -2,3 C -5,7 C 24,1 km/h (4 Bft) 100,00 %
05.02.2018 17:08 0,4 C 4,4 C 82 % 1021,7 hPa 0,0 l/m 17,4 km/h (3 Bft) O 84 0 min 0,000 mm 0,0 UV-I 11 W/m -2,3 C -7,8 C 22,5 km/h (4 Bft) 97,87 %
05.02.2018 17:10 0,4 C 4,4 C 82 % 1021,6 hPa 0,0 l/m 16,6 km/h (3 Bft) O 83 0 min 0,000 mm 0,0 UV-I 9 W/m -2,3 C -7,4 C 22,5 km/h (4 Bft) 100,00 %
05.02.2018 17:12 0,3 C 4,4 C 82 % 1021,7 hPa 0,0 l/m 14,7 km/h (3 Bft) O-NO 57 0 min 0,000 mm 0,0 UV-I 9 W/m -2,4 C -6,4 C 19,3 km/h (3 Bft) 100,00 %
05.02.2018 17:14 0,3 C 4,4 C 82 % 1021,7 hPa 0,0 l/m 17,3 km/h (3 Bft) NO 51 0 min 0,000 mm 0,0 UV-I 7 W/m -2,4 C -7,9 C 24,1 km/h (4 Bft) 100,00 %
05.02.2018 17:16 0,3 C 4,4 C 82 % 1021,7 hPa 0,0 l/m 16,4 km/h (3 Bft) O-NO 70 0 min 0,000 mm 0,0 UV-I 7 W/m -2,4 C -7,4 C 20,9 km/h (4 Bft) 100,00 %
05.02.2018 17:18 0,3 C 4,4 C 82 % 1021,8 hPa 0,0 l/m 15,6 km/h (3 Bft) O 83 0 min 0,000 mm 0,0 UV-I 6 W/m -2,4 C -7,0 C 20,9 km/h (4 Bft) 100,00 %
05.02.2018 17:20 0,2 C 4,4 C 83 % 1021,7 hPa 0,0 l/m 15,5 km/h (3 Bft) O 82 0 min 0,000 mm 0,0 UV-I 5 W/m -2,3 C -7,0 C 20,9 km/h (4 Bft) 98,00 %
05.02.2018 17:22 0,2 C 4,4 C 83 % 1021,7 hPa 0,0 l/m 15,0 km/h (3 Bft) NO 53 0 min 0,000 mm 0,0 UV-I 5 W/m -2,3 C -6,7 C 19,3 km/h (3 Bft) 100,00 %
05.02.2018 17:24 0,2 C 4,4 C 83 % 1021,7 hPa 0,0 l/m 13,1 km/h (3 Bft) O-NO 74 0 min 0,000 mm 0,0 UV-I 3 W/m -2,3 C -5,5 C 19,3 km/h (3 Bft) 100,00 %
05.02.2018 17:26 0,2 C 4,4 C 83 % 1021,8 hPa 0,0 l/m 12,2 km/h (2 Bft) NO 46 0 min 0,000 mm 0,0 UV-I 0 W/m -2,3 C -4,9 C 19,3 km/h (3 Bft) 97,87 %
05.02.2018 17:28 0,1 C 4,4 C 83 % 1021,8 hPa 0,0 l/m 16,0 km/h (3 Bft) O-NO 61 0 min 0,000 mm 0,0 UV-I 0 W/m -2,4 C -7,4 C 20,9 km/h (4 Bft) 97,87 %
05.02.2018 17:30 0,1 C 4,4 C 83 % 1021,8 hPa 0,0 l/m 15,8 km/h (3 Bft) O-NO 61 0 min 0,000 mm 0,0 UV-I 0 W/m -2,4 C -7,3 C 22,5 km/h (4 Bft) 98,00 %
05.02.2018 17:32 0,1 C 4,4 C 83 % 1021,8 hPa 0,0 l/m 14,8 km/h (3 Bft) O-NO 69 0 min 0,000 mm 0,0 UV-I 0 W/m -2,4 C -6,7 C 22,5 km/h (4 Bft) 97,87 %
05.02.2018 17:34 0,1 C 4,4 C 83 % 1021,8 hPa 0,0 l/m 13,3 km/h (3 Bft) O-NO 62 0 min 0,000 mm 0,0 UV-I 0 W/m -2,4 C -5,8 C 19,3 km/h (3 Bft) 100,00 %
05.02.2018 17:36 0,1 C 4,4 C 84 % 1021,8 hPa 0,0 l/m 12,8 km/h (3 Bft) O-NO 57 0 min 0,000 mm 0,0 UV-I 0 W/m -2,3 C -5,4 C 17,7 km/h (3 Bft) 100,00 %
05.02.2018 17:38 0,1 C 4,4 C 84 % 1021,8 hPa 0,0 l/m 13,4 km/h (3 Bft) O-NO 62 0 min 0,000 mm 0,0 UV-I 0 W/m -2,3 C -5,9 C 19,3 km/h (3 Bft) 97,87 %
05.02.2018 17:40 0,1 C 4,4 C 84 % 1021,8 hPa 0,0 l/m 13,7 km/h (3 Bft) NO 56 0 min 0,000 mm 0,0 UV-I 0 W/m -2,3 C -6,0 C 19,3 km/h (3 Bft) 97,87 %
05.02.2018 17:42 0,1 C 4,4 C 83 % 1021,8 hPa 0,0 l/m 11,3 km/h (2 Bft) NO 46 0 min 0,000 mm 0,0 UV-I 0 W/m -2,4 C -4,4 C 16,1 km/h (3 Bft) 95,74 %
05.02.2018 17:44 0,1 C 4,4 C 83 % 1021,8 hPa 0,0 l/m 13,7 km/h (3 Bft) O-NO 74 0 min 0,000 mm 0,0 UV-I 0 W/m -2,4 C -6,0 C 17,7 km/h (3 Bft) 97,22 %
05.02.2018 17:46 0,1 C 4,4 C 84 % 1021,8 hPa 0,0 l/m 14,1 km/h (3 Bft) O-NO 61 0 min 0,000 mm 0,0 UV-I 0 W/m -2,3 C -6,3 C 17,7 km/h (3 Bft) 98,44 %
05.02.2018 17:48 0,0 C 4,4 C 84 % 1021,8 hPa 0,0 l/m 14,0 km/h (3 Bft) NO 43 0 min 0,000 mm 0,0 UV-I 0 W/m -2,4 C -6,4 C 20,9 km/h (4 Bft) 95,74 %
05.02.2018 17:50 0,0 C 4,4 C 84 % 1021,8 hPa 0,0 l/m 16,8 km/h (3 Bft) NO 38 0 min 0,000 mm 0,0 UV-I 0 W/m -2,4 C -8,0 C 20,9 km/h (4 Bft) 98,00 %
05.02.2018 17:52 0,0 C 4,4 C 84 % 1021,8 hPa 0,0 l/m 11,3 km/h (2 Bft) O-NO 64 0 min 0,000 mm 0,0 UV-I 0 W/m -2,4 C -4,5 C 16,1 km/h (3 Bft) 97,30 %
05.02.2018 17:54 0,0 C 4,4 C 84 % 1021,8 hPa 0,0 l/m 14,7 km/h (3 Bft) O-NO 75 0 min 0,000 mm 0,0 UV-I 0 W/m -2,4 C -6,8 C 20,9 km/h (4 Bft) 97,87 %
05.02.2018 17:56 0,0 C 4,4 C 84 % 1021,7 hPa 0,0 l/m 15,8 km/h (3 Bft) O-NO 61 0 min 0,000 mm 0,0 UV-I 0 W/m -2,4 C -7,5 C 24,1 km/h (4 Bft) 93,62 %
05.02.2018 17:58 0,0 C 4,4 C 84 % 1021,8 hPa 0,0 l/m 15,7 km/h (3 Bft) O-NO 65 0 min 0,000 mm 0,0 UV-I 0 W/m -2,4 C -7,4 C 20,9 km/h (4 Bft) 95,74 %
05.02.2018 18:00 0,0 C 4,4 C 84 % 1021,8 hPa 0,0 l/m 13,5 km/h (3 Bft) NO 53 0 min 0,000 mm 0,0 UV-I 0 W/m -2,4 C -6,0 C 17,7 km/h (3 Bft) 95,74 %
05.02.2018 18:02 -0,1 C 4,4 C 84 % 1021,8 hPa 0,0 l/m 12,6 km/h (3 Bft) O-NO 63 0 min 0,025 mm 0,0 UV-I 0 W/m -2,5 C -5,5 C 16,1 km/h (3 Bft) 96,00 %
05.02.2018 18:04 0,0 C 4,4 C 84 % 1021,8 hPa 0,0 l/m 13,8 km/h (3 Bft) O-NO 61 0 min 0,000 mm 0,0 UV-I 0 W/m -2,4 C -6,2 C 19,3 km/h (3 Bft) 97,87 %
05.02.2018 18:06 0,0 C 4,4 C 83 % 1021,9 hPa 0,0 l/m 15,4 km/h (3 Bft) O-NO 65 0 min 0,000 mm 0,0 UV-I 0 W/m -2,5 C -7,2 C 20,9 km/h (4 Bft) 97,96 %
05.02.2018 18:08 0,0 C 4,4 C 83 % 1021,8 hPa 0,0 l/m 14,2 km/h (3 Bft) O 80 0 min 0,000 mm 0,0 UV-I 0 W/m -2,5 C -6,5 C 17,7 km/h (3 Bft) 97,87 %
05.02.2018 18:10 -0,1 C 4,4 C 83 % 1021,9 hPa 0,0 l/m 11,2 km/h (2 Bft) NO 47 0 min 0,000 mm 0,0 UV-I 0 W/m -2,6 C -4,5 C 16,1 km/h (3 Bft) 93,62 %
05.02.2018 18:12 0,0 C 4,4 C 83 % 1021,9 hPa 0,0 l/m 16,0 km/h (3 Bft) O-NO 66 0 min 0,000 mm 0,0 UV-I 0 W/m -2,5 C -7,6 C 22,5 km/h (4 Bft) 97,87 %
05.02.2018 18:14 0,0 C 4,4 C 83 % 1021,8 hPa 0,0 l/m 17,2 km/h (3 Bft) O-NO 62 0 min 0,000 mm 0,0 UV-I 0 W/m -2,5 C -8,2 C 24,1 km/h (4 Bft) 97,87 %
05.02.2018 18:16 -0,1 C 4,4 C 82 % 1021,8 hPa 0,0 l/m 14,6 km/h (3 Bft) O-NO 58 0 min 0,000 mm 0,0 UV-I 0 W/m -2,8 C -6,9 C 22,5 km/h (4 Bft) 100,00 %
05.02.2018 18:18 -0,1 C 4,4 C 83 % 1021,8 hPa 0,0 l/m 15,4 km/h (3 Bft) O-NO 64 0 min 0,000 mm 0,0 UV-I 0 W/m -2,6 C -7,3 C 20,9 km/h (4 Bft) 97,37 %
05.02.2018 18:20 -0,1 C 4,4 C 83 % 1021,8 hPa 0,0 l/m 14,3 km/h (3 Bft) O 80 0 min 0,000 mm 0,0 UV-I 0 W/m -2,6 C -6,7 C 20,9 km/h (4 Bft) 98,00 %
05.02.2018 18:22 -0,1 C 4,4 C 83 % 1021,8 hPa 0,0 l/m 13,5 km/h (3 Bft) O-NO 61 0 min 0,000 mm 0,0 UV-I 0 W/m -2,6 C -6,2 C 19,3 km/h (3 Bft) 95,74 %
05.02.2018 18:24 -0,1 C 4,4 C 83 % 1021,8 hPa 0,0 l/m 14,6 km/h (3 Bft) O-NO 68 0 min 0,000 mm 0,0 UV-I 0 W/m -2,6 C -6,9 C 19,3 km/h (3 Bft) 97,87 %
05.02.2018 18:26 -0,1 C 4,4 C 83 % 1021,8 hPa 0,0 l/m 16,1 km/h (3 Bft) O-NO 65 0 min 0,000 mm 0,0 UV-I 0 W/m -2,6 C -7,7 C 22,5 km/h (4 Bft) 95,83 %
05.02.2018 18:28 -0,1 C 4,4 C 83 % 1021,8 hPa 0,0 l/m 15,3 km/h (3 Bft) NO 47 0 min 0,000 mm 0,0 UV-I 0 W/m -2,6 C -7,3 C 20,9 km/h (4 Bft) 98,00 %
05.02.2018 18:30 -0,1 C 4,4 C 83 % 1021,8 hPa 0,0 l/m 12,2 km/h (2 Bft) O-NO 76 0 min 0,000 mm 0,0 UV-I 0 W/m -2,6 C -5,3 C 16,1 km/h (3 Bft) 97,87 %
05.02.2018 18:32 -0,1 C 4,4 C 83 % 1021,8 hPa 0,0 l/m 11,9 km/h (2 Bft) O-NO 67 0 min 0,000 mm 0,0 UV-I 0 W/m -2,6 C -5,0 C 22,5 km/h (4 Bft) 97,87 %
05.02.2018 18:34 -0,1 C 4,4 C 82 % 1021,8 hPa 0,0 l/m 16,3 km/h (3 Bft) O-NO 57 0 min 0,000 mm 0,0 UV-I 0 W/m -2,8 C -7,9 C 22,5 km/h (4 Bft) 88,57 %
05.02.2018 18:36 0,0 C 4,4 C 83 % 1021,8 hPa 0,0 l/m 14,6 km/h (3 Bft) O 82 0 min 0,000 mm 0,0 UV-I 0 W/m -2,5 C -6,7 C 20,9 km/h (4 Bft) 98,00 %
05.02.2018 18:38 0,0 C 4,4 C 82 % 1021,9 hPa 0,0 l/m 15,2 km/h (3 Bft) O-NO 63 0 min 0,000 mm 0,0 UV-I 0 W/m -2,7 C -7,1 C 22,5 km/h (4 Bft) 97,87 %
05.02.2018 18:40 0,0 C 4,4 C 82 % 1021,9 hPa 0,0 l/m 12,6 km/h (3 Bft) O-NO 61 0 min 0,000 mm 0,0 UV-I 0 W/m -2,7 C -5,4 C 17,7 km/h (3 Bft) 100,00 %
05.02.2018 18:42 0,0 C 4,4 C 82 % 1021,9 hPa 0,0 l/m 15,4 km/h (3 Bft) O-NO 66 0 min 0,000 mm 0,0 UV-I 0 W/m -2,7 C -7,2 C 20,9 km/h (4 Bft) 97,87 %
05.02.2018 18:44 0,1 C 4,4 C 82 % 1021,9 hPa 0,0 l/m 12,9 km/h (3 Bft) NO 56 0 min 0,000 mm 0,0 UV-I 0 W/m -2,6 C -5,5 C 17,7 km/h (3 Bft) 93,62 %
05.02.2018 18:46 0,1 C 4,4 C 82 % 1021,9 hPa 0,0 l/m 16,4 km/h (3 Bft) O-NO 62 0 min 0,000 mm 0,0 UV-I 0 W/m -2,6 C -7,7 C 22,5 km/h (4 Bft) 98,00 %
05.02.2018 18:48 0,1 C 4,4 C 82 % 1021,9 hPa 0,0 l/m 16,9 km/h (3 Bft) O-NO 73 0 min 0,000 mm 0,0 UV-I 0 W/m -2,6 C -7,9 C 25,7 km/h (4 Bft) 94,00 %
05.02.2018 18:50 0,1 C 4,4 C 82 % 1021,9 hPa 0,0 l/m 12,6 km/h (3 Bft) O-NO 64 0 min 0,000 mm 0,0 UV-I 0 W/m -2,6 C -5,3 C 20,9 km/h (4 Bft) 94,74 %
05.02.2018 18:52 0,1 C 4,4 C 82 % 1021,9 hPa 0,0 l/m 14,7 km/h (3 Bft) O-NO 65 0 min 0,000 mm 0,0 UV-I 0 W/m -2,6 C -6,7 C 20,9 km/h (4 Bft) 97,87 %
05.02.2018 18:54 0,1 C 4,4 C 82 % 1021,8 hPa 0,0 l/m 20,7 km/h (4 Bft) NO 49 0 min 0,000 mm 0,0 UV-I 0 W/m -2,6 C -9,8 C 29,0 km/h (5 Bft) 95,74 %
05.02.2018 18:56 0,1 C 4,4 C 81 % 1021,8 hPa 0,0 l/m 18,5 km/h (3 Bft) O 90 0 min 0,000 mm 0,0 UV-I 0 W/m -2,8 C -8,8 C 24,1 km/h (4 Bft) 98,11 %
05.02.2018 18:58 0,1 C 4,4 C 81 % 1021,9 hPa 0,0 l/m 18,7 km/h (3 Bft) O-NO 61 0 min 0,000 mm 0,0 UV-I 0 W/m -2,8 C -8,9 C 29,0 km/h (5 Bft) 95,74 %
05.02.2018 19:00 0,1 C 4,4 C 81 % 1021,9 hPa 0,0 l/m 20,5 km/h (4 Bft) NO 46 0 min 0,000 mm 0,0 UV-I 0 W/m -2,8 C -9,7 C 29,0 km/h (5 Bft) 97,87 %
05.02.2018 19:02 0,1 C 4,4 C 81 % 1021,9 hPa 0,0 l/m 19,2 km/h (3 Bft) O-NO 65 0 min 0,026 mm 0,0 UV-I 0 W/m -2,8 C -9,1 C 27,4 km/h (4 Bft) 94,00 %
05.02.2018 19:04 0,1 C 4,4 C 80 % 1021,9 hPa 0,0 l/m 20,9 km/h (4 Bft) O 86 0 min 0,000 mm 0,0 UV-I 0 W/m -2,9 C -9,9 C 29,0 km/h (5 Bft) 97,87 %
05.02.2018 19:06 0,1 C 4,4 C 81 % 1021,8 hPa 0,0 l/m 18,5 km/h (3 Bft) O-NO 71 0 min 0,000 mm 0,0 UV-I 0 W/m -2,8 C -8,8 C 30,6 km/h (5 Bft) 97,92 %
05.02.2018 19:08 0,1 C 4,4 C 81 % 1021,9 hPa 0,0 l/m 21,9 km/h (4 Bft) O-NO 59 0 min 0,000 mm 0,0 UV-I 0 W/m -2,8 C -10,3 C 29,0 km/h (5 Bft) 97,87 %
05.02.2018 19:10 0,1 C 4,4 C 81 % 1021,8 hPa 0,0 l/m 19,7 km/h (3 Bft) NO 53 0 min 0,000 mm 0,0 UV-I 0 W/m -2,8 C -9,4 C 29,0 km/h (5 Bft) 97,87 %
05.02.2018 19:12 0,1 C 4,4 C 80 % 1021,7 hPa 0,0 l/m 18,7 km/h (3 Bft) O 88 0 min 0,000 mm 0,0 UV-I 0 W/m -2,9 C -8,9 C 25,7 km/h (4 Bft) 97,87 %
05.02.2018 19:14 0,1 C 4,4 C 81 % 1021,7 hPa 0,0 l/m 19,4 km/h (3 Bft) O-NO 78 0 min 0,000 mm 0,0 UV-I 0 W/m -2,8 C -9,2 C 25,7 km/h (4 Bft) 97,87 %
05.02.2018 19:16 0,1 C 4,4 C 81 % 1021,7 hPa 0,0 l/m 19,2 km/h (3 Bft) O-NO 67 0 min 0,000 mm 0,0 UV-I 0 W/m -2,8 C -9,1 C 24,1 km/h (4 Bft) 97,37 %
05.02.2018 19:18 0,1 C 4,4 C 81 % 1021,7 hPa 0,0 l/m 15,4 km/h (3 Bft) O-NO 61 0 min 0,000 mm 0,0 UV-I 0 W/m -2,8 C -7,1 C 22,5 km/h (4 Bft) 95,74 %
05.02.2018 19:20 0,1 C 4,4 C 81 % 1021,7 hPa 0,0 l/m 18,6 km/h (3 Bft) O-NO 62 0 min 0,000 mm 0,0 UV-I 0 W/m -2,8 C -8,8 C 25,7 km/h (4 Bft) 98,00 %
05.02.2018 19:22 0,1 C 4,4 C 80 % 1021,7 hPa 0,0 l/m 21,0 km/h (4 Bft) O-NO 68 0 min 0,000 mm 0,0 UV-I 0 W/m -2,9 C -10,0 C 29,0 km/h (5 Bft) 97,87 %
05.02.2018 19:24 0,1 C 4,4 C 80 % 1021,7 hPa 0,0 l/m 21,9 km/h (4 Bft) O-NO 71 0 min 0,000 mm 0,0 UV-I 0 W/m -2,9 C -10,3 C 27,4 km/h (4 Bft) 97,87 %
05.02.2018 19:26 0,1 C 4,4 C 80 % 1021,7 hPa 0,0 l/m 19,3 km/h (3 Bft) O-NO 68 0 min 0,000 mm 0,0 UV-I 0 W/m -2,9 C -9,2 C 29,0 km/h (5 Bft) 93,62 %
05.02.2018 19:28 0,1 C 4,4 C 80 % 1021,7 hPa 0,0 l/m 18,7 km/h (3 Bft) O-NO 59 0 min 0,000 mm 0,0 UV-I 0 W/m -2,9 C -8,9 C 27,4 km/h (4 Bft) 97,87 %
05.02.2018 19:30 0,1 C 4,4 C 80 % 1021,6 hPa 0,0 l/m 18,9 km/h (3 Bft) O 89 0 min 0,000 mm 0,0 UV-I 0 W/m -2,9 C -9,0 C 24,1 km/h (4 Bft) 97,87 %
05.02.2018 19:32 0,1 C 4,4 C 80 % 1021,7 hPa 0,0 l/m 20,4 km/h (4 Bft) O-NO 67 0 min 0,000 mm 0,0 UV-I 0 W/m -2,9 C -9,7 C 24,1 km/h (4 Bft) 97,87 %
05.02.2018 19:34 0,1 C 4,4 C 80 % 1021,6 hPa 0,0 l/m 19,5 km/h (3 Bft) O-NO 69 0 min 0,000 mm 0,0 UV-I 0 W/m -2,9 C -9,3 C 24,1 km/h (4 Bft) 100,00 %
05.02.2018 19:36 0,1 C 4,4 C 80 % 1021,6 hPa 0,0 l/m 19,5 km/h (3 Bft) NO 55 0 min 0,000 mm 0,0 UV-I 0 W/m -2,9 C -9,3 C 25,7 km/h (4 Bft) 97,87 %
05.02.2018 19:38 0,1 C 4,4 C 80 % 1021,6 hPa 0,0 l/m 15,6 km/h (3 Bft) NO 44 0 min 0,000 mm 0,0 UV-I 0 W/m -2,9 C -7,2 C 22,5 km/h (4 Bft) 100,00 %
05.02.2018 19:40 0,1 C 4,4 C 80 % 1021,6 hPa 0,0 l/m 17,5 km/h (3 Bft) O-NO 75 0 min 0,000 mm 0,0 UV-I 0 W/m -2,9 C -8,3 C 25,7 km/h (4 Bft) 100,00 %
05.02.2018 19:42 0,1 C 4,4 C 80 % 1021,6 hPa 0,0 l/m 16,7 km/h (3 Bft) NO 55 0 min 0,000 mm 0,0 UV-I 0 W/m -2,9 C -7,8 C 24,1 km/h (4 Bft) 97,87 %
05.02.2018 19:44 0,1 C 4,4 C 79 % 1021,6 hPa 0,0 l/m 17,5 km/h (3 Bft) O-NO 70 0 min 0,000 mm 0,0 UV-I 0 W/m -3,1 C -8,3 C 24,1 km/h (4 Bft) 100,00 %
05.02.2018 19:46 0,1 C 4,4 C 80 % 1021,6 hPa 0,0 l/m 15,3 km/h (3 Bft) O-NO 76 0 min 0,000 mm 0,0 UV-I 0 W/m -2,9 C -7,0 C 20,9 km/h (4 Bft) 96,23 %
05.02.2018 19:48 0,1 C 4,4 C 80 % 1021,6 hPa 0,0 l/m 12,7 km/h (3 Bft) O-NO 71 0 min 0,000 mm 0,0 UV-I 0 W/m -2,9 C -5,4 C 19,3 km/h (3 Bft) 97,87 %
05.02.2018 19:50 0,1 C 4,4 C 80 % 1021,6 hPa 0,0 l/m 16,6 km/h (3 Bft) O-NO 62 0 min 0,000 mm 0,0 UV-I 0 W/m -2,9 C -7,8 C 22,5 km/h (4 Bft) 98,00 %
05.02.2018 19:52 0,1 C 4,4 C 80 % 1021,5 hPa 0,0 l/m 17,9 km/h (3 Bft) NO 53 0 min 0,000 mm 0,0 UV-I 0 W/m -2,9 C -8,5 C 24,1 km/h (4 Bft) 97,87 %
05.02.2018 19:54 0,1 C 4,4 C 80 % 1021,6 hPa 0,0 l/m 20,1 km/h (4 Bft) O-NO 61 0 min 0,000 mm 0,0 UV-I 0 W/m -2,9 C -9,5 C 27,4 km/h (4 Bft) 95,74 %
05.02.2018 19:56 0,1 C 4,4 C 80 % 1021,6 hPa 0,0 l/m 15,9 km/h (3 Bft) O-NO 61 0 min 0,000 mm 0,0 UV-I 0 W/m -2,9 C -7,4 C 20,9 km/h (4 Bft) 97,87 %
05.02.2018 19:58 0,0 C 4,4 C 79 % 1021,6 hPa 0,0 l/m 17,2 km/h (3 Bft) O-NO 64 0 min 0,000 mm 0,0 UV-I 0 W/m -3,2 C -8,2 C 24,1 km/h (4 Bft) 97,87 %
05.02.2018 20:00 0,0 C 4,4 C 79 % 1021,7 hPa 0,0 l/m 17,9 km/h (3 Bft) O-NO 60 0 min 0,025 mm 0,0 UV-I 0 W/m -3,2 C -8,6 C 25,7 km/h (4 Bft) 97,87 %
05.02.2018 20:02 0,0 C 4,4 C 79 % 1021,6 hPa 0,0 l/m 21,7 km/h (4 Bft) O-NO 65 0 min 0,000 mm 0,0 UV-I 0 W/m -3,2 C -10,4 C 29,0 km/h (5 Bft) 97,87 %
05.02.2018 20:04 0,1 C 4,4 C 79 % 1021,6 hPa 0,0 l/m 21,0 km/h (4 Bft) NO 55 0 min 0,000 mm 0,0 UV-I 0 W/m -3,1 C -10,0 C 27,4 km/h (4 Bft) 97,37 %
05.02.2018 20:06 0,0 C 4,4 C 79 % 1021,6 hPa 0,0 l/m 17,5 km/h (3 Bft) NO 40 0 min 0,000 mm 0,0 UV-I 0 W/m -3,2 C -8,4 C 25,7 km/h (4 Bft) 95,74 %
05.02.2018 20:08 0,0 C 4,4 C 80 % 1021,6 hPa 0,0 l/m 19,1 km/h (3 Bft) O-NO 75 0 min 0,000 mm 0,0 UV-I 0 W/m -3,0 C -9,2 C 24,1 km/h (4 Bft) 97,87 %
05.02.2018 20:10 0,0 C 4,4 C 80 % 1021,6 hPa 0,0 l/m 15,8 km/h (3 Bft) NO 56 0 min 0,000 mm 0,0 UV-I 0 W/m -3,0 C -7,5 C 24,1 km/h (4 Bft) 98,00 %
05.02.2018 20:12 -0,1 C 4,4 C 79 % 1021,6 hPa 0,0 l/m 17,4 km/h (3 Bft) O-NO 57 0 min 0,000 mm 0,0 UV-I 0 W/m -3,3 C -8,5 C 22,5 km/h (4 Bft) 96,00 %
05.02.2018 20:14 -0,1 C 4,4 C 79 % 1021,6 hPa 0,0 l/m 18,0 km/h (3 Bft) O-NO 73 0 min 0,000 mm 0,0 UV-I 0 W/m -3,3 C -8,8 C 25,7 km/h (4 Bft) 97,87 %
05.02.2018 20:16 -0,1 C 4,4 C 78 % 1021,6 hPa 0,0 l/m 21,6 km/h (4 Bft) O-NO 69 0 min 0,000 mm 0,0 UV-I 0 W/m -3,5 C -10,5 C 27,4 km/h (4 Bft) 93,62 %
05.02.2018 20:18 -0,1 C 4,4 C 78 % 1021,6 hPa 0,0 l/m 20,6 km/h (4 Bft) O-NO 74 0 min 0,000 mm 0,0 UV-I 0 W/m -3,5 C -10,0 C 29,0 km/h (5 Bft) 97,44 %
05.02.2018 20:20 0,0 C 4,4 C 78 % 1021,6 hPa 0,0 l/m 20,7 km/h (4 Bft) O-NO 59 0 min 0,000 mm 0,0 UV-I 0 W/m -3,4 C -10,0 C 27,4 km/h (4 Bft) 100,00 %
05.02.2018 20:22 -0,1 C 4,4 C 77 % 1021,6 hPa 0,0 l/m 23,5 km/h (4 Bft) O-NO 60 0 min 0,000 mm 0,0 UV-I 0 W/m -3,6 C -11,3 C 32,2 km/h (5 Bft) 100,00 %
05.02.2018 20:24 -0,1 C 4,4 C 77 % 1021,6 hPa 0,0 l/m 16,8 km/h (3 Bft) O-NO 76 0 min 0,000 mm 0,0 UV-I 0 W/m -3,6 C -8,1 C 20,9 km/h (4 Bft) 100,00 %
05.02.2018 20:26 -0,1 C 4,4 C 78 % 1021,6 hPa 0,0 l/m 19,9 km/h (4 Bft) NO 51 0 min 0,000 mm 0,0 UV-I 0 W/m -3,5 C -9,7 C 27,4 km/h (4 Bft) 97,87 %
05.02.2018 20:28 -0,1 C 4,4 C 78 % 1021,6 hPa 0,0 l/m 22,7 km/h (4 Bft) NO 50 0 min 0,000 mm 0,0 UV-I 0 W/m -3,5 C -10,9 C 33,8 km/h (5 Bft) 100,00 %
05.02.2018 20:30 -0,1 C 4,4 C 78 % 1021,6 hPa 0,0 l/m 19,3 km/h (3 Bft) NO 44 0 min 0,000 mm 0,0 UV-I 0 W/m -3,5 C -9,4 C 24,1 km/h (4 Bft) 97,87 %
05.02.2018 20:32 -0,1 C 4,4 C 77 % 1021,5 hPa 0,0 l/m 22,0 km/h (4 Bft) O-NO 57 0 min 0,000 mm 0,0 UV-I 0 W/m -3,6 C -10,7 C 27,4 km/h (4 Bft) 100,00 %
05.02.2018 20:34 -0,1 C 4,4 C 77 % 1021,5 hPa 0,0 l/m 20,9 km/h (4 Bft) O-NO 62 0 min 0,000 mm 0,0 UV-I 0 W/m -3,6 C -10,2 C 27,4 km/h (4 Bft) 100,00 %
05.02.2018 20:36 -0,1 C 4,4 C 77 % 1021,5 hPa 0,0 l/m 20,5 km/h (4 Bft) O-NO 73 0 min 0,000 mm 0,0 UV-I 0 W/m -3,6 C -10,0 C 27,4 km/h (4 Bft) 100,00 %
05.02.2018 20:38 -0,1 C 4,4 C 77 % 1021,5 hPa 0,0 l/m 19,3 km/h (3 Bft) NO 46 0 min 0,000 mm 0,0 UV-I 0 W/m -3,6 C -9,4 C 25,7 km/h (4 Bft) 100,00 %
05.02.2018 20:40 -0,1 C 4,4 C 76 % 1021,5 hPa 0,0 l/m 22,7 km/h (4 Bft) NO 55 0 min 0,000 mm 0,0 UV-I 0 W/m -3,8 C -10,9 C 29,0 km/h (5 Bft) 97,87 %
05.02.2018 20:42 -0,1 C 4,4 C 76 % 1021,4 hPa 0,0 l/m 21,2 km/h (4 Bft) O-NO 58 0 min 0,000 mm 0,0 UV-I 0 W/m -3,8 C -10,3 C 30,6 km/h (5 Bft) 97,87 %
05.02.2018 20:44 -0,1 C 4,4 C 76 % 1021,4 hPa 0,0 l/m 20,5 km/h (4 Bft) NO 53 0 min 0,000 mm 0,0 UV-I 0 W/m -3,8 C -10,0 C 29,0 km/h (5 Bft) 95,74 %
05.02.2018 20:46 -0,1 C 4,4 C 76 % 1021,4 hPa 0,0 l/m 24,9 km/h (4 Bft) O-NO 71 0 min 0,000 mm 0,0 UV-I 0 W/m -3,8 C -11,8 C 30,6 km/h (5 Bft) 100,00 %
05.02.2018 20:48 -0,1 C 4,4 C 75 % 1021,5 hPa 0,0 l/m 22,2 km/h (4 Bft) O-NO 59 0 min 0,000 mm 0,0 UV-I 0 W/m -4,0 C -10,7 C 33,8 km/h (5 Bft) 100,00 %
05.02.2018 20:50 -0,1 C 4,4 C 75 % 1021,5 hPa 0,0 l/m 25,6 km/h (4 Bft) O-NO 58 0 min 0,000 mm 0,0 UV-I 0 W/m -4,0 C -12,1 C 35,4 km/h (5 Bft) 100,00 %
05.02.2018 20:52 -0,1 C 4,4 C 75 % 1021,4 hPa 0,0 l/m 24,1 km/h (4 Bft) NO 53 0 min 0,000 mm 0,0 UV-I 0 W/m -4,0 C -11,5 C 33,8 km/h (5 Bft) 100,00 %
05.02.2018 20:54 -0,1 C 4,4 C 76 % 1021,4 hPa 0,0 l/m 21,8 km/h (4 Bft) O-NO 74 0 min 0,000 mm 0,0 UV-I 0 W/m -3,8 C -10,6 C 29,0 km/h (5 Bft) 100,00 %
05.02.2018 20:56 -0,1 C 4,4 C 75 % 1021,4 hPa 0,0 l/m 23,3 km/h (4 Bft) O-NO 65 0 min 0,000 mm 0,0 UV-I 0 W/m -4,0 C -11,2 C 32,2 km/h (5 Bft) 97,87 %
05.02.2018 20:58 -0,1 C 4,4 C 75 % 1021,4 hPa 0,0 l/m 22,9 km/h (4 Bft) NO 55 0 min 0,000 mm 0,0 UV-I 0 W/m -4,0 C -11,0 C 30,6 km/h (5 Bft) 97,87 %
05.02.2018 21:00 -0,1 C 4,4 C 75 % 1021,4 hPa 0,0 l/m 22,0 km/h (4 Bft) O-NO 65 0 min 0,026 mm 0,0 UV-I 0 W/m -4,0 C -10,7 C 29,0 km/h (5 Bft) 97,92 %
05.02.2018 21:02 -0,1 C 4,4 C 76 % 1021,4 hPa 0,0 l/m 23,0 km/h (4 Bft) NO 56 0 min 0,000 mm 0,0 UV-I 0 W/m -3,8 C -11,1 C 30,6 km/h (5 Bft) 94,74 %
05.02.2018 21:04 -0,1 C 4,4 C 75 % 1021,4 hPa 0,0 l/m 19,9 km/h (4 Bft) O-NO 78 0 min 0,000 mm 0,0 UV-I 0 W/m -4,0 C -9,7 C 27,4 km/h (4 Bft) 100,00 %
05.02.2018 21:06 -0,1 C 4,4 C 76 % 1021,3 hPa 0,0 l/m 21,3 km/h (4 Bft) O-NO 57 0 min 0,000 mm 0,0 UV-I 0 W/m -3,8 C -10,4 C 29,0 km/h (5 Bft) 100,00 %
05.02.2018 21:08 -0,1 C 4,4 C 75 % 1021,3 hPa 0,0 l/m 22,7 km/h (4 Bft) O-NO 69 0 min 0,000 mm 0,0 UV-I 0 W/m -4,0 C -10,9 C 32,2 km/h (5 Bft) 97,87 %
05.02.2018 21:10 -0,1 C 4,4 C 75 % 1021,3 hPa 0,0 l/m 22,7 km/h (4 Bft) O-NO 59 0 min 0,000 mm 0,0 UV-I 0 W/m -4,0 C -10,9 C 29,0 km/h (5 Bft) 100,00 %
05.02.2018 21:12 -0,1 C 4,4 C 75 % 1021,2 hPa 0,0 l/m 21,9 km/h (4 Bft) O-NO 76 0 min 0,000 mm 0,0 UV-I 0 W/m -4,0 C -10,6 C 29,0 km/h (5 Bft) 97,87 %
05.02.2018 21:14 -0,2 C 4,4 C 76 % 1021,2 hPa 0,0 l/m 21,4 km/h (4 Bft) O-NO 69 0 min 0,000 mm 0,0 UV-I 0 W/m -3,9 C -10,5 C 27,4 km/h (4 Bft) 100,00 %
05.02.2018 21:16 -0,2 C 4,4 C 76 % 1021,3 hPa 0,0 l/m 20,3 km/h (4 Bft) O-NO 65 0 min 0,000 mm 0,0 UV-I 0 W/m -3,9 C -10,0 C 29,0 km/h (5 Bft) 100,00 %
05.02.2018 21:18 -0,2 C 4,4 C 76 % 1021,3 hPa 0,0 l/m 21,0 km/h (4 Bft) O-NO 67 0 min 0,000 mm 0,0 UV-I 0 W/m -3,9 C -10,3 C 27,4 km/h (4 Bft) 100,00 %
05.02.2018 21:20 -0,2 C 4,4 C 76 % 1021,3 hPa 0,0 l/m 26,1 km/h (4 Bft) O-NO 74 0 min 0,000 mm 0,0 UV-I 0 W/m -3,9 C -12,4 C 35,4 km/h (5 Bft) 100,00 %
05.02.2018 21:22 -0,2 C 4,4 C 76 % 1021,3 hPa 0,0 l/m 21,8 km/h (4 Bft) O-NO 65 0 min 0,000 mm 0,0 UV-I 0 W/m -3,9 C -10,7 C 29,0 km/h (5 Bft) 97,87 %
05.02.2018 21:24 -0,2 C 4,4 C 76 % 1021,2 hPa 0,0 l/m 22,8 km/h (4 Bft) O-NO 73 0 min 0,000 mm 0,0 UV-I 0 W/m -3,9 C -11,1 C 30,6 km/h (5 Bft) 100,00 %
05.02.2018 21:26 -0,2 C 4,4 C 76 % 1021,2 hPa 0,0 l/m 21,7 km/h (4 Bft) O-NO 71 0 min 0,000 mm 0,0 UV-I 0 W/m -3,9 C -10,7 C 25,7 km/h (4 Bft) 98,00 %
05.02.2018 21:28 -0,2 C 4,4 C 76 % 1021,2 hPa 0,0 l/m 20,3 km/h (4 Bft) O-NO 64 0 min 0,000 mm 0,0 UV-I 0 W/m -3,9 C -10,0 C 24,1 km/h (4 Bft) 100,00 %
05.02.2018 21:30 -0,2 C 4,4 C 76 % 1021,2 hPa 0,0 l/m 20,1 km/h (4 Bft) O 90 0 min 0,000 mm 0,0 UV-I 0 W/m -3,9 C -9,9 C 25,7 km/h (4 Bft) 97,87 %
05.02.2018 21:32 -0,2 C 4,4 C 76 % 1021,2 hPa 0,0 l/m 20,6 km/h (4 Bft) NO 46 0 min 0,000 mm 0,0 UV-I 0 W/m -3,9 C -10,2 C 30,6 km/h (5 Bft) 100,00 %
05.02.2018 21:34 -0,2 C 4,4 C 77 % 1021,3 hPa 0,0 l/m 16,3 km/h (3 Bft) NO 52 0 min 0,000 mm 0,0 UV-I 0 W/m -3,7 C -8,0 C 22,5 km/h (4 Bft) 100,00 %
05.02.2018 21:36 -0,2 C 4,4 C 76 % 1021,2 hPa 0,0 l/m 16,8 km/h (3 Bft) O 79 0 min 0,000 mm 0,0 UV-I 0 W/m -3,9 C -8,3 C 27,4 km/h (4 Bft) 97,87 %
05.02.2018 21:38 -0,2 C 4,4 C 78 % 1021,2 hPa 0,0 l/m 16,3 km/h (3 Bft) NO 55 0 min 0,000 mm 0,0 UV-I 0 W/m -3,6 C -8,0 C 20,9 km/h (4 Bft) 100,00 %
05.02.2018 21:40 -0,2 C 4,4 C 78 % 1021,2 hPa 0,0 l/m 16,6 km/h (3 Bft) O-NO 64 0 min 0,000 mm 0,0 UV-I 0 W/m -3,6 C -8,2 C 24,1 km/h (4 Bft) 100,00 %
05.02.2018 21:42 -0,2 C 4,4 C 77 % 1021,2 hPa 0,0 l/m 18,5 km/h (3 Bft) O-NO 65 0 min 0,000 mm 0,0 UV-I 0 W/m -3,7 C -9,2 C 25,7 km/h (4 Bft) 100,00 %
05.02.2018 21:44 -0,2 C 4,4 C 77 % 1021,2 hPa 0,0 l/m 21,3 km/h (4 Bft) NO 55 0 min 0,000 mm 0,0 UV-I 0 W/m -3,7 C -10,5 C 29,0 km/h (5 Bft) 97,87 %
05.02.2018 21:46 -0,2 C 4,4 C 78 % 1021,2 hPa 0,0 l/m 17,3 km/h (3 Bft) O-NO 67 0 min 0,000 mm 0,0 UV-I 0 W/m -3,6 C -8,5 C 24,1 km/h (4 Bft) 100,00 %
05.02.2018 21:48 -0,3 C 4,4 C 78 % 1021,2 hPa 0,0 l/m 16,8 km/h (3 Bft) O 80 0 min 0,000 mm 0,0 UV-I 0 W/m -3,7 C -8,4 C 24,1 km/h (4 Bft) 97,87 %
05.02.2018 21:50 -0,3 C 4,4 C 78 % 1021,1 hPa 0,0 l/m 17,7 km/h (3 Bft) O-NO 65 0 min 0,000 mm 0,0 UV-I 0 W/m -3,7 C -8,9 C 24,1 km/h (4 Bft) 92,00 %
05.02.2018 21:52 -0,3 C 4,4 C 78 % 1021,1 hPa 0,0 l/m 18,1 km/h (3 Bft) O-NO 71 0 min 0,000 mm 0,0 UV-I 0 W/m -3,7 C -9,1 C 24,1 km/h (4 Bft) 95,74 %
05.02.2018 21:54 -0,3 C 4,4 C 78 % 1021,1 hPa 0,0 l/m 16,8 km/h (3 Bft) O-NO 61 0 min 0,000 mm 0,0 UV-I 0 W/m -3,7 C -8,4 C 22,5 km/h (4 Bft) 95,74 %
05.02.2018 21:56 -0,3 C 4,4 C 78 % 1021,1 hPa 0,0 l/m 15,7 km/h (3 Bft) O-NO 58 0 min 0,000 mm 0,0 UV-I 0 W/m -3,7 C -7,8 C 24,1 km/h (4 Bft) 91,49 %
05.02.2018 21:58 -0,3 C 4,4 C 78 % 1021,2 hPa 0,0 l/m 20,7 km/h (4 Bft) O 96 0 min 0,000 mm 0,0 UV-I 0 W/m -3,7 C -10,3 C 29,0 km/h (5 Bft) 97,87 %
05.02.2018 22:00 -0,3 C 4,4 C 78 % 1021,1 hPa 0,0 l/m 18,6 km/h (3 Bft) NO 35 0 min 0,000 mm 0,0 UV-I 0 W/m -3,7 C -9,3 C 24,1 km/h (4 Bft) 97,14 %
05.02.2018 22:02 -0,3 C 4,4 C 78 % 1021,1 hPa 0,0 l/m 19,6 km/h (3 Bft) O-NO 78 0 min 0,025 mm 0,0 UV-I 0 W/m -3,7 C -9,8 C 24,1 km/h (4 Bft) 97,87 %
05.02.2018 22:04 -0,3 C 4,4 C 78 % 1021,1 hPa 0,0 l/m 15,9 km/h (3 Bft) O-NO 61 0 min 0,000 mm 0,0 UV-I 0 W/m -3,7 C -7,9 C 20,9 km/h (4 Bft) 97,87 %
05.02.2018 22:06 -0,3 C 4,4 C 78 % 1021,1 hPa 0,0 l/m 14,1 km/h (3 Bft) NO 40 0 min 0,000 mm 0,0 UV-I 0 W/m -3,7 C -6,8 C 19,3 km/h (3 Bft) 97,87 %
05.02.2018 22:08 -0,3 C 4,4 C 78 % 1021,1 hPa 0,0 l/m 18,3 km/h (3 Bft) O-NO 60 0 min 0,000 mm 0,0 UV-I 0 W/m -3,7 C -9,2 C 24,1 km/h (4 Bft) 97,87 %
05.02.2018 22:10 -0,3 C 4,4 C 78 % 1021,1 hPa 0,0 l/m 21,8 km/h (4 Bft) O 90 0 min 0,000 mm 0,0 UV-I 0 W/m -3,7 C -10,8 C 27,4 km/h (4 Bft) 97,87 %
05.02.2018 22:12 -0,3 C 4,4 C 78 % 1021,1 hPa 0,0 l/m 21,3 km/h (4 Bft) NO 44 0 min 0,000 mm 0,0 UV-I 0 W/m -3,7 C -10,6 C 30,6 km/h (5 Bft) 93,88 %
05.02.2018 22:14 -0,3 C 4,4 C 78 % 1021,0 hPa 0,0 l/m 20,0 km/h (4 Bft) O-NO 77 0 min 0,000 mm 0,0 UV-I 0 W/m -3,7 C -10,0 C 29,0 km/h (5 Bft) 93,62 %
05.02.2018 22:16 -0,3 C 4,4 C 78 % 1021,0 hPa 0,0 l/m 16,7 km/h (3 Bft) NO 43 0 min 0,000 mm 0,0 UV-I 0 W/m -3,7 C -8,3 C 22,5 km/h (4 Bft) 95,74 %
05.02.2018 22:18 -0,3 C 4,4 C 78 % 1020,9 hPa 0,0 l/m 18,3 km/h (3 Bft) NO 53 0 min 0,000 mm 0,0 UV-I 0 W/m -3,7 C -9,2 C 25,7 km/h (4 Bft) 94,00 %
05.02.2018 22:20 -0,3 C 4,4 C 78 % 1021,0 hPa 0,0 l/m 20,6 km/h (4 Bft) O-NO 73 0 min 0,000 mm 0,0 UV-I 0 W/m -3,7 C -10,3 C 27,4 km/h (4 Bft) 95,74 %
05.02.2018 22:22 -0,3 C 4,4 C 78 % 1020,9 hPa 0,0 l/m 19,9 km/h (4 Bft) O-NO 72 0 min 0,000 mm 0,0 UV-I 0 W/m -3,7 C -10,0 C 25,7 km/h (4 Bft) 97,87 %
05.02.2018 22:24 -0,3 C 4,4 C 78 % 1020,9 hPa 0,0 l/m 20,3 km/h (4 Bft) NO 47 0 min 0,000 mm 0,0 UV-I 0 W/m -3,7 C -10,2 C 25,7 km/h (4 Bft) 100,00 %
05.02.2018 22:26 -0,3 C 4,4 C 78 % 1020,9 hPa 0,0 l/m 19,4 km/h (3 Bft) O-NO 62 0 min 0,000 mm 0,0 UV-I 0 W/m -3,7 C -9,7 C 25,7 km/h (4 Bft) 100,00 %
05.02.2018 22:28 -0,3 C 4,4 C 78 % 1020,9 hPa 0,0 l/m 16,9 km/h (3 Bft) O-NO 78 0 min 0,000 mm 0,0 UV-I 0 W/m -3,7 C -8,4 C 22,5 km/h (4 Bft) 95,74 %
05.02.2018 22:30 -0,3 C 4,4 C 78 % 1020,8 hPa 0,0 l/m 21,2 km/h (4 Bft) O-NO 71 0 min 0,000 mm 0,0 UV-I 0 W/m -3,7 C -10,6 C 30,6 km/h (5 Bft) 100,00 %
05.02.2018 22:32 -0,3 C 4,4 C 78 % 1020,8 hPa 0,0 l/m 18,6 km/h (3 Bft) O-NO 74 0 min 0,000 mm 0,0 UV-I 0 W/m -3,7 C -9,3 C 27,4 km/h (4 Bft) 98,00 %
05.02.2018 22:34 -0,3 C 4,4 C 78 % 1020,7 hPa 0,0 l/m 22,0 km/h (4 Bft) O-NO 78 0 min 0,000 mm 0,0 UV-I 0 W/m -3,7 C -10,9 C 30,6 km/h (5 Bft) 95,74 %
05.02.2018 22:36 -0,3 C 4,4 C 78 % 1020,7 hPa 0,0 l/m 16,2 km/h (3 Bft) O-NO 59 0 min 0,000 mm 0,0 UV-I 0 W/m -3,7 C -8,1 C 22,5 km/h (4 Bft) 97,87 %
05.02.2018 22:38 -0,3 C 4,4 C 78 % 1020,7 hPa 0,0 l/m 19,1 km/h (3 Bft) NO 42 0 min 0,000 mm 0,0 UV-I 0 W/m -3,7 C -9,6 C 30,6 km/h (5 Bft) 97,87 %
05.02.2018 22:40 -0,3 C 4,4 C 78 % 1020,8 hPa 0,0 l/m 17,5 km/h (3 Bft) O-NO 71 0 min 0,000 mm 0,0 UV-I 0 W/m -3,7 C -8,8 C 24,1 km/h (4 Bft) 97,14 %
05.02.2018 22:42 -0,4 C 4,4 C 78 % 1020,8 hPa 0,0 l/m 20,1 km/h (4 Bft) O 91 0 min 0,000 mm 0,0 UV-I 0 W/m -3,8 C -10,2 C 29,0 km/h (5 Bft) 97,96 %
05.02.2018 22:44 -0,4 C 4,4 C 78 % 1020,7 hPa 0,0 l/m 18,5 km/h (3 Bft) O 86 0 min 0,000 mm 0,0 UV-I 0 W/m -3,8 C -9,4 C 25,7 km/h (4 Bft) 96,00 %
05.02.2018 22:46 -0,4 C 4,4 C 78 % 1020,7 hPa 0,0 l/m 19,6 km/h (3 Bft) O-NO 67 0 min 0,000 mm 0,0 UV-I 0 W/m -3,8 C -10,0 C 24,1 km/h (4 Bft) 95,74 %
05.02.2018 22:48 -0,4 C 4,4 C 79 % 1020,7 hPa 0,0 l/m 15,2 km/h (3 Bft) NO 55 0 min 0,000 mm 0,0 UV-I 0 W/m -3,6 C -7,6 C 20,9 km/h (4 Bft) 98,00 %
05.02.2018 22:50 -0,4 C 4,4 C 79 % 1020,6 hPa 0,0 l/m 18,3 km/h (3 Bft) O-NO 66 0 min 0,000 mm 0,0 UV-I 0 W/m -3,6 C -9,3 C 24,1 km/h (4 Bft) 97,87 %
05.02.2018 22:52 -0,4 C 4,4 C 79 % 1020,7 hPa 0,0 l/m 17,2 km/h (3 Bft) O-NO 65 0 min 0,000 mm 0,0 UV-I 0 W/m -3,6 C -8,7 C 22,5 km/h (4 Bft) 97,44 %
05.02.2018 22:54 -0,4 C 4,4 C 79 % 1020,6 hPa 0,0 l/m 19,0 km/h (3 Bft) O-NO 57 0 min 0,000 mm 0,0 UV-I 0 W/m -3,6 C -9,7 C 27,4 km/h (4 Bft) 97,87 %
05.02.2018 22:56 -0,4 C 4,4 C 79 % 1020,6 hPa 0,0 l/m 15,5 km/h (3 Bft) O-NO 59 0 min 0,000 mm 0,0 UV-I 0 W/m -3,6 C -7,8 C 22,5 km/h (4 Bft) 97,87 %
05.02.2018 22:58 -0,4 C 4,4 C 79 % 1020,6 hPa 0,0 l/m 19,9 km/h (4 Bft) NO 45 0 min 0,000 mm 0,0 UV-I 0 W/m -3,6 C -10,1 C 30,6 km/h (5 Bft) 97,87 %
05.02.2018 23:00 -0,4 C 4,4 C 79 % 1020,6 hPa 0,0 l/m 20,8 km/h (4 Bft) O-NO 69 0 min 0,025 mm 0,0 UV-I 0 W/m -3,6 C -10,5 C 29,0 km/h (5 Bft) 93,62 %
05.02.2018 23:02 -0,4 C 4,4 C 79 % 1020,6 hPa 0,0 l/m 21,3 km/h (4 Bft) O-NO 70 0 min 0,000 mm 0,0 UV-I 0 W/m -3,6 C -10,7 C 29,0 km/h (5 Bft) 96,23 %
05.02.2018 23:04 -0,4 C 4,4 C 79 % 1020,6 hPa 0,0 l/m 17,8 km/h (3 Bft) O-NO 71 0 min 0,000 mm 0,0 UV-I 0 W/m -3,6 C -9,1 C 25,7 km/h (4 Bft) 97,87 %
05.02.2018 23:06 -0,4 C 4,4 C 80 % 1020,5 hPa 0,0 l/m 17,9 km/h (3 Bft) NO 44 0 min 0,000 mm 0,0 UV-I 0 W/m -3,4 C -9,1 C 29,0 km/h (5 Bft) 95,74 %
05.02.2018 23:08 -0,4 C 4,4 C 79 % 1020,5 hPa 0,0 l/m 18,6 km/h (3 Bft) O-NO 57 0 min 0,000 mm 0,0 UV-I 0 W/m -3,6 C -9,5 C 25,7 km/h (4 Bft) 98,00 %
05.02.2018 23:10 -0,5 C 4,4 C 80 % 1020,5 hPa 0,0 l/m 17,8 km/h (3 Bft) O-NO 63 0 min 0,000 mm 0,0 UV-I 0 W/m -3,5 C -9,2 C 27,4 km/h (4 Bft) 97,87 %
05.02.2018 23:12 -0,5 C 4,4 C 80 % 1020,5 hPa 0,0 l/m 19,2 km/h (3 Bft) O-NO 65 0 min 0,000 mm 0,0 UV-I 0 W/m -3,5 C -9,9 C 27,4 km/h (4 Bft) 97,87 %
05.02.2018 23:14 -0,5 C 4,4 C 79 % 1020,4 hPa 0,0 l/m 19,5 km/h (3 Bft) O-NO 67 0 min 0,000 mm 0,0 UV-I 0 W/m -3,7 C -10,0 C 25,7 km/h (4 Bft) 97,14 %
05.02.2018 23:16 -0,5 C 4,4 C 80 % 1020,5 hPa 0,0 l/m 19,7 km/h (3 Bft) O-NO 62 0 min 0,000 mm 0,0 UV-I 0 W/m -3,5 C -10,1 C 25,7 km/h (4 Bft) 96,00 %
05.02.2018 23:18 -0,5 C 4,4 C 80 % 1020,4 hPa 0,0 l/m 16,1 km/h (3 Bft) O-NO 63 0 min 0,000 mm 0,0 UV-I 0 W/m -3,5 C -8,2 C 25,7 km/h (4 Bft) 98,00 %
05.02.2018 23:20 -0,5 C 4,4 C 80 % 1020,5 hPa 0,0 l/m 15,6 km/h (3 Bft) NO 51 0 min 0,000 mm 0,0 UV-I 0 W/m -3,5 C -7,9 C 19,3 km/h (3 Bft) 95,74 %
05.02.2018 23:22 -0,6 C 4,4 C 80 % 1020,4 hPa 0,0 l/m 18,9 km/h (3 Bft) NO 50 0 min 0,000 mm 0,0 UV-I 0 W/m -3,6 C -9,9 C 27,4 km/h (4 Bft) 95,74 %
05.02.2018 23:24 -0,6 C 4,4 C 80 % 1020,5 hPa 0,0 l/m 16,8 km/h (3 Bft) NO 44 0 min 0,000 mm 0,0 UV-I 0 W/m -3,6 C -8,8 C 25,7 km/h (4 Bft) 97,87 %
05.02.2018 23:26 -0,6 C 4,4 C 80 % 1020,4 hPa 0,0 l/m 17,3 km/h (3 Bft) O-NO 74 0 min 0,000 mm 0,0 UV-I 0 W/m -3,6 C -9,0 C 25,7 km/h (4 Bft) 97,44 %
05.02.2018 23:28 -0,6 C 4,4 C 80 % 1020,5 hPa 0,0 l/m 16,4 km/h (3 Bft) O-NO 59 0 min 0,000 mm 0,0 UV-I 0 W/m -3,6 C -8,5 C 22,5 km/h (4 Bft) 98,00 %
05.02.2018 23:30 -0,6 C 4,4 C 81 % 1020,4 hPa 0,0 l/m 19,9 km/h (4 Bft) O-NO 73 0 min 0,000 mm 0,0 UV-I 0 W/m -3,4 C -10,4 C 27,4 km/h (4 Bft) 95,74 %
05.02.2018 23:32 -0,6 C 4,4 C 80 % 1020,4 hPa 0,0 l/m 20,7 km/h (4 Bft) NO 51 0 min 0,000 mm 0,0 UV-I 0 W/m -3,6 C -10,7 C 27,4 km/h (4 Bft) 95,74 %
05.02.2018 23:34 -0,6 C 4,4 C 80 % 1020,4 hPa 0,0 l/m 16,6 km/h (3 Bft) NO 49 0 min 0,000 mm 0,0 UV-I 0 W/m -3,6 C -8,6 C 24,1 km/h (4 Bft) 95,74 %
05.02.2018 23:36 -0,6 C 4,4 C 80 % 1020,4 hPa 0,0 l/m 17,9 km/h (3 Bft) O 79 0 min 0,000 mm 0,0 UV-I 0 W/m -3,6 C -9,4 C 27,4 km/h (4 Bft) 97,87 %
05.02.2018 23:38 -0,6 C 4,4 C 80 % 1020,3 hPa 0,0 l/m 18,0 km/h (3 Bft) NO 49 0 min 0,000 mm 0,0 UV-I 0 W/m -3,6 C -9,4 C 22,5 km/h (4 Bft) 97,87 %
05.02.2018 23:40 -0,6 C 4,4 C 81 % 1020,4 hPa 0,0 l/m 19,5 km/h (3 Bft) O-NO 67 0 min 0,000 mm 0,0 UV-I 0 W/m -3,4 C -10,2 C 25,7 km/h (4 Bft) 95,74 %
05.02.2018 23:42 -0,6 C 4,4 C 80 % 1020,3 hPa 0,0 l/m 21,5 km/h (4 Bft) O-NO 65 0 min 0,000 mm 0,0 UV-I 0 W/m -3,6 C -11,1 C 30,6 km/h (5 Bft) 97,92 %
05.02.2018 23:44 -0,6 C 4,4 C 80 % 1020,3 hPa 0,0 l/m 24,5 km/h (4 Bft) NO 49 0 min 0,000 mm 0,0 UV-I 0 W/m -3,6 C -12,3 C 33,8 km/h (5 Bft) 100,00 %
05.02.2018 23:46 -0,6 C 4,4 C 80 % 1020,3 hPa 0,0 l/m 19,6 km/h (3 Bft) O-NO 75 0 min 0,000 mm 0,0 UV-I 0 W/m -3,6 C -10,2 C 27,4 km/h (4 Bft) 100,00 %
05.02.2018 23:48 -0,7 C 4,4 C 81 % 1020,2 hPa 0,0 l/m 20,4 km/h (4 Bft) O-NO 76 0 min 0,000 mm 0,0 UV-I 0 W/m -3,5 C -10,7 C 32,2 km/h (5 Bft) 100,00 %
05.02.2018 23:50 -0,7 C 4,4 C 81 % 1020,1 hPa 0,0 l/m 20,4 km/h (4 Bft) O-NO 77 0 min 0,000 mm 0,0 UV-I 0 W/m -3,5 C -10,7 C 30,6 km/h (5 Bft) 97,87 %
05.02.2018 23:52 -0,7 C 4,4 C 81 % 1020,1 hPa 0,0 l/m 15,9 km/h (3 Bft) NO 39 0 min 0,000 mm 0,0 UV-I 0 W/m -3,5 C -8,4 C 20,9 km/h (4 Bft) 97,87 %
05.02.2018 23:54 -0,7 C 4,4 C 81 % 1020,1 hPa 0,0 l/m 17,9 km/h (3 Bft) NO 55 0 min 0,000 mm 0,0 UV-I 0 W/m -3,5 C -9,5 C 25,7 km/h (4 Bft) 95,74 %
05.02.2018 23:56 -0,7 C 4,4 C 82 % 1020,1 hPa 0,0 l/m 19,5 km/h (3 Bft) O-NO 57 0 min 0,000 mm 0,0 UV-I 0 W/m -3,4 C -10,3 C 25,7 km/h (4 Bft) 97,87 %
05.02.2018 23:58 -0,7 C 4,4 C 81 % 1020,1 hPa 0,0 l/m 19,7 km/h (3 Bft) N-NO 32 0 min 0,000 mm 0,0 UV-I 0 W/m -3,5 C -10,4 C 27,4 km/h (4 Bft) 95,74 %
_ Min-Zeit 05:00 00:00 14:18 23:50 - 00:00 - - - - - - 05:46 21:20 00:00 18:34
Minimum _ -3,3 C 4,4 C 71 % 1020,1 hPa - 0,0 km/h (0 Bft) - - - - - - -4,0 C -12,4 C 0,0 km/h (0 Bft) 88,57 %
_ Max-Zeit 14:14 00:00 02:04 09:12 00:00 21:20 - - 15:15 15:00 12:02 13:44 14:08 16:48 20:50 00:20
Maximum _ 3,1 C 4,4 C 97 % 1024,3 hPa 0,0 l/m 26,1 km/h
O-NO (4 Bft)
- - 3 min 0,178 mm 0,9 UV-I 510 W/m -0,8 C -1,6 C 35,4 km/h
NO (5 Bft)
100,00 %
Durchschnitt _ -0,8 C 4,4 C 86 % 1022,4 hPa #0,0 l/m 12,5 km/h (3 Bft) O-NO - #7:36 h #1,168 mm 0,7 UV-I 238 W/m -2,9 C -6,0 C 17,7 km/h (3 Bft) 97,70 %